<?xml version="1.0" encoding="UTF-8" standalone="no" ?>
<gpx xmlns="http://www.topografix.com/GPX/1/1" xmlns:xsi="http://www.w3.org/2001/XMLSchema-instance" xsi:schemaLocation="http://www.topografix.com/GPX/1/1 http://www.topografix.com/GPX/1/1/gpx.xsd" version="1.1" creator="VisuGPX - https://www.visugpx.com">
  <metadata>
    <name>RANDO LE CHAMBON SUR LIGNON 27 KM</name>
    <desc><![CDATA[RANDO LE CHAMBON SUR LIGNON 27KM. DEPART ARRIVEE VERS LE TEMPLE.LE CHOMOR.LA CUMINE.SURNETTE. LA DETOURBE.LE MOULIN DE BOYER.LA SUCHERE.PONT DE MARS.SAURON .LES CHATOUX]]></desc>
  </metadata>
  <trk>
    <name><![CDATA[20-JUIN-24 17:24:53]]></name>
    <extensions>
      <line xmlns="http://www.topografix.com/GPX/gpx_style/0/2">
        <color>0000FF</color>
        <width>4</width>
      </line>
    </extensions>
    <trkseg>
      <trkpt lat="45.05791" lon="4.3013">
        <ele>924.45</ele>
        <time>2024-06-20T07:08:49Z</time>
      </trkpt>
      <trkpt lat="45.05786" lon="4.30129">
        <ele>927.81</ele>
        <time>2024-06-20T07:08:53Z</time>
      </trkpt>
      <trkpt lat="45.05767" lon="4.3012">
        <ele>934.06</ele>
        <time>2024-06-20T07:09:09Z</time>
      </trkpt>
      <trkpt lat="45.05765" lon="4.30119">
        <ele>935.5</ele>
        <time>2024-06-20T07:09:12Z</time>
      </trkpt>
      <trkpt lat="45.05751" lon="4.30111">
        <ele>938.38</ele>
        <time>2024-06-20T07:09:26Z</time>
      </trkpt>
      <trkpt lat="45.05741" lon="4.30081">
        <ele>944.15</ele>
        <time>2024-06-20T07:09:41Z</time>
      </trkpt>
      <trkpt lat="45.05741" lon="4.30079">
        <ele>944.15</ele>
        <time>2024-06-20T07:09:42Z</time>
      </trkpt>
      <trkpt lat="45.05738" lon="4.30056">
        <ele>942.71</ele>
        <time>2024-06-20T07:09:55Z</time>
      </trkpt>
      <trkpt lat="45.05735" lon="4.30036">
        <ele>941.27</ele>
        <time>2024-06-20T07:10:09Z</time>
      </trkpt>
      <trkpt lat="45.05741" lon="4.30026">
        <ele>940.79</ele>
        <time>2024-06-20T07:10:24Z</time>
      </trkpt>
      <trkpt lat="45.05742" lon="4.30025">
        <ele>940.31</ele>
        <time>2024-06-20T07:10:37Z</time>
      </trkpt>
      <trkpt lat="45.05747" lon="4.30022">
        <ele>937.42</ele>
        <time>2024-06-20T07:10:49Z</time>
      </trkpt>
      <trkpt lat="45.05754" lon="4.30019">
        <ele>935.98</ele>
        <time>2024-06-20T07:11:04Z</time>
      </trkpt>
      <trkpt lat="45.05757" lon="4.30023">
        <ele>934.06</ele>
        <time>2024-06-20T07:11:15Z</time>
      </trkpt>
      <trkpt lat="45.05758" lon="4.30018">
        <ele>931.65</ele>
        <time>2024-06-20T07:11:28Z</time>
      </trkpt>
      <trkpt lat="45.05759" lon="4.30014">
        <ele>931.17</ele>
        <time>2024-06-20T07:11:40Z</time>
      </trkpt>
      <trkpt lat="45.05766" lon="4.29995">
        <ele>929.73</ele>
        <time>2024-06-20T07:11:51Z</time>
      </trkpt>
      <trkpt lat="45.05767" lon="4.29991">
        <ele>929.73</ele>
        <time>2024-06-20T07:11:53Z</time>
      </trkpt>
      <trkpt lat="45.05773" lon="4.29973">
        <ele>928.77</ele>
        <time>2024-06-20T07:12:05Z</time>
      </trkpt>
      <trkpt lat="45.0578" lon="4.29953">
        <ele>929.25</ele>
        <time>2024-06-20T07:12:18Z</time>
      </trkpt>
      <trkpt lat="45.05786" lon="4.29932">
        <ele>930.69</ele>
        <time>2024-06-20T07:12:32Z</time>
      </trkpt>
      <trkpt lat="45.05787" lon="4.29922">
        <ele>930.69</ele>
        <time>2024-06-20T07:12:40Z</time>
      </trkpt>
      <trkpt lat="45.05788" lon="4.29916">
        <ele>930.69</ele>
        <time>2024-06-20T07:12:44Z</time>
      </trkpt>
      <trkpt lat="45.0579" lon="4.29909">
        <ele>930.69</ele>
        <time>2024-06-20T07:12:59Z</time>
      </trkpt>
      <trkpt lat="45.05792" lon="4.29907">
        <ele>930.21</ele>
        <time>2024-06-20T07:13:15Z</time>
      </trkpt>
      <trkpt lat="45.05802" lon="4.2989">
        <ele>929.25</ele>
        <time>2024-06-20T07:13:31Z</time>
      </trkpt>
      <trkpt lat="45.05808" lon="4.29872">
        <ele>930.69</ele>
        <time>2024-06-20T07:13:45Z</time>
      </trkpt>
      <trkpt lat="45.0581" lon="4.29864">
        <ele>930.21</ele>
        <time>2024-06-20T07:13:58Z</time>
      </trkpt>
      <trkpt lat="45.05815" lon="4.29847">
        <ele>929.25</ele>
        <time>2024-06-20T07:14:10Z</time>
      </trkpt>
      <trkpt lat="45.05823" lon="4.29822">
        <ele>927.33</ele>
        <time>2024-06-20T07:14:23Z</time>
      </trkpt>
      <trkpt lat="45.05829" lon="4.29811">
        <ele>926.85</ele>
        <time>2024-06-20T07:14:32Z</time>
      </trkpt>
      <trkpt lat="45.05837" lon="4.29784">
        <ele>926.37</ele>
        <time>2024-06-20T07:14:45Z</time>
      </trkpt>
      <trkpt lat="45.05845" lon="4.29759">
        <ele>926.85</ele>
        <time>2024-06-20T07:15:01Z</time>
      </trkpt>
      <trkpt lat="45.05856" lon="4.29734">
        <ele>929.25</ele>
        <time>2024-06-20T07:15:18Z</time>
      </trkpt>
      <trkpt lat="45.05864" lon="4.29701">
        <ele>933.1</ele>
        <time>2024-06-20T07:15:35Z</time>
      </trkpt>
      <trkpt lat="45.05865" lon="4.29694">
        <ele>933.58</ele>
        <time>2024-06-20T07:15:39Z</time>
      </trkpt>
      <trkpt lat="45.05871" lon="4.29677">
        <ele>933.1</ele>
        <time>2024-06-20T07:15:53Z</time>
      </trkpt>
      <trkpt lat="45.05876" lon="4.29654">
        <ele>935.02</ele>
        <time>2024-06-20T07:16:05Z</time>
      </trkpt>
      <trkpt lat="45.05876" lon="4.29625">
        <ele>935.02</ele>
        <time>2024-06-20T07:16:18Z</time>
      </trkpt>
      <trkpt lat="45.0588" lon="4.29593">
        <ele>935.02</ele>
        <time>2024-06-20T07:16:35Z</time>
      </trkpt>
      <trkpt lat="45.05883" lon="4.29577">
        <ele>934.54</ele>
        <time>2024-06-20T07:16:49Z</time>
      </trkpt>
      <trkpt lat="45.05886" lon="4.29563">
        <ele>935.98</ele>
        <time>2024-06-20T07:17:03Z</time>
      </trkpt>
      <trkpt lat="45.05896" lon="4.29542">
        <ele>938.86</ele>
        <time>2024-06-20T07:17:18Z</time>
      </trkpt>
      <trkpt lat="45.05906" lon="4.2952">
        <ele>942.23</ele>
        <time>2024-06-20T07:17:33Z</time>
      </trkpt>
      <trkpt lat="45.05914" lon="4.29509">
        <ele>947.04</ele>
        <time>2024-06-20T07:17:46Z</time>
      </trkpt>
      <trkpt lat="45.05927" lon="4.29488">
        <ele>948</ele>
        <time>2024-06-20T07:18:01Z</time>
      </trkpt>
      <trkpt lat="45.05936" lon="4.29467">
        <ele>947.04</ele>
        <time>2024-06-20T07:18:15Z</time>
      </trkpt>
      <trkpt lat="45.05938" lon="4.29464">
        <ele>946.07</ele>
        <time>2024-06-20T07:18:27Z</time>
      </trkpt>
      <trkpt lat="45.05939" lon="4.29461">
        <ele>946.56</ele>
        <time>2024-06-20T07:18:42Z</time>
      </trkpt>
      <trkpt lat="45.05942" lon="4.29459">
        <ele>945.59</ele>
        <time>2024-06-20T07:18:58Z</time>
      </trkpt>
      <trkpt lat="45.05948" lon="4.29445">
        <ele>941.75</ele>
        <time>2024-06-20T07:19:10Z</time>
      </trkpt>
      <trkpt lat="45.05952" lon="4.29427">
        <ele>938.38</ele>
        <time>2024-06-20T07:19:22Z</time>
      </trkpt>
      <trkpt lat="45.05962" lon="4.29407">
        <ele>935.98</ele>
        <time>2024-06-20T07:19:35Z</time>
      </trkpt>
      <trkpt lat="45.05965" lon="4.29399">
        <ele>936.94</ele>
        <time>2024-06-20T07:19:39Z</time>
      </trkpt>
      <trkpt lat="45.05974" lon="4.29374">
        <ele>939.35</ele>
        <time>2024-06-20T07:19:53Z</time>
      </trkpt>
      <trkpt lat="45.05979" lon="4.29355">
        <ele>944.15</ele>
        <time>2024-06-20T07:20:10Z</time>
      </trkpt>
      <trkpt lat="45.05982" lon="4.29347">
        <ele>947.04</ele>
        <time>2024-06-20T07:20:14Z</time>
      </trkpt>
      <trkpt lat="45.05989" lon="4.29319">
        <ele>951.84</ele>
        <time>2024-06-20T07:20:28Z</time>
      </trkpt>
      <trkpt lat="45.05991" lon="4.29284">
        <ele>951.36</ele>
        <time>2024-06-20T07:20:45Z</time>
      </trkpt>
      <trkpt lat="45.05992" lon="4.29281">
        <ele>951.84</ele>
        <time>2024-06-20T07:20:47Z</time>
      </trkpt>
      <trkpt lat="45.05995" lon="4.29274">
        <ele>951.84</ele>
        <time>2024-06-20T07:20:55Z</time>
      </trkpt>
      <trkpt lat="45.06002" lon="4.29255">
        <ele>955.21</ele>
        <time>2024-06-20T07:21:09Z</time>
      </trkpt>
      <trkpt lat="45.06011" lon="4.2924">
        <ele>955.21</ele>
        <time>2024-06-20T07:21:21Z</time>
      </trkpt>
      <trkpt lat="45.06019" lon="4.29226">
        <ele>955.69</ele>
        <time>2024-06-20T07:21:33Z</time>
      </trkpt>
      <trkpt lat="45.0602" lon="4.29221">
        <ele>956.65</ele>
        <time>2024-06-20T07:21:45Z</time>
      </trkpt>
      <trkpt lat="45.06028" lon="4.29206">
        <ele>960.01</ele>
        <time>2024-06-20T07:21:57Z</time>
      </trkpt>
      <trkpt lat="45.0603" lon="4.29192">
        <ele>960.98</ele>
        <time>2024-06-20T07:22:09Z</time>
      </trkpt>
      <trkpt lat="45.06034" lon="4.29172">
        <ele>962.42</ele>
        <time>2024-06-20T07:22:22Z</time>
      </trkpt>
      <trkpt lat="45.0604" lon="4.29145">
        <ele>965.78</ele>
        <time>2024-06-20T07:22:36Z</time>
      </trkpt>
      <trkpt lat="45.06043" lon="4.29134">
        <ele>967.22</ele>
        <time>2024-06-20T07:22:50Z</time>
      </trkpt>
      <trkpt lat="45.06048" lon="4.29125">
        <ele>970.59</ele>
        <time>2024-06-20T07:23:04Z</time>
      </trkpt>
      <trkpt lat="45.06055" lon="4.2911">
        <ele>974.43</ele>
        <time>2024-06-20T07:23:11Z</time>
      </trkpt>
      <trkpt lat="45.06058" lon="4.29106">
        <ele>975.39</ele>
        <time>2024-06-20T07:23:13Z</time>
      </trkpt>
      <trkpt lat="45.06067" lon="4.29062">
        <ele>971.07</ele>
        <time>2024-06-20T07:23:27Z</time>
      </trkpt>
      <trkpt lat="45.06073" lon="4.2903">
        <ele>968.67</ele>
        <time>2024-06-20T07:23:41Z</time>
      </trkpt>
      <trkpt lat="45.06073" lon="4.29008">
        <ele>967.22</ele>
        <time>2024-06-20T07:23:55Z</time>
      </trkpt>
      <trkpt lat="45.06081" lon="4.28988">
        <ele>965.3</ele>
        <time>2024-06-20T07:24:11Z</time>
      </trkpt>
      <trkpt lat="45.06084" lon="4.28976">
        <ele>967.7</ele>
        <time>2024-06-20T07:24:23Z</time>
      </trkpt>
      <trkpt lat="45.06094" lon="4.28958">
        <ele>967.7</ele>
        <time>2024-06-20T07:24:35Z</time>
      </trkpt>
      <trkpt lat="45.06098" lon="4.28943">
        <ele>968.18</ele>
        <time>2024-06-20T07:24:47Z</time>
      </trkpt>
      <trkpt lat="45.06103" lon="4.28903">
        <ele>967.22</ele>
        <time>2024-06-20T07:25:07Z</time>
      </trkpt>
      <trkpt lat="45.06104" lon="4.28875">
        <ele>966.26</ele>
        <time>2024-06-20T07:25:22Z</time>
      </trkpt>
      <trkpt lat="45.06105" lon="4.2887">
        <ele>965.3</ele>
        <time>2024-06-20T07:25:25Z</time>
      </trkpt>
      <trkpt lat="45.06105" lon="4.28862">
        <ele>963.86</ele>
        <time>2024-06-20T07:25:30Z</time>
      </trkpt>
      <trkpt lat="45.06105" lon="4.28834">
        <ele>961.94</ele>
        <time>2024-06-20T07:25:46Z</time>
      </trkpt>
      <trkpt lat="45.06105" lon="4.28819">
        <ele>961.46</ele>
        <time>2024-06-20T07:25:59Z</time>
      </trkpt>
      <trkpt lat="45.06105" lon="4.28819">
        <ele>960.98</ele>
        <time>2024-06-20T07:26:13Z</time>
      </trkpt>
      <trkpt lat="45.06105" lon="4.28818">
        <ele>960.49</ele>
        <time>2024-06-20T07:26:25Z</time>
      </trkpt>
      <trkpt lat="45.06106" lon="4.28809">
        <ele>959.05</ele>
        <time>2024-06-20T07:26:35Z</time>
      </trkpt>
      <trkpt lat="45.06107" lon="4.288">
        <ele>959.05</ele>
        <time>2024-06-20T07:26:42Z</time>
      </trkpt>
      <trkpt lat="45.06109" lon="4.2878">
        <ele>958.57</ele>
        <time>2024-06-20T07:26:57Z</time>
      </trkpt>
      <trkpt lat="45.06111" lon="4.28762">
        <ele>960.01</ele>
        <time>2024-06-20T07:27:11Z</time>
      </trkpt>
      <trkpt lat="45.06111" lon="4.28746">
        <ele>962.42</ele>
        <time>2024-06-20T07:27:23Z</time>
      </trkpt>
      <trkpt lat="45.06113" lon="4.28737">
        <ele>964.82</ele>
        <time>2024-06-20T07:27:36Z</time>
      </trkpt>
      <trkpt lat="45.06114" lon="4.28738">
        <ele>964.82</ele>
        <time>2024-06-20T07:27:38Z</time>
      </trkpt>
      <trkpt lat="45.06113" lon="4.28751">
        <ele>968.67</ele>
        <time>2024-06-20T07:27:53Z</time>
      </trkpt>
      <trkpt lat="45.06112" lon="4.28762">
        <ele>974.91</ele>
        <time>2024-06-20T07:28:08Z</time>
      </trkpt>
      <trkpt lat="45.0611" lon="4.28775">
        <ele>980.68</ele>
        <time>2024-06-20T07:28:21Z</time>
      </trkpt>
      <trkpt lat="45.06104" lon="4.28789">
        <ele>984.53</ele>
        <time>2024-06-20T07:28:32Z</time>
      </trkpt>
      <trkpt lat="45.06102" lon="4.28792">
        <ele>984.53</ele>
        <time>2024-06-20T07:28:34Z</time>
      </trkpt>
      <trkpt lat="45.06096" lon="4.28818">
        <ele>977.8</ele>
        <time>2024-06-20T07:28:49Z</time>
      </trkpt>
      <trkpt lat="45.06092" lon="4.28821">
        <ele>978.28</ele>
        <time>2024-06-20T07:28:53Z</time>
      </trkpt>
      <trkpt lat="45.06074" lon="4.2883">
        <ele>980.2</ele>
        <time>2024-06-20T07:29:10Z</time>
      </trkpt>
      <trkpt lat="45.06061" lon="4.28831">
        <ele>980.2</ele>
        <time>2024-06-20T07:29:23Z</time>
      </trkpt>
      <trkpt lat="45.06044" lon="4.28839">
        <ele>982.6</ele>
        <time>2024-06-20T07:29:38Z</time>
      </trkpt>
      <trkpt lat="45.06022" lon="4.28832">
        <ele>979.72</ele>
        <time>2024-06-20T07:29:52Z</time>
      </trkpt>
      <trkpt lat="45.06008" lon="4.28831">
        <ele>982.6</ele>
        <time>2024-06-20T07:30:06Z</time>
      </trkpt>
      <trkpt lat="45.05994" lon="4.28823">
        <ele>981.64</ele>
        <time>2024-06-20T07:30:19Z</time>
      </trkpt>
      <trkpt lat="45.0599" lon="4.28823">
        <ele>981.16</ele>
        <time>2024-06-20T07:30:22Z</time>
      </trkpt>
      <trkpt lat="45.05988" lon="4.28823">
        <ele>980.68</ele>
        <time>2024-06-20T07:30:24Z</time>
      </trkpt>
      <trkpt lat="45.0596" lon="4.28822">
        <ele>977.8</ele>
        <time>2024-06-20T07:30:42Z</time>
      </trkpt>
      <trkpt lat="45.05935" lon="4.28818">
        <ele>974.91</ele>
        <time>2024-06-20T07:30:58Z</time>
      </trkpt>
      <trkpt lat="45.05908" lon="4.28813">
        <ele>972.03</ele>
        <time>2024-06-20T07:31:17Z</time>
      </trkpt>
      <trkpt lat="45.05887" lon="4.28812">
        <ele>971.07</ele>
        <time>2024-06-20T07:31:33Z</time>
      </trkpt>
      <trkpt lat="45.05866" lon="4.28818">
        <ele>970.59</ele>
        <time>2024-06-20T07:31:51Z</time>
      </trkpt>
      <trkpt lat="45.05841" lon="4.28822">
        <ele>970.59</ele>
        <time>2024-06-20T07:32:11Z</time>
      </trkpt>
      <trkpt lat="45.05823" lon="4.28819">
        <ele>970.11</ele>
        <time>2024-06-20T07:32:25Z</time>
      </trkpt>
      <trkpt lat="45.05803" lon="4.28811">
        <ele>969.63</ele>
        <time>2024-06-20T07:32:42Z</time>
      </trkpt>
      <trkpt lat="45.05785" lon="4.28804">
        <ele>970.11</ele>
        <time>2024-06-20T07:32:58Z</time>
      </trkpt>
      <trkpt lat="45.05782" lon="4.28805">
        <ele>970.11</ele>
        <time>2024-06-20T07:33:01Z</time>
      </trkpt>
      <trkpt lat="45.05771" lon="4.28809">
        <ele>970.59</ele>
        <time>2024-06-20T07:33:12Z</time>
      </trkpt>
      <trkpt lat="45.05761" lon="4.28791">
        <ele>972.99</ele>
        <time>2024-06-20T07:33:27Z</time>
      </trkpt>
      <trkpt lat="45.05749" lon="4.28777">
        <ele>972.51</ele>
        <time>2024-06-20T07:33:40Z</time>
      </trkpt>
      <trkpt lat="45.05735" lon="4.28775">
        <ele>974.43</ele>
        <time>2024-06-20T07:33:55Z</time>
      </trkpt>
      <trkpt lat="45.0572" lon="4.28773">
        <ele>977.32</ele>
        <time>2024-06-20T07:34:11Z</time>
      </trkpt>
      <trkpt lat="45.05708" lon="4.28763">
        <ele>982.6</ele>
        <time>2024-06-20T07:34:25Z</time>
      </trkpt>
      <trkpt lat="45.05685" lon="4.28753">
        <ele>985.01</ele>
        <time>2024-06-20T07:34:39Z</time>
      </trkpt>
      <trkpt lat="45.05685" lon="4.28725">
        <ele>990.78</ele>
        <time>2024-06-20T07:34:56Z</time>
      </trkpt>
      <trkpt lat="45.05685" lon="4.28697">
        <ele>993.18</ele>
        <time>2024-06-20T07:35:12Z</time>
      </trkpt>
      <trkpt lat="45.05681" lon="4.28674">
        <ele>990.78</ele>
        <time>2024-06-20T07:35:25Z</time>
      </trkpt>
      <trkpt lat="45.05679" lon="4.28668">
        <ele>990.3</ele>
        <time>2024-06-20T07:35:29Z</time>
      </trkpt>
      <trkpt lat="45.05674" lon="4.28657">
        <ele>992.7</ele>
        <time>2024-06-20T07:35:43Z</time>
      </trkpt>
      <trkpt lat="45.05668" lon="4.28649">
        <ele>996.06</ele>
        <time>2024-06-20T07:35:55Z</time>
      </trkpt>
      <trkpt lat="45.05668" lon="4.28635">
        <ele>997.99</ele>
        <time>2024-06-20T07:36:07Z</time>
      </trkpt>
      <trkpt lat="45.05648" lon="4.28598">
        <ele>1002.31</ele>
        <time>2024-06-20T07:36:22Z</time>
      </trkpt>
      <trkpt lat="45.05634" lon="4.28578">
        <ele>1004.23</ele>
        <time>2024-06-20T07:36:35Z</time>
      </trkpt>
      <trkpt lat="45.05626" lon="4.2856">
        <ele>1005.2</ele>
        <time>2024-06-20T07:36:49Z</time>
      </trkpt>
      <trkpt lat="45.05616" lon="4.28538">
        <ele>1007.12</ele>
        <time>2024-06-20T07:37:03Z</time>
      </trkpt>
      <trkpt lat="45.05607" lon="4.28511">
        <ele>1008.56</ele>
        <time>2024-06-20T07:37:17Z</time>
      </trkpt>
      <trkpt lat="45.05605" lon="4.28501">
        <ele>1008.08</ele>
        <time>2024-06-20T07:37:23Z</time>
      </trkpt>
      <trkpt lat="45.05596" lon="4.28471">
        <ele>1004.23</ele>
        <time>2024-06-20T07:37:38Z</time>
      </trkpt>
      <trkpt lat="45.05594" lon="4.28463">
        <ele>1001.35</ele>
        <time>2024-06-20T07:37:43Z</time>
      </trkpt>
      <trkpt lat="45.05592" lon="4.28453">
        <ele>996.54</ele>
        <time>2024-06-20T07:37:47Z</time>
      </trkpt>
      <trkpt lat="45.05588" lon="4.28416">
        <ele>983.57</ele>
        <time>2024-06-20T07:38:05Z</time>
      </trkpt>
      <trkpt lat="45.05581" lon="4.284">
        <ele>982.6</ele>
        <time>2024-06-20T07:38:19Z</time>
      </trkpt>
      <trkpt lat="45.05578" lon="4.28393">
        <ele>981.64</ele>
        <time>2024-06-20T07:38:23Z</time>
      </trkpt>
      <trkpt lat="45.05568" lon="4.28376">
        <ele>986.93</ele>
        <time>2024-06-20T07:38:37Z</time>
      </trkpt>
      <trkpt lat="45.0556" lon="4.28359">
        <ele>997.51</ele>
        <time>2024-06-20T07:38:51Z</time>
      </trkpt>
      <trkpt lat="45.05555" lon="4.28348">
        <ele>1006.16</ele>
        <time>2024-06-20T07:39:04Z</time>
      </trkpt>
      <trkpt lat="45.05551" lon="4.28336">
        <ele>1010</ele>
        <time>2024-06-20T07:39:15Z</time>
      </trkpt>
      <trkpt lat="45.05551" lon="4.28325">
        <ele>1006.16</ele>
        <time>2024-06-20T07:39:20Z</time>
      </trkpt>
      <trkpt lat="45.05552" lon="4.28316">
        <ele>1004.72</ele>
        <time>2024-06-20T07:39:25Z</time>
      </trkpt>
      <trkpt lat="45.05561" lon="4.28296">
        <ele>998.95</ele>
        <time>2024-06-20T07:39:37Z</time>
      </trkpt>
      <trkpt lat="45.05564" lon="4.28289">
        <ele>998.95</ele>
        <time>2024-06-20T07:39:40Z</time>
      </trkpt>
      <trkpt lat="45.05574" lon="4.28271">
        <ele>1001.83</ele>
        <time>2024-06-20T07:39:55Z</time>
      </trkpt>
      <trkpt lat="45.05579" lon="4.28263">
        <ele>1003.75</ele>
        <time>2024-06-20T07:40:08Z</time>
      </trkpt>
      <trkpt lat="45.05588" lon="4.28236">
        <ele>998.95</ele>
        <time>2024-06-20T07:40:22Z</time>
      </trkpt>
      <trkpt lat="45.0558" lon="4.28221">
        <ele>998.95</ele>
        <time>2024-06-20T07:40:35Z</time>
      </trkpt>
      <trkpt lat="45.05571" lon="4.28202">
        <ele>1002.31</ele>
        <time>2024-06-20T07:40:47Z</time>
      </trkpt>
      <trkpt lat="45.05567" lon="4.28198">
        <ele>1003.75</ele>
        <time>2024-06-20T07:40:52Z</time>
      </trkpt>
      <trkpt lat="45.0556" lon="4.28185">
        <ele>1007.6</ele>
        <time>2024-06-20T07:41:05Z</time>
      </trkpt>
      <trkpt lat="45.05553" lon="4.28169">
        <ele>1008.08</ele>
        <time>2024-06-20T07:41:18Z</time>
      </trkpt>
      <trkpt lat="45.05546" lon="4.28167">
        <ele>1010.48</ele>
        <time>2024-06-20T07:41:32Z</time>
      </trkpt>
      <trkpt lat="45.05544" lon="4.28166">
        <ele>1010.48</ele>
        <time>2024-06-20T07:41:35Z</time>
      </trkpt>
      <trkpt lat="45.0554" lon="4.28163">
        <ele>1009.52</ele>
        <time>2024-06-20T07:41:44Z</time>
      </trkpt>
      <trkpt lat="45.05539" lon="4.28157">
        <ele>1005.68</ele>
        <time>2024-06-20T07:42:11Z</time>
      </trkpt>
      <trkpt lat="45.05538" lon="4.28156">
        <ele>1005.2</ele>
        <time>2024-06-20T07:42:29Z</time>
      </trkpt>
      <trkpt lat="45.05537" lon="4.28155">
        <ele>1004.23</ele>
        <time>2024-06-20T07:42:43Z</time>
      </trkpt>
      <trkpt lat="45.05536" lon="4.28152">
        <ele>1003.75</ele>
        <time>2024-06-20T07:42:58Z</time>
      </trkpt>
      <trkpt lat="45.05534" lon="4.2815">
        <ele>1004.23</ele>
        <time>2024-06-20T07:43:13Z</time>
      </trkpt>
      <trkpt lat="45.05533" lon="4.28148">
        <ele>1004.23</ele>
        <time>2024-06-20T07:43:34Z</time>
      </trkpt>
      <trkpt lat="45.05534" lon="4.28148">
        <ele>1005.68</ele>
        <time>2024-06-20T07:43:51Z</time>
      </trkpt>
      <trkpt lat="45.05533" lon="4.28148">
        <ele>1005.2</ele>
        <time>2024-06-20T07:44:03Z</time>
      </trkpt>
      <trkpt lat="45.05531" lon="4.28149">
        <ele>1004.72</ele>
        <time>2024-06-20T07:44:19Z</time>
      </trkpt>
      <trkpt lat="45.0553" lon="4.2815">
        <ele>1003.75</ele>
        <time>2024-06-20T07:44:32Z</time>
      </trkpt>
      <trkpt lat="45.05529" lon="4.2815">
        <ele>1003.75</ele>
        <time>2024-06-20T07:44:50Z</time>
      </trkpt>
      <trkpt lat="45.05529" lon="4.2815">
        <ele>1004.23</ele>
        <time>2024-06-20T07:45:06Z</time>
      </trkpt>
      <trkpt lat="45.05528" lon="4.2815">
        <ele>1004.23</ele>
        <time>2024-06-20T07:45:20Z</time>
      </trkpt>
      <trkpt lat="45.05528" lon="4.2815">
        <ele>1003.75</ele>
        <time>2024-06-20T07:45:34Z</time>
      </trkpt>
      <trkpt lat="45.05527" lon="4.2815">
        <ele>1003.75</ele>
        <time>2024-06-20T07:45:48Z</time>
      </trkpt>
      <trkpt lat="45.05527" lon="4.2815">
        <ele>1003.75</ele>
        <time>2024-06-20T07:46:04Z</time>
      </trkpt>
      <trkpt lat="45.05528" lon="4.28151">
        <ele>1004.23</ele>
        <time>2024-06-20T07:46:19Z</time>
      </trkpt>
      <trkpt lat="45.05526" lon="4.2815">
        <ele>1003.75</ele>
        <time>2024-06-20T07:46:41Z</time>
      </trkpt>
      <trkpt lat="45.05522" lon="4.28151">
        <ele>1003.75</ele>
        <time>2024-06-20T07:46:57Z</time>
      </trkpt>
      <trkpt lat="45.05518" lon="4.28151">
        <ele>1003.75</ele>
        <time>2024-06-20T07:47:03Z</time>
      </trkpt>
      <trkpt lat="45.0551" lon="4.28143">
        <ele>1005.68</ele>
        <time>2024-06-20T07:47:17Z</time>
      </trkpt>
      <trkpt lat="45.05508" lon="4.28138">
        <ele>1007.6</ele>
        <time>2024-06-20T07:47:34Z</time>
      </trkpt>
      <trkpt lat="45.05508" lon="4.28138">
        <ele>1008.56</ele>
        <time>2024-06-20T07:47:51Z</time>
      </trkpt>
      <trkpt lat="45.05512" lon="4.28139">
        <ele>1010.48</ele>
        <time>2024-06-20T07:47:57Z</time>
      </trkpt>
      <trkpt lat="45.0552" lon="4.28147">
        <ele>1015.29</ele>
        <time>2024-06-20T07:48:14Z</time>
      </trkpt>
      <trkpt lat="45.05522" lon="4.28148">
        <ele>1016.73</ele>
        <time>2024-06-20T07:48:28Z</time>
      </trkpt>
      <trkpt lat="45.05524" lon="4.28149">
        <ele>1013.85</ele>
        <time>2024-06-20T07:48:41Z</time>
      </trkpt>
      <trkpt lat="45.05524" lon="4.2815">
        <ele>1013.37</ele>
        <time>2024-06-20T07:48:53Z</time>
      </trkpt>
      <trkpt lat="45.05525" lon="4.2815">
        <ele>1013.37</ele>
        <time>2024-06-20T07:49:07Z</time>
      </trkpt>
      <trkpt lat="45.05527" lon="4.2815">
        <ele>1010.48</ele>
        <time>2024-06-20T07:49:19Z</time>
      </trkpt>
      <trkpt lat="45.05526" lon="4.2815">
        <ele>1009.52</ele>
        <time>2024-06-20T07:49:31Z</time>
      </trkpt>
      <trkpt lat="45.05525" lon="4.28152">
        <ele>1009.52</ele>
        <time>2024-06-20T07:49:45Z</time>
      </trkpt>
      <trkpt lat="45.05524" lon="4.28152">
        <ele>1010.96</ele>
        <time>2024-06-20T07:49:58Z</time>
      </trkpt>
      <trkpt lat="45.05524" lon="4.28152">
        <ele>1010.96</ele>
        <time>2024-06-20T07:50:12Z</time>
      </trkpt>
      <trkpt lat="45.05524" lon="4.28153">
        <ele>1011.44</ele>
        <time>2024-06-20T07:50:26Z</time>
      </trkpt>
      <trkpt lat="45.05526" lon="4.28155">
        <ele>1010.48</ele>
        <time>2024-06-20T07:50:50Z</time>
      </trkpt>
      <trkpt lat="45.05525" lon="4.28155">
        <ele>1010.48</ele>
        <time>2024-06-20T07:51:04Z</time>
      </trkpt>
      <trkpt lat="45.05525" lon="4.28156">
        <ele>1010.48</ele>
        <time>2024-06-20T07:51:19Z</time>
      </trkpt>
      <trkpt lat="45.05524" lon="4.28156">
        <ele>1010.48</ele>
        <time>2024-06-20T07:51:32Z</time>
      </trkpt>
      <trkpt lat="45.05522" lon="4.28157">
        <ele>1010</ele>
        <time>2024-06-20T07:51:49Z</time>
      </trkpt>
      <trkpt lat="45.05517" lon="4.28155">
        <ele>1010</ele>
        <time>2024-06-20T07:52:03Z</time>
      </trkpt>
      <trkpt lat="45.05517" lon="4.28155">
        <ele>1007.6</ele>
        <time>2024-06-20T07:52:22Z</time>
      </trkpt>
      <trkpt lat="45.05518" lon="4.28154">
        <ele>1006.64</ele>
        <time>2024-06-20T07:52:42Z</time>
      </trkpt>
      <trkpt lat="45.05519" lon="4.28153">
        <ele>1005.68</ele>
        <time>2024-06-20T07:53:06Z</time>
      </trkpt>
      <trkpt lat="45.05519" lon="4.28152">
        <ele>1005.68</ele>
        <time>2024-06-20T07:53:25Z</time>
      </trkpt>
      <trkpt lat="45.0552" lon="4.28152">
        <ele>1004.72</ele>
        <time>2024-06-20T07:53:52Z</time>
      </trkpt>
      <trkpt lat="45.05521" lon="4.28152">
        <ele>1004.72</ele>
        <time>2024-06-20T07:54:21Z</time>
      </trkpt>
      <trkpt lat="45.05521" lon="4.28151">
        <ele>1004.23</ele>
        <time>2024-06-20T07:54:39Z</time>
      </trkpt>
      <trkpt lat="45.05521" lon="4.28151">
        <ele>1003.27</ele>
        <time>2024-06-20T07:54:56Z</time>
      </trkpt>
      <trkpt lat="45.05521" lon="4.28152">
        <ele>1002.79</ele>
        <time>2024-06-20T07:55:24Z</time>
      </trkpt>
      <trkpt lat="45.05522" lon="4.28152">
        <ele>1003.27</ele>
        <time>2024-06-20T07:55:44Z</time>
      </trkpt>
      <trkpt lat="45.0552" lon="4.2815">
        <ele>1003.27</ele>
        <time>2024-06-20T07:56:03Z</time>
      </trkpt>
      <trkpt lat="45.0552" lon="4.28149">
        <ele>1004.23</ele>
        <time>2024-06-20T07:56:23Z</time>
      </trkpt>
      <trkpt lat="45.05519" lon="4.28147">
        <ele>1004.23</ele>
        <time>2024-06-20T07:56:37Z</time>
      </trkpt>
      <trkpt lat="45.05512" lon="4.28139">
        <ele>1004.72</ele>
        <time>2024-06-20T07:56:50Z</time>
      </trkpt>
      <trkpt lat="45.05505" lon="4.2812">
        <ele>1004.72</ele>
        <time>2024-06-20T07:57:03Z</time>
      </trkpt>
      <trkpt lat="45.05499" lon="4.28108">
        <ele>1006.64</ele>
        <time>2024-06-20T07:57:13Z</time>
      </trkpt>
      <trkpt lat="45.05496" lon="4.28103">
        <ele>1007.12</ele>
        <time>2024-06-20T07:57:18Z</time>
      </trkpt>
      <trkpt lat="45.0549" lon="4.28099">
        <ele>1009.52</ele>
        <time>2024-06-20T07:57:24Z</time>
      </trkpt>
      <trkpt lat="45.05479" lon="4.28097">
        <ele>1014.33</ele>
        <time>2024-06-20T07:57:34Z</time>
      </trkpt>
      <trkpt lat="45.05476" lon="4.28095">
        <ele>1017.21</ele>
        <time>2024-06-20T07:57:37Z</time>
      </trkpt>
      <trkpt lat="45.05469" lon="4.28098">
        <ele>1021.54</ele>
        <time>2024-06-20T07:57:42Z</time>
      </trkpt>
      <trkpt lat="45.05457" lon="4.28104">
        <ele>1025.38</ele>
        <time>2024-06-20T07:57:51Z</time>
      </trkpt>
      <trkpt lat="45.05456" lon="4.28107">
        <ele>1025.38</ele>
        <time>2024-06-20T07:57:54Z</time>
      </trkpt>
      <trkpt lat="45.05451" lon="4.28108">
        <ele>1025.38</ele>
        <time>2024-06-20T07:57:58Z</time>
      </trkpt>
      <trkpt lat="45.05438" lon="4.28118">
        <ele>1028.27</ele>
        <time>2024-06-20T07:58:12Z</time>
      </trkpt>
      <trkpt lat="45.05422" lon="4.28121">
        <ele>1033.07</ele>
        <time>2024-06-20T07:58:27Z</time>
      </trkpt>
      <trkpt lat="45.0542" lon="4.2812">
        <ele>1035</ele>
        <time>2024-06-20T07:58:29Z</time>
      </trkpt>
      <trkpt lat="45.05415" lon="4.28123">
        <ele>1035.48</ele>
        <time>2024-06-20T07:58:41Z</time>
      </trkpt>
      <trkpt lat="45.054" lon="4.28119">
        <ele>1035</ele>
        <time>2024-06-20T07:58:52Z</time>
      </trkpt>
      <trkpt lat="45.05389" lon="4.28114">
        <ele>1034.04</ele>
        <time>2024-06-20T07:59:03Z</time>
      </trkpt>
      <trkpt lat="45.0538" lon="4.28108">
        <ele>1033.55</ele>
        <time>2024-06-20T07:59:14Z</time>
      </trkpt>
      <trkpt lat="45.05376" lon="4.28101">
        <ele>1034.52</ele>
        <time>2024-06-20T07:59:27Z</time>
      </trkpt>
      <trkpt lat="45.05371" lon="4.28095">
        <ele>1037.4</ele>
        <time>2024-06-20T07:59:39Z</time>
      </trkpt>
      <trkpt lat="45.05369" lon="4.28092">
        <ele>1037.88</ele>
        <time>2024-06-20T07:59:51Z</time>
      </trkpt>
      <trkpt lat="45.05367" lon="4.28087">
        <ele>1038.84</ele>
        <time>2024-06-20T08:00:03Z</time>
      </trkpt>
      <trkpt lat="45.05357" lon="4.28082">
        <ele>1047.49</ele>
        <time>2024-06-20T08:00:16Z</time>
      </trkpt>
      <trkpt lat="45.05351" lon="4.28077">
        <ele>1048.94</ele>
        <time>2024-06-20T08:00:28Z</time>
      </trkpt>
      <trkpt lat="45.05346" lon="4.28066">
        <ele>1044.13</ele>
        <time>2024-06-20T08:00:42Z</time>
      </trkpt>
      <trkpt lat="45.05345" lon="4.28063">
        <ele>1043.17</ele>
        <time>2024-06-20T08:00:53Z</time>
      </trkpt>
      <trkpt lat="45.05339" lon="4.28065">
        <ele>1043.17</ele>
        <time>2024-06-20T08:01:03Z</time>
      </trkpt>
      <trkpt lat="45.05333" lon="4.28071">
        <ele>1045.09</ele>
        <time>2024-06-20T08:01:13Z</time>
      </trkpt>
      <trkpt lat="45.0532" lon="4.28075">
        <ele>1047.97</ele>
        <time>2024-06-20T08:01:25Z</time>
      </trkpt>
      <trkpt lat="45.05311" lon="4.28076">
        <ele>1050.86</ele>
        <time>2024-06-20T08:01:38Z</time>
      </trkpt>
      <trkpt lat="45.05306" lon="4.28078">
        <ele>1050.86</ele>
        <time>2024-06-20T08:01:47Z</time>
      </trkpt>
      <trkpt lat="45.053" lon="4.28082">
        <ele>1051.82</ele>
        <time>2024-06-20T08:02:00Z</time>
      </trkpt>
      <trkpt lat="45.05293" lon="4.28087">
        <ele>1052.78</ele>
        <time>2024-06-20T08:02:11Z</time>
      </trkpt>
      <trkpt lat="45.05286" lon="4.28089">
        <ele>1050.86</ele>
        <time>2024-06-20T08:02:22Z</time>
      </trkpt>
      <trkpt lat="45.05283" lon="4.2809">
        <ele>1048.94</ele>
        <time>2024-06-20T08:02:36Z</time>
      </trkpt>
      <trkpt lat="45.05278" lon="4.28092">
        <ele>1045.57</ele>
        <time>2024-06-20T08:02:49Z</time>
      </trkpt>
      <trkpt lat="45.05268" lon="4.28084">
        <ele>1042.69</ele>
        <time>2024-06-20T08:03:02Z</time>
      </trkpt>
      <trkpt lat="45.0526" lon="4.28079">
        <ele>1040.28</ele>
        <time>2024-06-20T08:03:14Z</time>
      </trkpt>
      <trkpt lat="45.05247" lon="4.28074">
        <ele>1040.76</ele>
        <time>2024-06-20T08:03:26Z</time>
      </trkpt>
      <trkpt lat="45.05234" lon="4.28063">
        <ele>1039.8</ele>
        <time>2024-06-20T08:03:40Z</time>
      </trkpt>
      <trkpt lat="45.0523" lon="4.2806">
        <ele>1039.32</ele>
        <time>2024-06-20T08:03:44Z</time>
      </trkpt>
      <trkpt lat="45.0522" lon="4.28049">
        <ele>1036.44</ele>
        <time>2024-06-20T08:03:57Z</time>
      </trkpt>
      <trkpt lat="45.0521" lon="4.28041">
        <ele>1035.48</ele>
        <time>2024-06-20T08:04:12Z</time>
      </trkpt>
      <trkpt lat="45.05206" lon="4.28033">
        <ele>1033.55</ele>
        <time>2024-06-20T08:04:23Z</time>
      </trkpt>
      <trkpt lat="45.05204" lon="4.28027">
        <ele>1031.63</ele>
        <time>2024-06-20T08:04:32Z</time>
      </trkpt>
      <trkpt lat="45.05194" lon="4.28011">
        <ele>1035.96</ele>
        <time>2024-06-20T08:04:46Z</time>
      </trkpt>
      <trkpt lat="45.05191" lon="4.28011">
        <ele>1036.92</ele>
        <time>2024-06-20T08:04:49Z</time>
      </trkpt>
      <trkpt lat="45.05178" lon="4.28">
        <ele>1039.32</ele>
        <time>2024-06-20T08:05:02Z</time>
      </trkpt>
      <trkpt lat="45.05176" lon="4.27995">
        <ele>1036.92</ele>
        <time>2024-06-20T08:05:06Z</time>
      </trkpt>
      <trkpt lat="45.05168" lon="4.27983">
        <ele>1036.92</ele>
        <time>2024-06-20T08:05:17Z</time>
      </trkpt>
      <trkpt lat="45.05163" lon="4.27943">
        <ele>1030.19</ele>
        <time>2024-06-20T08:05:33Z</time>
      </trkpt>
      <trkpt lat="45.05161" lon="4.27925">
        <ele>1027.79</ele>
        <time>2024-06-20T08:05:42Z</time>
      </trkpt>
      <trkpt lat="45.05159" lon="4.279">
        <ele>1024.42</ele>
        <time>2024-06-20T08:05:56Z</time>
      </trkpt>
      <trkpt lat="45.05159" lon="4.2787">
        <ele>1022.02</ele>
        <time>2024-06-20T08:06:12Z</time>
      </trkpt>
      <trkpt lat="45.05156" lon="4.27861">
        <ele>1020.58</ele>
        <time>2024-06-20T08:06:17Z</time>
      </trkpt>
      <trkpt lat="45.05138" lon="4.27849">
        <ele>1020.1</ele>
        <time>2024-06-20T08:06:33Z</time>
      </trkpt>
      <trkpt lat="45.05135" lon="4.27847">
        <ele>1020.1</ele>
        <time>2024-06-20T08:06:36Z</time>
      </trkpt>
      <trkpt lat="45.05127" lon="4.27823">
        <ele>1020.58</ele>
        <time>2024-06-20T08:06:51Z</time>
      </trkpt>
      <trkpt lat="45.05125" lon="4.2779">
        <ele>1020.1</ele>
        <time>2024-06-20T08:07:10Z</time>
      </trkpt>
      <trkpt lat="45.05124" lon="4.27787">
        <ele>1020.58</ele>
        <time>2024-06-20T08:07:12Z</time>
      </trkpt>
      <trkpt lat="45.05118" lon="4.27755">
        <ele>1019.62</ele>
        <time>2024-06-20T08:07:30Z</time>
      </trkpt>
      <trkpt lat="45.0511" lon="4.27723">
        <ele>1020.58</ele>
        <time>2024-06-20T08:07:48Z</time>
      </trkpt>
      <trkpt lat="45.05103" lon="4.27697">
        <ele>1023.46</ele>
        <time>2024-06-20T08:08:04Z</time>
      </trkpt>
      <trkpt lat="45.05108" lon="4.2767">
        <ele>1024.9</ele>
        <time>2024-06-20T08:08:22Z</time>
      </trkpt>
      <trkpt lat="45.05111" lon="4.27667">
        <ele>1024.9</ele>
        <time>2024-06-20T08:08:25Z</time>
      </trkpt>
      <trkpt lat="45.05116" lon="4.27659">
        <ele>1023.94</ele>
        <time>2024-06-20T08:08:31Z</time>
      </trkpt>
      <trkpt lat="45.0512" lon="4.27654">
        <ele>1023.46</ele>
        <time>2024-06-20T08:08:35Z</time>
      </trkpt>
      <trkpt lat="45.05134" lon="4.27637">
        <ele>1022.5</ele>
        <time>2024-06-20T08:08:50Z</time>
      </trkpt>
      <trkpt lat="45.05141" lon="4.27625">
        <ele>1024.9</ele>
        <time>2024-06-20T08:09:00Z</time>
      </trkpt>
      <trkpt lat="45.05151" lon="4.27616">
        <ele>1026.83</ele>
        <time>2024-06-20T08:09:13Z</time>
      </trkpt>
      <trkpt lat="45.05152" lon="4.27615">
        <ele>1026.83</ele>
        <time>2024-06-20T08:09:14Z</time>
      </trkpt>
      <trkpt lat="45.05168" lon="4.2761">
        <ele>1024.42</ele>
        <time>2024-06-20T08:09:29Z</time>
      </trkpt>
      <trkpt lat="45.05182" lon="4.2761">
        <ele>1023.46</ele>
        <time>2024-06-20T08:09:43Z</time>
      </trkpt>
      <trkpt lat="45.05197" lon="4.27604">
        <ele>1025.86</ele>
        <time>2024-06-20T08:09:55Z</time>
      </trkpt>
      <trkpt lat="45.05209" lon="4.27598">
        <ele>1027.79</ele>
        <time>2024-06-20T08:10:04Z</time>
      </trkpt>
      <trkpt lat="45.05226" lon="4.27588">
        <ele>1030.67</ele>
        <time>2024-06-20T08:10:19Z</time>
      </trkpt>
      <trkpt lat="45.05248" lon="4.27587">
        <ele>1032.59</ele>
        <time>2024-06-20T08:10:36Z</time>
      </trkpt>
      <trkpt lat="45.05254" lon="4.27589">
        <ele>1033.07</ele>
        <time>2024-06-20T08:10:41Z</time>
      </trkpt>
      <trkpt lat="45.05269" lon="4.27589">
        <ele>1033.07</ele>
        <time>2024-06-20T08:10:52Z</time>
      </trkpt>
      <trkpt lat="45.05278" lon="4.27589">
        <ele>1032.59</ele>
        <time>2024-06-20T08:10:59Z</time>
      </trkpt>
      <trkpt lat="45.05296" lon="4.27585">
        <ele>1032.59</ele>
        <time>2024-06-20T08:11:14Z</time>
      </trkpt>
      <trkpt lat="45.05299" lon="4.27582">
        <ele>1032.11</ele>
        <time>2024-06-20T08:11:29Z</time>
      </trkpt>
      <trkpt lat="45.05299" lon="4.27581">
        <ele>1031.63</ele>
        <time>2024-06-20T08:11:41Z</time>
      </trkpt>
      <trkpt lat="45.05299" lon="4.27578">
        <ele>1032.11</ele>
        <time>2024-06-20T08:11:43Z</time>
      </trkpt>
      <trkpt lat="45.05292" lon="4.27555">
        <ele>1035.48</ele>
        <time>2024-06-20T08:11:57Z</time>
      </trkpt>
      <trkpt lat="45.05286" lon="4.27527">
        <ele>1036.44</ele>
        <time>2024-06-20T08:12:12Z</time>
      </trkpt>
      <trkpt lat="45.05282" lon="4.27498">
        <ele>1035.96</ele>
        <time>2024-06-20T08:12:28Z</time>
      </trkpt>
      <trkpt lat="45.05272" lon="4.27463">
        <ele>1036.44</ele>
        <time>2024-06-20T08:12:48Z</time>
      </trkpt>
      <trkpt lat="45.0527" lon="4.27454">
        <ele>1036.44</ele>
        <time>2024-06-20T08:12:53Z</time>
      </trkpt>
      <trkpt lat="45.05266" lon="4.27447">
        <ele>1035.96</ele>
        <time>2024-06-20T08:12:58Z</time>
      </trkpt>
      <trkpt lat="45.0526" lon="4.27434">
        <ele>1036.92</ele>
        <time>2024-06-20T08:13:10Z</time>
      </trkpt>
      <trkpt lat="45.05257" lon="4.27421">
        <ele>1036.92</ele>
        <time>2024-06-20T08:13:20Z</time>
      </trkpt>
      <trkpt lat="45.05248" lon="4.27403">
        <ele>1041.25</ele>
        <time>2024-06-20T08:13:37Z</time>
      </trkpt>
      <trkpt lat="45.05243" lon="4.2739">
        <ele>1049.42</ele>
        <time>2024-06-20T08:13:48Z</time>
      </trkpt>
      <trkpt lat="45.05237" lon="4.27378">
        <ele>1052.78</ele>
        <time>2024-06-20T08:13:57Z</time>
      </trkpt>
      <trkpt lat="45.05225" lon="4.27361">
        <ele>1053.26</ele>
        <time>2024-06-20T08:14:11Z</time>
      </trkpt>
      <trkpt lat="45.05219" lon="4.27358">
        <ele>1055.18</ele>
        <time>2024-06-20T08:14:17Z</time>
      </trkpt>
      <trkpt lat="45.05204" lon="4.27354">
        <ele>1056.15</ele>
        <time>2024-06-20T08:14:32Z</time>
      </trkpt>
      <trkpt lat="45.05192" lon="4.27348">
        <ele>1059.51</ele>
        <time>2024-06-20T08:14:44Z</time>
      </trkpt>
      <trkpt lat="45.05184" lon="4.27342">
        <ele>1059.99</ele>
        <time>2024-06-20T08:14:53Z</time>
      </trkpt>
      <trkpt lat="45.05185" lon="4.27329">
        <ele>1059.51</ele>
        <time>2024-06-20T08:15:00Z</time>
      </trkpt>
      <trkpt lat="45.05188" lon="4.27321">
        <ele>1058.55</ele>
        <time>2024-06-20T08:15:04Z</time>
      </trkpt>
      <trkpt lat="45.05198" lon="4.2731">
        <ele>1056.15</ele>
        <time>2024-06-20T08:15:13Z</time>
      </trkpt>
      <trkpt lat="45.05209" lon="4.27298">
        <ele>1051.34</ele>
        <time>2024-06-20T08:15:23Z</time>
      </trkpt>
      <trkpt lat="45.05228" lon="4.27282">
        <ele>1044.61</ele>
        <time>2024-06-20T08:15:40Z</time>
      </trkpt>
      <trkpt lat="45.0524" lon="4.27277">
        <ele>1042.69</ele>
        <time>2024-06-20T08:15:50Z</time>
      </trkpt>
      <trkpt lat="45.05254" lon="4.27274">
        <ele>1040.76</ele>
        <time>2024-06-20T08:16:01Z</time>
      </trkpt>
      <trkpt lat="45.05275" lon="4.2727">
        <ele>1036.92</ele>
        <time>2024-06-20T08:16:16Z</time>
      </trkpt>
      <trkpt lat="45.05284" lon="4.27268">
        <ele>1034.52</ele>
        <time>2024-06-20T08:16:23Z</time>
      </trkpt>
      <trkpt lat="45.05285" lon="4.27267">
        <ele>1034.04</ele>
        <time>2024-06-20T08:16:25Z</time>
      </trkpt>
      <trkpt lat="45.05299" lon="4.27262">
        <ele>1034.04</ele>
        <time>2024-06-20T08:16:39Z</time>
      </trkpt>
      <trkpt lat="45.05305" lon="4.27257">
        <ele>1033.55</ele>
        <time>2024-06-20T08:16:45Z</time>
      </trkpt>
      <trkpt lat="45.05317" lon="4.27244">
        <ele>1033.55</ele>
        <time>2024-06-20T08:16:56Z</time>
      </trkpt>
      <trkpt lat="45.05322" lon="4.2724">
        <ele>1033.55</ele>
        <time>2024-06-20T08:17:00Z</time>
      </trkpt>
      <trkpt lat="45.05328" lon="4.27233">
        <ele>1033.07</ele>
        <time>2024-06-20T08:17:06Z</time>
      </trkpt>
      <trkpt lat="45.05341" lon="4.27223">
        <ele>1030.67</ele>
        <time>2024-06-20T08:17:19Z</time>
      </trkpt>
      <trkpt lat="45.05349" lon="4.27218">
        <ele>1029.71</ele>
        <time>2024-06-20T08:17:26Z</time>
      </trkpt>
      <trkpt lat="45.05355" lon="4.27214">
        <ele>1028.27</ele>
        <time>2024-06-20T08:17:32Z</time>
      </trkpt>
      <trkpt lat="45.05365" lon="4.2721">
        <ele>1028.27</ele>
        <time>2024-06-20T08:17:45Z</time>
      </trkpt>
      <trkpt lat="45.05376" lon="4.27206">
        <ele>1028.75</ele>
        <time>2024-06-20T08:18:01Z</time>
      </trkpt>
      <trkpt lat="45.05379" lon="4.27204">
        <ele>1028.27</ele>
        <time>2024-06-20T08:18:04Z</time>
      </trkpt>
      <trkpt lat="45.05381" lon="4.27203">
        <ele>1028.27</ele>
        <time>2024-06-20T08:18:06Z</time>
      </trkpt>
      <trkpt lat="45.05396" lon="4.27198">
        <ele>1028.27</ele>
        <time>2024-06-20T08:18:21Z</time>
      </trkpt>
      <trkpt lat="45.05411" lon="4.27191">
        <ele>1025.38</ele>
        <time>2024-06-20T08:18:35Z</time>
      </trkpt>
      <trkpt lat="45.05417" lon="4.27188">
        <ele>1022.02</ele>
        <time>2024-06-20T08:18:41Z</time>
      </trkpt>
      <trkpt lat="45.05442" lon="4.27189">
        <ele>1017.21</ele>
        <time>2024-06-20T08:18:58Z</time>
      </trkpt>
      <trkpt lat="45.05443" lon="4.27189">
        <ele>1017.21</ele>
        <time>2024-06-20T08:18:59Z</time>
      </trkpt>
      <trkpt lat="45.05457" lon="4.2719">
        <ele>1018.65</ele>
        <time>2024-06-20T08:19:10Z</time>
      </trkpt>
      <trkpt lat="45.05483" lon="4.27195">
        <ele>1020.58</ele>
        <time>2024-06-20T08:19:28Z</time>
      </trkpt>
      <trkpt lat="45.05501" lon="4.27201">
        <ele>1018.17</ele>
        <time>2024-06-20T08:19:44Z</time>
      </trkpt>
      <trkpt lat="45.05507" lon="4.27204">
        <ele>1016.25</ele>
        <time>2024-06-20T08:19:57Z</time>
      </trkpt>
      <trkpt lat="45.05522" lon="4.2721">
        <ele>1014.81</ele>
        <time>2024-06-20T08:20:12Z</time>
      </trkpt>
      <trkpt lat="45.05525" lon="4.27211">
        <ele>1014.81</ele>
        <time>2024-06-20T08:20:14Z</time>
      </trkpt>
      <trkpt lat="45.05541" lon="4.27207">
        <ele>1014.81</ele>
        <time>2024-06-20T08:20:28Z</time>
      </trkpt>
      <trkpt lat="45.05552" lon="4.27201">
        <ele>1017.21</ele>
        <time>2024-06-20T08:20:41Z</time>
      </trkpt>
      <trkpt lat="45.05561" lon="4.27196">
        <ele>1018.65</ele>
        <time>2024-06-20T08:20:51Z</time>
      </trkpt>
      <trkpt lat="45.05575" lon="4.27196">
        <ele>1020.58</ele>
        <time>2024-06-20T08:21:06Z</time>
      </trkpt>
      <trkpt lat="45.05589" lon="4.27204">
        <ele>1019.62</ele>
        <time>2024-06-20T08:21:19Z</time>
      </trkpt>
      <trkpt lat="45.05594" lon="4.27205">
        <ele>1019.13</ele>
        <time>2024-06-20T08:21:23Z</time>
      </trkpt>
      <trkpt lat="45.05598" lon="4.27207">
        <ele>1019.13</ele>
        <time>2024-06-20T08:21:27Z</time>
      </trkpt>
      <trkpt lat="45.05613" lon="4.2722">
        <ele>1021.54</ele>
        <time>2024-06-20T08:21:41Z</time>
      </trkpt>
      <trkpt lat="45.05623" lon="4.27223">
        <ele>1020.1</ele>
        <time>2024-06-20T08:21:54Z</time>
      </trkpt>
      <trkpt lat="45.05631" lon="4.2723">
        <ele>1020.1</ele>
        <time>2024-06-20T08:22:09Z</time>
      </trkpt>
      <trkpt lat="45.05638" lon="4.27235">
        <ele>1019.62</ele>
        <time>2024-06-20T08:22:19Z</time>
      </trkpt>
      <trkpt lat="45.05641" lon="4.27233">
        <ele>1019.62</ele>
        <time>2024-06-20T08:22:21Z</time>
      </trkpt>
      <trkpt lat="45.05643" lon="4.27221">
        <ele>1019.13</ele>
        <time>2024-06-20T08:22:28Z</time>
      </trkpt>
      <trkpt lat="45.05664" lon="4.2721">
        <ele>1020.1</ele>
        <time>2024-06-20T08:22:43Z</time>
      </trkpt>
      <trkpt lat="45.05676" lon="4.27193">
        <ele>1019.62</ele>
        <time>2024-06-20T08:22:58Z</time>
      </trkpt>
      <trkpt lat="45.05681" lon="4.27177">
        <ele>1020.1</ele>
        <time>2024-06-20T08:23:11Z</time>
      </trkpt>
      <trkpt lat="45.05686" lon="4.27158">
        <ele>1020.58</ele>
        <time>2024-06-20T08:23:23Z</time>
      </trkpt>
      <trkpt lat="45.05695" lon="4.27126">
        <ele>1020.58</ele>
        <time>2024-06-20T08:23:37Z</time>
      </trkpt>
      <trkpt lat="45.05703" lon="4.27097">
        <ele>1017.69</ele>
        <time>2024-06-20T08:23:53Z</time>
      </trkpt>
      <trkpt lat="45.05704" lon="4.27092">
        <ele>1017.69</ele>
        <time>2024-06-20T08:23:57Z</time>
      </trkpt>
      <trkpt lat="45.05707" lon="4.2707">
        <ele>1017.21</ele>
        <time>2024-06-20T08:24:11Z</time>
      </trkpt>
      <trkpt lat="45.05705" lon="4.27057">
        <ele>1015.77</ele>
        <time>2024-06-20T08:24:19Z</time>
      </trkpt>
      <trkpt lat="45.05704" lon="4.27047">
        <ele>1015.29</ele>
        <time>2024-06-20T08:24:24Z</time>
      </trkpt>
      <trkpt lat="45.05698" lon="4.27026">
        <ele>1013.85</ele>
        <time>2024-06-20T08:24:38Z</time>
      </trkpt>
      <trkpt lat="45.05694" lon="4.27007">
        <ele>1013.85</ele>
        <time>2024-06-20T08:24:50Z</time>
      </trkpt>
      <trkpt lat="45.0569" lon="4.26989">
        <ele>1013.37</ele>
        <time>2024-06-20T08:25:03Z</time>
      </trkpt>
      <trkpt lat="45.05688" lon="4.26967">
        <ele>1013.37</ele>
        <time>2024-06-20T08:25:16Z</time>
      </trkpt>
      <trkpt lat="45.0569" lon="4.26959">
        <ele>1012.89</ele>
        <time>2024-06-20T08:25:21Z</time>
      </trkpt>
      <trkpt lat="45.05689" lon="4.26938">
        <ele>1012.41</ele>
        <time>2024-06-20T08:25:36Z</time>
      </trkpt>
      <trkpt lat="45.05688" lon="4.26918">
        <ele>1013.85</ele>
        <time>2024-06-20T08:25:49Z</time>
      </trkpt>
      <trkpt lat="45.05685" lon="4.26903">
        <ele>1016.25</ele>
        <time>2024-06-20T08:26:01Z</time>
      </trkpt>
      <trkpt lat="45.05679" lon="4.26889">
        <ele>1019.13</ele>
        <time>2024-06-20T08:26:11Z</time>
      </trkpt>
      <trkpt lat="45.05667" lon="4.26873">
        <ele>1021.54</ele>
        <time>2024-06-20T08:26:26Z</time>
      </trkpt>
      <trkpt lat="45.05662" lon="4.26857">
        <ele>1023.94</ele>
        <time>2024-06-20T08:26:37Z</time>
      </trkpt>
      <trkpt lat="45.05655" lon="4.26841">
        <ele>1024.9</ele>
        <time>2024-06-20T08:26:47Z</time>
      </trkpt>
      <trkpt lat="45.05651" lon="4.26814">
        <ele>1023.46</ele>
        <time>2024-06-20T08:27:01Z</time>
      </trkpt>
      <trkpt lat="45.0565" lon="4.26796">
        <ele>1022.5</ele>
        <time>2024-06-20T08:27:13Z</time>
      </trkpt>
      <trkpt lat="45.05646" lon="4.26784">
        <ele>1022.5</ele>
        <time>2024-06-20T08:27:26Z</time>
      </trkpt>
      <trkpt lat="45.05645" lon="4.26783">
        <ele>1022.5</ele>
        <time>2024-06-20T08:27:27Z</time>
      </trkpt>
      <trkpt lat="45.05641" lon="4.26765">
        <ele>1023.94</ele>
        <time>2024-06-20T08:27:39Z</time>
      </trkpt>
      <trkpt lat="45.05642" lon="4.2676">
        <ele>1023.94</ele>
        <time>2024-06-20T08:27:41Z</time>
      </trkpt>
      <trkpt lat="45.05644" lon="4.26733">
        <ele>1021.06</ele>
        <time>2024-06-20T08:27:54Z</time>
      </trkpt>
      <trkpt lat="45.05646" lon="4.26721">
        <ele>1019.62</ele>
        <time>2024-06-20T08:28:07Z</time>
      </trkpt>
      <trkpt lat="45.05647" lon="4.26718">
        <ele>1018.65</ele>
        <time>2024-06-20T08:28:21Z</time>
      </trkpt>
      <trkpt lat="45.0565" lon="4.26712">
        <ele>1017.21</ele>
        <time>2024-06-20T08:28:34Z</time>
      </trkpt>
      <trkpt lat="45.05652" lon="4.26704">
        <ele>1016.73</ele>
        <time>2024-06-20T08:28:45Z</time>
      </trkpt>
      <trkpt lat="45.05656" lon="4.26694">
        <ele>1016.25</ele>
        <time>2024-06-20T08:29:00Z</time>
      </trkpt>
      <trkpt lat="45.05659" lon="4.26685">
        <ele>1015.77</ele>
        <time>2024-06-20T08:29:12Z</time>
      </trkpt>
      <trkpt lat="45.05661" lon="4.26684">
        <ele>1015.29</ele>
        <time>2024-06-20T08:29:30Z</time>
      </trkpt>
      <trkpt lat="45.05662" lon="4.26679">
        <ele>1013.37</ele>
        <time>2024-06-20T08:29:44Z</time>
      </trkpt>
      <trkpt lat="45.05668" lon="4.26674">
        <ele>1012.89</ele>
        <time>2024-06-20T08:29:55Z</time>
      </trkpt>
      <trkpt lat="45.05671" lon="4.2667">
        <ele>1013.37</ele>
        <time>2024-06-20T08:29:58Z</time>
      </trkpt>
      <trkpt lat="45.05676" lon="4.26659">
        <ele>1014.33</ele>
        <time>2024-06-20T08:30:11Z</time>
      </trkpt>
      <trkpt lat="45.05676" lon="4.26658">
        <ele>1014.81</ele>
        <time>2024-06-20T08:30:15Z</time>
      </trkpt>
      <trkpt lat="45.05677" lon="4.26655">
        <ele>1016.73</ele>
        <time>2024-06-20T08:30:23Z</time>
      </trkpt>
      <trkpt lat="45.05677" lon="4.26653">
        <ele>1018.17</ele>
        <time>2024-06-20T08:30:27Z</time>
      </trkpt>
      <trkpt lat="45.05683" lon="4.26642">
        <ele>1021.06</ele>
        <time>2024-06-20T08:30:39Z</time>
      </trkpt>
      <trkpt lat="45.05687" lon="4.2663">
        <ele>1021.54</ele>
        <time>2024-06-20T08:30:52Z</time>
      </trkpt>
      <trkpt lat="45.05692" lon="4.26598">
        <ele>1022.98</ele>
        <time>2024-06-20T08:31:06Z</time>
      </trkpt>
      <trkpt lat="45.05691" lon="4.2659">
        <ele>1022.5</ele>
        <time>2024-06-20T08:31:10Z</time>
      </trkpt>
      <trkpt lat="45.05691" lon="4.26582">
        <ele>1022.5</ele>
        <time>2024-06-20T08:31:14Z</time>
      </trkpt>
      <trkpt lat="45.05688" lon="4.26552">
        <ele>1018.65</ele>
        <time>2024-06-20T08:31:31Z</time>
      </trkpt>
      <trkpt lat="45.05686" lon="4.26531">
        <ele>1016.73</ele>
        <time>2024-06-20T08:31:45Z</time>
      </trkpt>
      <trkpt lat="45.05683" lon="4.2651">
        <ele>1016.25</ele>
        <time>2024-06-20T08:32:00Z</time>
      </trkpt>
      <trkpt lat="45.05683" lon="4.26493">
        <ele>1015.77</ele>
        <time>2024-06-20T08:32:13Z</time>
      </trkpt>
      <trkpt lat="45.05681" lon="4.26483">
        <ele>1015.77</ele>
        <time>2024-06-20T08:32:19Z</time>
      </trkpt>
      <trkpt lat="45.05681" lon="4.26481">
        <ele>1015.77</ele>
        <time>2024-06-20T08:32:21Z</time>
      </trkpt>
      <trkpt lat="45.05678" lon="4.2646">
        <ele>1015.77</ele>
        <time>2024-06-20T08:32:36Z</time>
      </trkpt>
      <trkpt lat="45.05677" lon="4.26457">
        <ele>1015.29</ele>
        <time>2024-06-20T08:32:38Z</time>
      </trkpt>
      <trkpt lat="45.05674" lon="4.26443">
        <ele>1015.29</ele>
        <time>2024-06-20T08:32:50Z</time>
      </trkpt>
      <trkpt lat="45.05673" lon="4.26431">
        <ele>1015.29</ele>
        <time>2024-06-20T08:32:58Z</time>
      </trkpt>
      <trkpt lat="45.05673" lon="4.26421">
        <ele>1016.73</ele>
        <time>2024-06-20T08:33:05Z</time>
      </trkpt>
      <trkpt lat="45.05672" lon="4.26416">
        <ele>1017.21</ele>
        <time>2024-06-20T08:33:09Z</time>
      </trkpt>
      <trkpt lat="45.05672" lon="4.26396">
        <ele>1018.65</ele>
        <time>2024-06-20T08:33:24Z</time>
      </trkpt>
      <trkpt lat="45.0567" lon="4.26379">
        <ele>1018.65</ele>
        <time>2024-06-20T08:33:38Z</time>
      </trkpt>
      <trkpt lat="45.0567" lon="4.26378">
        <ele>1018.65</ele>
        <time>2024-06-20T08:33:39Z</time>
      </trkpt>
      <trkpt lat="45.05668" lon="4.2636">
        <ele>1019.13</ele>
        <time>2024-06-20T08:33:53Z</time>
      </trkpt>
      <trkpt lat="45.05667" lon="4.2634">
        <ele>1023.94</ele>
        <time>2024-06-20T08:34:08Z</time>
      </trkpt>
      <trkpt lat="45.05666" lon="4.2632">
        <ele>1025.86</ele>
        <time>2024-06-20T08:34:21Z</time>
      </trkpt>
      <trkpt lat="45.05667" lon="4.26315">
        <ele>1025.86</ele>
        <time>2024-06-20T08:34:24Z</time>
      </trkpt>
      <trkpt lat="45.05668" lon="4.26294">
        <ele>1027.31</ele>
        <time>2024-06-20T08:34:37Z</time>
      </trkpt>
      <trkpt lat="45.05669" lon="4.26267">
        <ele>1026.83</ele>
        <time>2024-06-20T08:34:54Z</time>
      </trkpt>
      <trkpt lat="45.05672" lon="4.26254">
        <ele>1027.79</ele>
        <time>2024-06-20T08:35:04Z</time>
      </trkpt>
      <trkpt lat="45.0567" lon="4.26226">
        <ele>1026.83</ele>
        <time>2024-06-20T08:35:23Z</time>
      </trkpt>
      <trkpt lat="45.0567" lon="4.26225">
        <ele>1023.94</ele>
        <time>2024-06-20T08:35:33Z</time>
      </trkpt>
      <trkpt lat="45.0567" lon="4.26225">
        <ele>1022.5</ele>
        <time>2024-06-20T08:35:50Z</time>
      </trkpt>
      <trkpt lat="45.05672" lon="4.26221">
        <ele>1022.02</ele>
        <time>2024-06-20T08:36:01Z</time>
      </trkpt>
      <trkpt lat="45.05672" lon="4.2622">
        <ele>1020.58</ele>
        <time>2024-06-20T08:36:13Z</time>
      </trkpt>
      <trkpt lat="45.05673" lon="4.26219">
        <ele>1021.06</ele>
        <time>2024-06-20T08:36:31Z</time>
      </trkpt>
      <trkpt lat="45.05672" lon="4.26219">
        <ele>1019.62</ele>
        <time>2024-06-20T08:36:43Z</time>
      </trkpt>
      <trkpt lat="45.05672" lon="4.26219">
        <ele>1020.1</ele>
        <time>2024-06-20T08:36:58Z</time>
      </trkpt>
      <trkpt lat="45.05669" lon="4.26216">
        <ele>1020.58</ele>
        <time>2024-06-20T08:37:10Z</time>
      </trkpt>
      <trkpt lat="45.05669" lon="4.26209">
        <ele>1022.02</ele>
        <time>2024-06-20T08:37:22Z</time>
      </trkpt>
      <trkpt lat="45.05668" lon="4.26196">
        <ele>1023.46</ele>
        <time>2024-06-20T08:37:34Z</time>
      </trkpt>
      <trkpt lat="45.05664" lon="4.2618">
        <ele>1022.5</ele>
        <time>2024-06-20T08:37:48Z</time>
      </trkpt>
      <trkpt lat="45.05657" lon="4.26162">
        <ele>1023.46</ele>
        <time>2024-06-20T08:38:02Z</time>
      </trkpt>
      <trkpt lat="45.05653" lon="4.26135">
        <ele>1023.94</ele>
        <time>2024-06-20T08:38:20Z</time>
      </trkpt>
      <trkpt lat="45.05652" lon="4.26128">
        <ele>1023.94</ele>
        <time>2024-06-20T08:38:25Z</time>
      </trkpt>
      <trkpt lat="45.05653" lon="4.26125">
        <ele>1023.94</ele>
        <time>2024-06-20T08:38:27Z</time>
      </trkpt>
      <trkpt lat="45.05652" lon="4.26121">
        <ele>1023.94</ele>
        <time>2024-06-20T08:38:31Z</time>
      </trkpt>
      <trkpt lat="45.05652" lon="4.26115">
        <ele>1024.9</ele>
        <time>2024-06-20T08:38:35Z</time>
      </trkpt>
      <trkpt lat="45.05651" lon="4.26098">
        <ele>1026.34</ele>
        <time>2024-06-20T08:38:49Z</time>
      </trkpt>
      <trkpt lat="45.0565" lon="4.26091">
        <ele>1027.31</ele>
        <time>2024-06-20T08:38:53Z</time>
      </trkpt>
      <trkpt lat="45.05649" lon="4.26081">
        <ele>1027.79</ele>
        <time>2024-06-20T08:38:59Z</time>
      </trkpt>
      <trkpt lat="45.05646" lon="4.26056">
        <ele>1027.31</ele>
        <time>2024-06-20T08:39:16Z</time>
      </trkpt>
      <trkpt lat="45.05649" lon="4.26052">
        <ele>1028.75</ele>
        <time>2024-06-20T08:39:22Z</time>
      </trkpt>
      <trkpt lat="45.05651" lon="4.2605">
        <ele>1028.75</ele>
        <time>2024-06-20T08:39:24Z</time>
      </trkpt>
      <trkpt lat="45.05653" lon="4.26032">
        <ele>1031.15</ele>
        <time>2024-06-20T08:39:38Z</time>
      </trkpt>
      <trkpt lat="45.05654" lon="4.26009">
        <ele>1032.59</ele>
        <time>2024-06-20T08:39:53Z</time>
      </trkpt>
      <trkpt lat="45.05656" lon="4.25983">
        <ele>1032.11</ele>
        <time>2024-06-20T08:40:10Z</time>
      </trkpt>
      <trkpt lat="45.05658" lon="4.25964">
        <ele>1032.59</ele>
        <time>2024-06-20T08:40:24Z</time>
      </trkpt>
      <trkpt lat="45.05658" lon="4.25955">
        <ele>1032.59</ele>
        <time>2024-06-20T08:40:32Z</time>
      </trkpt>
      <trkpt lat="45.05662" lon="4.25941">
        <ele>1035</ele>
        <time>2024-06-20T08:40:42Z</time>
      </trkpt>
      <trkpt lat="45.05662" lon="4.25937">
        <ele>1035.48</ele>
        <time>2024-06-20T08:40:45Z</time>
      </trkpt>
      <trkpt lat="45.05665" lon="4.25921">
        <ele>1035.48</ele>
        <time>2024-06-20T08:40:57Z</time>
      </trkpt>
      <trkpt lat="45.05668" lon="4.25906">
        <ele>1037.88</ele>
        <time>2024-06-20T08:41:07Z</time>
      </trkpt>
      <trkpt lat="45.05668" lon="4.25875">
        <ele>1042.69</ele>
        <time>2024-06-20T08:41:25Z</time>
      </trkpt>
      <trkpt lat="45.05669" lon="4.25846">
        <ele>1042.21</ele>
        <time>2024-06-20T08:41:41Z</time>
      </trkpt>
      <trkpt lat="45.05667" lon="4.25815">
        <ele>1040.28</ele>
        <time>2024-06-20T08:41:59Z</time>
      </trkpt>
      <trkpt lat="45.05664" lon="4.25787">
        <ele>1038.36</ele>
        <time>2024-06-20T08:42:16Z</time>
      </trkpt>
      <trkpt lat="45.05664" lon="4.25755">
        <ele>1036.92</ele>
        <time>2024-06-20T08:42:34Z</time>
      </trkpt>
      <trkpt lat="45.05662" lon="4.2573">
        <ele>1036.92</ele>
        <time>2024-06-20T08:42:49Z</time>
      </trkpt>
      <trkpt lat="45.05659" lon="4.25703">
        <ele>1035.48</ele>
        <time>2024-06-20T08:43:04Z</time>
      </trkpt>
      <trkpt lat="45.05651" lon="4.25675">
        <ele>1033.55</ele>
        <time>2024-06-20T08:43:21Z</time>
      </trkpt>
      <trkpt lat="45.05641" lon="4.25651">
        <ele>1034.52</ele>
        <time>2024-06-20T08:43:37Z</time>
      </trkpt>
      <trkpt lat="45.05634" lon="4.25626">
        <ele>1035.48</ele>
        <time>2024-06-20T08:43:53Z</time>
      </trkpt>
      <trkpt lat="45.0563" lon="4.25609">
        <ele>1042.21</ele>
        <time>2024-06-20T08:44:08Z</time>
      </trkpt>
      <trkpt lat="45.05625" lon="4.25583">
        <ele>1055.18</ele>
        <time>2024-06-20T08:44:24Z</time>
      </trkpt>
      <trkpt lat="45.0562" lon="4.25564">
        <ele>1058.07</ele>
        <time>2024-06-20T08:44:37Z</time>
      </trkpt>
      <trkpt lat="45.05612" lon="4.25544">
        <ele>1059.03</ele>
        <time>2024-06-20T08:44:52Z</time>
      </trkpt>
      <trkpt lat="45.05606" lon="4.25521">
        <ele>1059.99</ele>
        <time>2024-06-20T08:45:06Z</time>
      </trkpt>
      <trkpt lat="45.056" lon="4.25509">
        <ele>1059.51</ele>
        <time>2024-06-20T08:45:15Z</time>
      </trkpt>
      <trkpt lat="45.05598" lon="4.25502">
        <ele>1058.55</ele>
        <time>2024-06-20T08:45:19Z</time>
      </trkpt>
      <trkpt lat="45.05593" lon="4.2549">
        <ele>1056.15</ele>
        <time>2024-06-20T08:45:28Z</time>
      </trkpt>
      <trkpt lat="45.05585" lon="4.2547">
        <ele>1051.82</ele>
        <time>2024-06-20T08:45:42Z</time>
      </trkpt>
      <trkpt lat="45.05585" lon="4.25461">
        <ele>1052.3</ele>
        <time>2024-06-20T08:45:46Z</time>
      </trkpt>
      <trkpt lat="45.05583" lon="4.25453">
        <ele>1051.82</ele>
        <time>2024-06-20T08:45:51Z</time>
      </trkpt>
      <trkpt lat="45.05581" lon="4.25428">
        <ele>1048.45</ele>
        <time>2024-06-20T08:46:04Z</time>
      </trkpt>
      <trkpt lat="45.05579" lon="4.25426">
        <ele>1047.49</ele>
        <time>2024-06-20T08:46:06Z</time>
      </trkpt>
      <trkpt lat="45.05574" lon="4.25403">
        <ele>1045.57</ele>
        <time>2024-06-20T08:46:20Z</time>
      </trkpt>
      <trkpt lat="45.05575" lon="4.25392">
        <ele>1044.13</ele>
        <time>2024-06-20T08:46:26Z</time>
      </trkpt>
      <trkpt lat="45.05575" lon="4.25388">
        <ele>1043.17</ele>
        <time>2024-06-20T08:46:28Z</time>
      </trkpt>
      <trkpt lat="45.05576" lon="4.25374">
        <ele>1039.32</ele>
        <time>2024-06-20T08:46:35Z</time>
      </trkpt>
      <trkpt lat="45.05579" lon="4.25351">
        <ele>1032.11</ele>
        <time>2024-06-20T08:46:48Z</time>
      </trkpt>
      <trkpt lat="45.0558" lon="4.2534">
        <ele>1030.67</ele>
        <time>2024-06-20T08:46:55Z</time>
      </trkpt>
      <trkpt lat="45.05584" lon="4.25306">
        <ele>1029.23</ele>
        <time>2024-06-20T08:47:13Z</time>
      </trkpt>
      <trkpt lat="45.05585" lon="4.25294">
        <ele>1029.23</ele>
        <time>2024-06-20T08:47:20Z</time>
      </trkpt>
      <trkpt lat="45.05587" lon="4.25282">
        <ele>1030.67</ele>
        <time>2024-06-20T08:47:27Z</time>
      </trkpt>
      <trkpt lat="45.05588" lon="4.25264">
        <ele>1033.55</ele>
        <time>2024-06-20T08:47:38Z</time>
      </trkpt>
      <trkpt lat="45.05588" lon="4.25245">
        <ele>1035</ele>
        <time>2024-06-20T08:47:52Z</time>
      </trkpt>
      <trkpt lat="45.05589" lon="4.2524">
        <ele>1035.48</ele>
        <time>2024-06-20T08:47:57Z</time>
      </trkpt>
      <trkpt lat="45.05592" lon="4.25219">
        <ele>1040.76</ele>
        <time>2024-06-20T08:48:10Z</time>
      </trkpt>
      <trkpt lat="45.05587" lon="4.25208">
        <ele>1045.09</ele>
        <time>2024-06-20T08:48:20Z</time>
      </trkpt>
      <trkpt lat="45.05573" lon="4.25201">
        <ele>1049.9</ele>
        <time>2024-06-20T08:48:35Z</time>
      </trkpt>
      <trkpt lat="45.05553" lon="4.25186">
        <ele>1039.32</ele>
        <time>2024-06-20T08:48:50Z</time>
      </trkpt>
      <trkpt lat="45.05533" lon="4.25179">
        <ele>1032.11</ele>
        <time>2024-06-20T08:49:07Z</time>
      </trkpt>
      <trkpt lat="45.05514" lon="4.25171">
        <ele>1027.79</ele>
        <time>2024-06-20T08:49:23Z</time>
      </trkpt>
      <trkpt lat="45.05508" lon="4.25169">
        <ele>1027.31</ele>
        <time>2024-06-20T08:49:28Z</time>
      </trkpt>
      <trkpt lat="45.05492" lon="4.25181">
        <ele>1025.38</ele>
        <time>2024-06-20T08:49:46Z</time>
      </trkpt>
      <trkpt lat="45.0549" lon="4.2521">
        <ele>1025.38</ele>
        <time>2024-06-20T08:50:04Z</time>
      </trkpt>
      <trkpt lat="45.05488" lon="4.25241">
        <ele>1025.38</ele>
        <time>2024-06-20T08:50:21Z</time>
      </trkpt>
      <trkpt lat="45.05484" lon="4.25276">
        <ele>1026.34</ele>
        <time>2024-06-20T08:50:41Z</time>
      </trkpt>
      <trkpt lat="45.05484" lon="4.25277">
        <ele>1026.34</ele>
        <time>2024-06-20T08:50:42Z</time>
      </trkpt>
      <trkpt lat="45.05479" lon="4.25307">
        <ele>1025.86</ele>
        <time>2024-06-20T08:51:00Z</time>
      </trkpt>
      <trkpt lat="45.05478" lon="4.25309">
        <ele>1025.86</ele>
        <time>2024-06-20T08:51:01Z</time>
      </trkpt>
      <trkpt lat="45.05477" lon="4.25314">
        <ele>1025.38</ele>
        <time>2024-06-20T08:51:04Z</time>
      </trkpt>
      <trkpt lat="45.05469" lon="4.25344">
        <ele>1028.27</ele>
        <time>2024-06-20T08:51:22Z</time>
      </trkpt>
      <trkpt lat="45.05467" lon="4.25351">
        <ele>1028.75</ele>
        <time>2024-06-20T08:51:26Z</time>
      </trkpt>
      <trkpt lat="45.05451" lon="4.25377">
        <ele>1028.75</ele>
        <time>2024-06-20T08:51:45Z</time>
      </trkpt>
      <trkpt lat="45.05434" lon="4.254">
        <ele>1028.27</ele>
        <time>2024-06-20T08:52:04Z</time>
      </trkpt>
      <trkpt lat="45.05427" lon="4.2541">
        <ele>1027.79</ele>
        <time>2024-06-20T08:52:13Z</time>
      </trkpt>
      <trkpt lat="45.05421" lon="4.25415">
        <ele>1028.75</ele>
        <time>2024-06-20T08:52:19Z</time>
      </trkpt>
      <trkpt lat="45.05419" lon="4.25417">
        <ele>1028.75</ele>
        <time>2024-06-20T08:52:21Z</time>
      </trkpt>
      <trkpt lat="45.05405" lon="4.25431">
        <ele>1028.75</ele>
        <time>2024-06-20T08:52:35Z</time>
      </trkpt>
      <trkpt lat="45.05382" lon="4.25453">
        <ele>1029.71</ele>
        <time>2024-06-20T08:52:56Z</time>
      </trkpt>
      <trkpt lat="45.05368" lon="4.25466">
        <ele>1029.71</ele>
        <time>2024-06-20T08:53:10Z</time>
      </trkpt>
      <trkpt lat="45.05352" lon="4.25485">
        <ele>1031.15</ele>
        <time>2024-06-20T08:53:27Z</time>
      </trkpt>
      <trkpt lat="45.05337" lon="4.25503">
        <ele>1032.11</ele>
        <time>2024-06-20T08:53:43Z</time>
      </trkpt>
      <trkpt lat="45.05329" lon="4.25512">
        <ele>1032.59</ele>
        <time>2024-06-20T08:53:54Z</time>
      </trkpt>
      <trkpt lat="45.05325" lon="4.25518">
        <ele>1033.07</ele>
        <time>2024-06-20T08:53:59Z</time>
      </trkpt>
      <trkpt lat="45.0532" lon="4.25524">
        <ele>1034.04</ele>
        <time>2024-06-20T08:54:04Z</time>
      </trkpt>
      <trkpt lat="45.0531" lon="4.25538">
        <ele>1035</ele>
        <time>2024-06-20T08:54:17Z</time>
      </trkpt>
      <trkpt lat="45.05303" lon="4.25546">
        <ele>1036.92</ele>
        <time>2024-06-20T08:54:25Z</time>
      </trkpt>
      <trkpt lat="45.05298" lon="4.25551">
        <ele>1037.88</ele>
        <time>2024-06-20T08:54:31Z</time>
      </trkpt>
      <trkpt lat="45.05293" lon="4.25566">
        <ele>1038.84</ele>
        <time>2024-06-20T08:54:41Z</time>
      </trkpt>
      <trkpt lat="45.05286" lon="4.25595">
        <ele>1041.25</ele>
        <time>2024-06-20T08:54:59Z</time>
      </trkpt>
      <trkpt lat="45.05279" lon="4.25616">
        <ele>1040.76</ele>
        <time>2024-06-20T08:55:12Z</time>
      </trkpt>
      <trkpt lat="45.05277" lon="4.25624">
        <ele>1040.28</ele>
        <time>2024-06-20T08:55:17Z</time>
      </trkpt>
      <trkpt lat="45.05266" lon="4.25654">
        <ele>1042.69</ele>
        <time>2024-06-20T08:55:36Z</time>
      </trkpt>
      <trkpt lat="45.05253" lon="4.25684">
        <ele>1044.13</ele>
        <time>2024-06-20T08:55:55Z</time>
      </trkpt>
      <trkpt lat="45.05243" lon="4.25712">
        <ele>1045.57</ele>
        <time>2024-06-20T08:56:12Z</time>
      </trkpt>
      <trkpt lat="45.05244" lon="4.25741">
        <ele>1048.94</ele>
        <time>2024-06-20T08:56:29Z</time>
      </trkpt>
      <trkpt lat="45.05245" lon="4.25767">
        <ele>1049.42</ele>
        <time>2024-06-20T08:56:44Z</time>
      </trkpt>
      <trkpt lat="45.05246" lon="4.2579">
        <ele>1049.42</ele>
        <time>2024-06-20T08:56:57Z</time>
      </trkpt>
      <trkpt lat="45.0523" lon="4.25791">
        <ele>1050.38</ele>
        <time>2024-06-20T08:57:13Z</time>
      </trkpt>
      <trkpt lat="45.05208" lon="4.25786">
        <ele>1050.86</ele>
        <time>2024-06-20T08:57:30Z</time>
      </trkpt>
      <trkpt lat="45.05185" lon="4.25789">
        <ele>1052.78</ele>
        <time>2024-06-20T08:57:48Z</time>
      </trkpt>
      <trkpt lat="45.05163" lon="4.25793">
        <ele>1053.74</ele>
        <time>2024-06-20T08:58:08Z</time>
      </trkpt>
      <trkpt lat="45.05143" lon="4.25795">
        <ele>1055.18</ele>
        <time>2024-06-20T08:58:24Z</time>
      </trkpt>
      <trkpt lat="45.0513" lon="4.25796">
        <ele>1057.59</ele>
        <time>2024-06-20T08:58:35Z</time>
      </trkpt>
      <trkpt lat="45.05124" lon="4.25797">
        <ele>1058.07</ele>
        <time>2024-06-20T08:58:40Z</time>
      </trkpt>
      <trkpt lat="45.05107" lon="4.25797">
        <ele>1059.51</ele>
        <time>2024-06-20T08:58:54Z</time>
      </trkpt>
      <trkpt lat="45.05098" lon="4.25796">
        <ele>1060.47</ele>
        <time>2024-06-20T08:59:04Z</time>
      </trkpt>
      <trkpt lat="45.05091" lon="4.25799">
        <ele>1060.47</ele>
        <time>2024-06-20T08:59:16Z</time>
      </trkpt>
      <trkpt lat="45.05074" lon="4.25806">
        <ele>1060.95</ele>
        <time>2024-06-20T08:59:33Z</time>
      </trkpt>
      <trkpt lat="45.05062" lon="4.2581">
        <ele>1062.39</ele>
        <time>2024-06-20T08:59:44Z</time>
      </trkpt>
      <trkpt lat="45.05046" lon="4.25816">
        <ele>1063.84</ele>
        <time>2024-06-20T09:00:00Z</time>
      </trkpt>
      <trkpt lat="45.05032" lon="4.25822">
        <ele>1065.76</ele>
        <time>2024-06-20T09:00:14Z</time>
      </trkpt>
      <trkpt lat="45.05016" lon="4.25827">
        <ele>1067.68</ele>
        <time>2024-06-20T09:00:28Z</time>
      </trkpt>
      <trkpt lat="45.04996" lon="4.25832">
        <ele>1068.64</ele>
        <time>2024-06-20T09:00:46Z</time>
      </trkpt>
      <trkpt lat="45.04978" lon="4.25833">
        <ele>1071.53</ele>
        <time>2024-06-20T09:01:01Z</time>
      </trkpt>
      <trkpt lat="45.04955" lon="4.25829">
        <ele>1072.01</ele>
        <time>2024-06-20T09:01:16Z</time>
      </trkpt>
      <trkpt lat="45.04935" lon="4.25826">
        <ele>1072.01</ele>
        <time>2024-06-20T09:01:31Z</time>
      </trkpt>
      <trkpt lat="45.04913" lon="4.25821">
        <ele>1074.41</ele>
        <time>2024-06-20T09:01:49Z</time>
      </trkpt>
      <trkpt lat="45.04897" lon="4.25818">
        <ele>1076.81</ele>
        <time>2024-06-20T09:02:04Z</time>
      </trkpt>
      <trkpt lat="45.04879" lon="4.25815">
        <ele>1078.26</ele>
        <time>2024-06-20T09:02:19Z</time>
      </trkpt>
      <trkpt lat="45.04859" lon="4.2581">
        <ele>1079.22</ele>
        <time>2024-06-20T09:02:35Z</time>
      </trkpt>
      <trkpt lat="45.04841" lon="4.25808">
        <ele>1082.1</ele>
        <time>2024-06-20T09:02:52Z</time>
      </trkpt>
      <trkpt lat="45.04826" lon="4.25805">
        <ele>1083.06</ele>
        <time>2024-06-20T09:03:04Z</time>
      </trkpt>
      <trkpt lat="45.04803" lon="4.25798">
        <ele>1082.58</ele>
        <time>2024-06-20T09:03:22Z</time>
      </trkpt>
      <trkpt lat="45.04784" lon="4.25792">
        <ele>1084.02</ele>
        <time>2024-06-20T09:03:39Z</time>
      </trkpt>
      <trkpt lat="45.04762" lon="4.25788">
        <ele>1086.43</ele>
        <time>2024-06-20T09:03:57Z</time>
      </trkpt>
      <trkpt lat="45.04741" lon="4.25786">
        <ele>1086.91</ele>
        <time>2024-06-20T09:04:13Z</time>
      </trkpt>
      <trkpt lat="45.04716" lon="4.25785">
        <ele>1088.83</ele>
        <time>2024-06-20T09:04:32Z</time>
      </trkpt>
      <trkpt lat="45.04698" lon="4.25785">
        <ele>1088.35</ele>
        <time>2024-06-20T09:04:46Z</time>
      </trkpt>
      <trkpt lat="45.04677" lon="4.25783">
        <ele>1086.91</ele>
        <time>2024-06-20T09:05:05Z</time>
      </trkpt>
      <trkpt lat="45.04676" lon="4.25783">
        <ele>1086.91</ele>
        <time>2024-06-20T09:05:18Z</time>
      </trkpt>
      <trkpt lat="45.04675" lon="4.25783">
        <ele>1086.91</ele>
        <time>2024-06-20T09:05:32Z</time>
      </trkpt>
      <trkpt lat="45.04674" lon="4.25784">
        <ele>1086.43</ele>
        <time>2024-06-20T09:05:47Z</time>
      </trkpt>
      <trkpt lat="45.04674" lon="4.25783">
        <ele>1086.43</ele>
        <time>2024-06-20T09:06:07Z</time>
      </trkpt>
      <trkpt lat="45.04674" lon="4.25783">
        <ele>1086.43</ele>
        <time>2024-06-20T09:06:25Z</time>
      </trkpt>
      <trkpt lat="45.04674" lon="4.25783">
        <ele>1085.95</ele>
        <time>2024-06-20T09:06:42Z</time>
      </trkpt>
      <trkpt lat="45.04673" lon="4.25783">
        <ele>1085.47</ele>
        <time>2024-06-20T09:06:54Z</time>
      </trkpt>
      <trkpt lat="45.0467" lon="4.25784">
        <ele>1086.43</ele>
        <time>2024-06-20T09:07:07Z</time>
      </trkpt>
      <trkpt lat="45.04663" lon="4.25786">
        <ele>1086.91</ele>
        <time>2024-06-20T09:07:20Z</time>
      </trkpt>
      <trkpt lat="45.04645" lon="4.25789">
        <ele>1084.99</ele>
        <time>2024-06-20T09:07:38Z</time>
      </trkpt>
      <trkpt lat="45.04629" lon="4.25787">
        <ele>1085.47</ele>
        <time>2024-06-20T09:07:53Z</time>
      </trkpt>
      <trkpt lat="45.04613" lon="4.25784">
        <ele>1086.43</ele>
        <time>2024-06-20T09:08:07Z</time>
      </trkpt>
      <trkpt lat="45.04592" lon="4.25782">
        <ele>1085.47</ele>
        <time>2024-06-20T09:08:25Z</time>
      </trkpt>
      <trkpt lat="45.04578" lon="4.2578">
        <ele>1084.02</ele>
        <time>2024-06-20T09:08:42Z</time>
      </trkpt>
      <trkpt lat="45.04563" lon="4.2578">
        <ele>1083.06</ele>
        <time>2024-06-20T09:08:55Z</time>
      </trkpt>
      <trkpt lat="45.04546" lon="4.25778">
        <ele>1082.58</ele>
        <time>2024-06-20T09:09:11Z</time>
      </trkpt>
      <trkpt lat="45.04539" lon="4.25777">
        <ele>1083.06</ele>
        <time>2024-06-20T09:09:17Z</time>
      </trkpt>
      <trkpt lat="45.04535" lon="4.25776">
        <ele>1083.54</ele>
        <time>2024-06-20T09:09:21Z</time>
      </trkpt>
      <trkpt lat="45.04529" lon="4.25778">
        <ele>1083.54</ele>
        <time>2024-06-20T09:09:31Z</time>
      </trkpt>
      <trkpt lat="45.04526" lon="4.25776">
        <ele>1084.02</ele>
        <time>2024-06-20T09:09:37Z</time>
      </trkpt>
      <trkpt lat="45.04525" lon="4.25774">
        <ele>1084.02</ele>
        <time>2024-06-20T09:09:39Z</time>
      </trkpt>
      <trkpt lat="45.0452" lon="4.25774">
        <ele>1084.02</ele>
        <time>2024-06-20T09:09:44Z</time>
      </trkpt>
      <trkpt lat="45.04515" lon="4.25776">
        <ele>1083.54</ele>
        <time>2024-06-20T09:09:49Z</time>
      </trkpt>
      <trkpt lat="45.0451" lon="4.25778">
        <ele>1083.54</ele>
        <time>2024-06-20T09:09:54Z</time>
      </trkpt>
      <trkpt lat="45.04496" lon="4.2579">
        <ele>1082.58</ele>
        <time>2024-06-20T09:10:11Z</time>
      </trkpt>
      <trkpt lat="45.04493" lon="4.25793">
        <ele>1082.1</ele>
        <time>2024-06-20T09:10:14Z</time>
      </trkpt>
      <trkpt lat="45.04486" lon="4.25799">
        <ele>1081.14</ele>
        <time>2024-06-20T09:10:22Z</time>
      </trkpt>
      <trkpt lat="45.04485" lon="4.25802">
        <ele>1079.7</ele>
        <time>2024-06-20T09:10:25Z</time>
      </trkpt>
      <trkpt lat="45.04465" lon="4.25809">
        <ele>1077.78</ele>
        <time>2024-06-20T09:10:43Z</time>
      </trkpt>
      <trkpt lat="45.04461" lon="4.2581">
        <ele>1077.29</ele>
        <time>2024-06-20T09:10:47Z</time>
      </trkpt>
      <trkpt lat="45.04446" lon="4.25815">
        <ele>1076.33</ele>
        <time>2024-06-20T09:11:02Z</time>
      </trkpt>
      <trkpt lat="45.04439" lon="4.25817">
        <ele>1074.89</ele>
        <time>2024-06-20T09:11:08Z</time>
      </trkpt>
      <trkpt lat="45.04425" lon="4.25821">
        <ele>1074.89</ele>
        <time>2024-06-20T09:11:21Z</time>
      </trkpt>
      <trkpt lat="45.04405" lon="4.25826">
        <ele>1073.45</ele>
        <time>2024-06-20T09:11:37Z</time>
      </trkpt>
      <trkpt lat="45.04392" lon="4.25829">
        <ele>1072.97</ele>
        <time>2024-06-20T09:11:50Z</time>
      </trkpt>
      <trkpt lat="45.04373" lon="4.25833">
        <ele>1072.49</ele>
        <time>2024-06-20T09:12:08Z</time>
      </trkpt>
      <trkpt lat="45.04367" lon="4.25834">
        <ele>1072.49</ele>
        <time>2024-06-20T09:12:12Z</time>
      </trkpt>
      <trkpt lat="45.04358" lon="4.25836">
        <ele>1072.97</ele>
        <time>2024-06-20T09:12:19Z</time>
      </trkpt>
      <trkpt lat="45.04355" lon="4.25839">
        <ele>1072.97</ele>
        <time>2024-06-20T09:12:22Z</time>
      </trkpt>
      <trkpt lat="45.04339" lon="4.25842">
        <ele>1073.93</ele>
        <time>2024-06-20T09:12:37Z</time>
      </trkpt>
      <trkpt lat="45.04319" lon="4.25847">
        <ele>1073.45</ele>
        <time>2024-06-20T09:12:53Z</time>
      </trkpt>
      <trkpt lat="45.0431" lon="4.25849">
        <ele>1073.45</ele>
        <time>2024-06-20T09:13:06Z</time>
      </trkpt>
      <trkpt lat="45.04297" lon="4.2585">
        <ele>1073.45</ele>
        <time>2024-06-20T09:13:19Z</time>
      </trkpt>
      <trkpt lat="45.04274" lon="4.25847">
        <ele>1073.45</ele>
        <time>2024-06-20T09:13:36Z</time>
      </trkpt>
      <trkpt lat="45.04262" lon="4.25838">
        <ele>1072.97</ele>
        <time>2024-06-20T09:13:52Z</time>
      </trkpt>
      <trkpt lat="45.04262" lon="4.25838">
        <ele>1071.53</ele>
        <time>2024-06-20T09:14:12Z</time>
      </trkpt>
      <trkpt lat="45.04261" lon="4.25837">
        <ele>1071.05</ele>
        <time>2024-06-20T09:14:25Z</time>
      </trkpt>
      <trkpt lat="45.04255" lon="4.2583">
        <ele>1071.05</ele>
        <time>2024-06-20T09:14:38Z</time>
      </trkpt>
      <trkpt lat="45.04245" lon="4.25819">
        <ele>1071.05</ele>
        <time>2024-06-20T09:14:53Z</time>
      </trkpt>
      <trkpt lat="45.04235" lon="4.25809">
        <ele>1070.57</ele>
        <time>2024-06-20T09:15:09Z</time>
      </trkpt>
      <trkpt lat="45.0423" lon="4.25802">
        <ele>1070.57</ele>
        <time>2024-06-20T09:15:15Z</time>
      </trkpt>
      <trkpt lat="45.04216" lon="4.25787">
        <ele>1070.57</ele>
        <time>2024-06-20T09:15:31Z</time>
      </trkpt>
      <trkpt lat="45.042" lon="4.25766">
        <ele>1070.08</ele>
        <time>2024-06-20T09:15:49Z</time>
      </trkpt>
      <trkpt lat="45.04183" lon="4.25746">
        <ele>1069.6</ele>
        <time>2024-06-20T09:16:07Z</time>
      </trkpt>
      <trkpt lat="45.04166" lon="4.25725">
        <ele>1069.12</ele>
        <time>2024-06-20T09:16:26Z</time>
      </trkpt>
      <trkpt lat="45.04154" lon="4.2571">
        <ele>1068.16</ele>
        <time>2024-06-20T09:16:39Z</time>
      </trkpt>
      <trkpt lat="45.0415" lon="4.25706">
        <ele>1068.16</ele>
        <time>2024-06-20T09:16:43Z</time>
      </trkpt>
      <trkpt lat="45.04145" lon="4.25699">
        <ele>1068.16</ele>
        <time>2024-06-20T09:16:49Z</time>
      </trkpt>
      <trkpt lat="45.04133" lon="4.2568">
        <ele>1068.16</ele>
        <time>2024-06-20T09:17:06Z</time>
      </trkpt>
      <trkpt lat="45.0412" lon="4.2566">
        <ele>1067.2</ele>
        <time>2024-06-20T09:17:22Z</time>
      </trkpt>
      <trkpt lat="45.04107" lon="4.25639">
        <ele>1066.24</ele>
        <time>2024-06-20T09:17:39Z</time>
      </trkpt>
      <trkpt lat="45.04091" lon="4.25614">
        <ele>1067.2</ele>
        <time>2024-06-20T09:17:57Z</time>
      </trkpt>
      <trkpt lat="45.04083" lon="4.25597">
        <ele>1066.72</ele>
        <time>2024-06-20T09:18:13Z</time>
      </trkpt>
      <trkpt lat="45.04082" lon="4.25595">
        <ele>1066.72</ele>
        <time>2024-06-20T09:18:22Z</time>
      </trkpt>
      <trkpt lat="45.04078" lon="4.25589">
        <ele>1066.72</ele>
        <time>2024-06-20T09:18:33Z</time>
      </trkpt>
      <trkpt lat="45.04068" lon="4.25569">
        <ele>1067.2</ele>
        <time>2024-06-20T09:18:49Z</time>
      </trkpt>
      <trkpt lat="45.04058" lon="4.25549">
        <ele>1067.68</ele>
        <time>2024-06-20T09:19:05Z</time>
      </trkpt>
      <trkpt lat="45.0405" lon="4.25532">
        <ele>1068.16</ele>
        <time>2024-06-20T09:19:20Z</time>
      </trkpt>
      <trkpt lat="45.04043" lon="4.2552">
        <ele>1068.64</ele>
        <time>2024-06-20T09:19:34Z</time>
      </trkpt>
      <trkpt lat="45.04042" lon="4.25516">
        <ele>1069.12</ele>
        <time>2024-06-20T09:19:44Z</time>
      </trkpt>
      <trkpt lat="45.04032" lon="4.25496">
        <ele>1069.6</ele>
        <time>2024-06-20T09:20:00Z</time>
      </trkpt>
      <trkpt lat="45.04023" lon="4.25477">
        <ele>1070.08</ele>
        <time>2024-06-20T09:20:15Z</time>
      </trkpt>
      <trkpt lat="45.04011" lon="4.25459">
        <ele>1071.53</ele>
        <time>2024-06-20T09:20:32Z</time>
      </trkpt>
      <trkpt lat="45.03998" lon="4.25468">
        <ele>1072.49</ele>
        <time>2024-06-20T09:20:46Z</time>
      </trkpt>
      <trkpt lat="45.03987" lon="4.25484">
        <ele>1074.41</ele>
        <time>2024-06-20T09:21:01Z</time>
      </trkpt>
      <trkpt lat="45.03977" lon="4.25499">
        <ele>1076.33</ele>
        <time>2024-06-20T09:21:16Z</time>
      </trkpt>
      <trkpt lat="45.03964" lon="4.25509">
        <ele>1077.78</ele>
        <time>2024-06-20T09:21:30Z</time>
      </trkpt>
      <trkpt lat="45.03961" lon="4.25509">
        <ele>1077.78</ele>
        <time>2024-06-20T09:21:32Z</time>
      </trkpt>
      <trkpt lat="45.03945" lon="4.25497">
        <ele>1078.26</ele>
        <time>2024-06-20T09:21:47Z</time>
      </trkpt>
      <trkpt lat="45.03934" lon="4.25485">
        <ele>1078.26</ele>
        <time>2024-06-20T09:22:00Z</time>
      </trkpt>
      <trkpt lat="45.03923" lon="4.25472">
        <ele>1078.74</ele>
        <time>2024-06-20T09:22:13Z</time>
      </trkpt>
      <trkpt lat="45.03915" lon="4.25459">
        <ele>1079.22</ele>
        <time>2024-06-20T09:22:24Z</time>
      </trkpt>
      <trkpt lat="45.03917" lon="4.25437">
        <ele>1079.7</ele>
        <time>2024-06-20T09:22:40Z</time>
      </trkpt>
      <trkpt lat="45.03919" lon="4.25431">
        <ele>1080.18</ele>
        <time>2024-06-20T09:22:44Z</time>
      </trkpt>
      <trkpt lat="45.03918" lon="4.25419">
        <ele>1080.66</ele>
        <time>2024-06-20T09:23:00Z</time>
      </trkpt>
      <trkpt lat="45.03916" lon="4.25419">
        <ele>1081.62</ele>
        <time>2024-06-20T09:23:10Z</time>
      </trkpt>
      <trkpt lat="45.03917" lon="4.25417">
        <ele>1082.1</ele>
        <time>2024-06-20T09:23:25Z</time>
      </trkpt>
      <trkpt lat="45.03918" lon="4.25409">
        <ele>1081.62</ele>
        <time>2024-06-20T09:23:36Z</time>
      </trkpt>
      <trkpt lat="45.03915" lon="4.25385">
        <ele>1083.06</ele>
        <time>2024-06-20T09:23:53Z</time>
      </trkpt>
      <trkpt lat="45.03915" lon="4.25362">
        <ele>1084.5</ele>
        <time>2024-06-20T09:24:09Z</time>
      </trkpt>
      <trkpt lat="45.03916" lon="4.25348">
        <ele>1084.5</ele>
        <time>2024-06-20T09:24:18Z</time>
      </trkpt>
      <trkpt lat="45.03916" lon="4.25331">
        <ele>1084.99</ele>
        <time>2024-06-20T09:24:29Z</time>
      </trkpt>
      <trkpt lat="45.03916" lon="4.25315">
        <ele>1084.5</ele>
        <time>2024-06-20T09:24:38Z</time>
      </trkpt>
      <trkpt lat="45.03916" lon="4.25304">
        <ele>1084.5</ele>
        <time>2024-06-20T09:24:44Z</time>
      </trkpt>
      <trkpt lat="45.03915" lon="4.25283">
        <ele>1087.39</ele>
        <time>2024-06-20T09:24:57Z</time>
      </trkpt>
      <trkpt lat="45.03911" lon="4.25259">
        <ele>1092.68</ele>
        <time>2024-06-20T09:25:13Z</time>
      </trkpt>
      <trkpt lat="45.03904" lon="4.25234">
        <ele>1096.52</ele>
        <time>2024-06-20T09:25:29Z</time>
      </trkpt>
      <trkpt lat="45.03892" lon="4.25215">
        <ele>1098.44</ele>
        <time>2024-06-20T09:25:44Z</time>
      </trkpt>
      <trkpt lat="45.03882" lon="4.25201">
        <ele>1097</ele>
        <time>2024-06-20T09:25:57Z</time>
      </trkpt>
      <trkpt lat="45.0388" lon="4.25198">
        <ele>1096.52</ele>
        <time>2024-06-20T09:25:59Z</time>
      </trkpt>
      <trkpt lat="45.03864" lon="4.25175">
        <ele>1093.16</ele>
        <time>2024-06-20T09:26:16Z</time>
      </trkpt>
      <trkpt lat="45.03861" lon="4.25171">
        <ele>1093.16</ele>
        <time>2024-06-20T09:26:20Z</time>
      </trkpt>
      <trkpt lat="45.03857" lon="4.25166">
        <ele>1093.16</ele>
        <time>2024-06-20T09:26:24Z</time>
      </trkpt>
      <trkpt lat="45.03841" lon="4.25148">
        <ele>1092.2</ele>
        <time>2024-06-20T09:26:41Z</time>
      </trkpt>
      <trkpt lat="45.03824" lon="4.25136">
        <ele>1092.2</ele>
        <time>2024-06-20T09:26:57Z</time>
      </trkpt>
      <trkpt lat="45.03807" lon="4.25124">
        <ele>1094.12</ele>
        <time>2024-06-20T09:27:14Z</time>
      </trkpt>
      <trkpt lat="45.03795" lon="4.25114">
        <ele>1095.56</ele>
        <time>2024-06-20T09:27:26Z</time>
      </trkpt>
      <trkpt lat="45.0379" lon="4.25111">
        <ele>1096.04</ele>
        <time>2024-06-20T09:27:31Z</time>
      </trkpt>
      <trkpt lat="45.03773" lon="4.25099">
        <ele>1097</ele>
        <time>2024-06-20T09:27:47Z</time>
      </trkpt>
      <trkpt lat="45.03757" lon="4.25087">
        <ele>1097.96</ele>
        <time>2024-06-20T09:28:02Z</time>
      </trkpt>
      <trkpt lat="45.0375" lon="4.25082">
        <ele>1098.92</ele>
        <time>2024-06-20T09:28:09Z</time>
      </trkpt>
      <trkpt lat="45.03731" lon="4.25068">
        <ele>1100.37</ele>
        <time>2024-06-20T09:28:27Z</time>
      </trkpt>
      <trkpt lat="45.03726" lon="4.25063">
        <ele>1100.85</ele>
        <time>2024-06-20T09:28:32Z</time>
      </trkpt>
      <trkpt lat="45.03707" lon="4.25048">
        <ele>1102.29</ele>
        <time>2024-06-20T09:28:51Z</time>
      </trkpt>
      <trkpt lat="45.03688" lon="4.25032">
        <ele>1103.73</ele>
        <time>2024-06-20T09:29:09Z</time>
      </trkpt>
      <trkpt lat="45.03673" lon="4.25016">
        <ele>1106.61</ele>
        <time>2024-06-20T09:29:26Z</time>
      </trkpt>
      <trkpt lat="45.03661" lon="4.24995">
        <ele>1109.98</ele>
        <time>2024-06-20T09:29:42Z</time>
      </trkpt>
      <trkpt lat="45.03651" lon="4.24973">
        <ele>1113.34</ele>
        <time>2024-06-20T09:29:59Z</time>
      </trkpt>
      <trkpt lat="45.03638" lon="4.24952">
        <ele>1115.75</ele>
        <time>2024-06-20T09:30:15Z</time>
      </trkpt>
      <trkpt lat="45.03622" lon="4.24933">
        <ele>1117.19</ele>
        <time>2024-06-20T09:30:33Z</time>
      </trkpt>
      <trkpt lat="45.03607" lon="4.2492">
        <ele>1118.15</ele>
        <time>2024-06-20T09:30:48Z</time>
      </trkpt>
      <trkpt lat="45.03587" lon="4.24909">
        <ele>1118.15</ele>
        <time>2024-06-20T09:31:05Z</time>
      </trkpt>
      <trkpt lat="45.03561" lon="4.24908">
        <ele>1117.67</ele>
        <time>2024-06-20T09:31:25Z</time>
      </trkpt>
      <trkpt lat="45.03541" lon="4.24909">
        <ele>1117.67</ele>
        <time>2024-06-20T09:31:41Z</time>
      </trkpt>
      <trkpt lat="45.03521" lon="4.24907">
        <ele>1116.71</ele>
        <time>2024-06-20T09:31:56Z</time>
      </trkpt>
      <trkpt lat="45.03497" lon="4.24907">
        <ele>1118.63</ele>
        <time>2024-06-20T09:32:14Z</time>
      </trkpt>
      <trkpt lat="45.03493" lon="4.24907">
        <ele>1119.11</ele>
        <time>2024-06-20T09:32:17Z</time>
      </trkpt>
      <trkpt lat="45.03475" lon="4.24911">
        <ele>1119.59</ele>
        <time>2024-06-20T09:32:32Z</time>
      </trkpt>
      <trkpt lat="45.03452" lon="4.24913">
        <ele>1119.11</ele>
        <time>2024-06-20T09:32:49Z</time>
      </trkpt>
      <trkpt lat="45.03432" lon="4.24913">
        <ele>1118.63</ele>
        <time>2024-06-20T09:33:05Z</time>
      </trkpt>
      <trkpt lat="45.03407" lon="4.2491">
        <ele>1117.19</ele>
        <time>2024-06-20T09:33:23Z</time>
      </trkpt>
      <trkpt lat="45.03387" lon="4.24903">
        <ele>1117.67</ele>
        <time>2024-06-20T09:33:39Z</time>
      </trkpt>
      <trkpt lat="45.03365" lon="4.24891">
        <ele>1116.71</ele>
        <time>2024-06-20T09:33:57Z</time>
      </trkpt>
      <trkpt lat="45.03347" lon="4.24878">
        <ele>1116.71</ele>
        <time>2024-06-20T09:34:14Z</time>
      </trkpt>
      <trkpt lat="45.03346" lon="4.24877">
        <ele>1116.71</ele>
        <time>2024-06-20T09:34:15Z</time>
      </trkpt>
      <trkpt lat="45.03339" lon="4.24871">
        <ele>1117.19</ele>
        <time>2024-06-20T09:34:22Z</time>
      </trkpt>
      <trkpt lat="45.03336" lon="4.24869">
        <ele>1117.67</ele>
        <time>2024-06-20T09:34:25Z</time>
      </trkpt>
      <trkpt lat="45.03329" lon="4.24861">
        <ele>1118.15</ele>
        <time>2024-06-20T09:34:38Z</time>
      </trkpt>
      <trkpt lat="45.03327" lon="4.24859">
        <ele>1117.19</ele>
        <time>2024-06-20T09:34:50Z</time>
      </trkpt>
      <trkpt lat="45.03326" lon="4.24856">
        <ele>1117.19</ele>
        <time>2024-06-20T09:34:54Z</time>
      </trkpt>
      <trkpt lat="45.03326" lon="4.24849">
        <ele>1116.71</ele>
        <time>2024-06-20T09:34:59Z</time>
      </trkpt>
      <trkpt lat="45.03309" lon="4.24831">
        <ele>1115.75</ele>
        <time>2024-06-20T09:35:18Z</time>
      </trkpt>
      <trkpt lat="45.03294" lon="4.24822">
        <ele>1116.23</ele>
        <time>2024-06-20T09:35:32Z</time>
      </trkpt>
      <trkpt lat="45.03275" lon="4.24809">
        <ele>1117.19</ele>
        <time>2024-06-20T09:35:49Z</time>
      </trkpt>
      <trkpt lat="45.03251" lon="4.24804">
        <ele>1117.67</ele>
        <time>2024-06-20T09:36:07Z</time>
      </trkpt>
      <trkpt lat="45.03226" lon="4.24801">
        <ele>1118.15</ele>
        <time>2024-06-20T09:36:27Z</time>
      </trkpt>
      <trkpt lat="45.03209" lon="4.24799">
        <ele>1118.63</ele>
        <time>2024-06-20T09:36:42Z</time>
      </trkpt>
      <trkpt lat="45.03192" lon="4.24808">
        <ele>1118.63</ele>
        <time>2024-06-20T09:36:58Z</time>
      </trkpt>
      <trkpt lat="45.0319" lon="4.24826">
        <ele>1119.11</ele>
        <time>2024-06-20T09:37:09Z</time>
      </trkpt>
      <trkpt lat="45.03188" lon="4.24835">
        <ele>1119.59</ele>
        <time>2024-06-20T09:37:15Z</time>
      </trkpt>
      <trkpt lat="45.03187" lon="4.24837">
        <ele>1119.59</ele>
        <time>2024-06-20T09:37:26Z</time>
      </trkpt>
      <trkpt lat="45.03188" lon="4.24849">
        <ele>1120.07</ele>
        <time>2024-06-20T09:37:33Z</time>
      </trkpt>
      <trkpt lat="45.03188" lon="4.24856">
        <ele>1120.07</ele>
        <time>2024-06-20T09:37:37Z</time>
      </trkpt>
      <trkpt lat="45.03189" lon="4.24863">
        <ele>1120.07</ele>
        <time>2024-06-20T09:37:41Z</time>
      </trkpt>
      <trkpt lat="45.03188" lon="4.24874">
        <ele>1120.07</ele>
        <time>2024-06-20T09:37:47Z</time>
      </trkpt>
      <trkpt lat="45.03185" lon="4.24913">
        <ele>1119.59</ele>
        <time>2024-06-20T09:38:08Z</time>
      </trkpt>
      <trkpt lat="45.03179" lon="4.24948">
        <ele>1119.59</ele>
        <time>2024-06-20T09:38:28Z</time>
      </trkpt>
      <trkpt lat="45.0317" lon="4.24976">
        <ele>1119.11</ele>
        <time>2024-06-20T09:38:46Z</time>
      </trkpt>
      <trkpt lat="45.03155" lon="4.24998">
        <ele>1117.67</ele>
        <time>2024-06-20T09:39:03Z</time>
      </trkpt>
      <trkpt lat="45.03133" lon="4.2502">
        <ele>1117.67</ele>
        <time>2024-06-20T09:39:24Z</time>
      </trkpt>
      <trkpt lat="45.0311" lon="4.25038">
        <ele>1116.23</ele>
        <time>2024-06-20T09:39:44Z</time>
      </trkpt>
      <trkpt lat="45.03093" lon="4.25049">
        <ele>1115.75</ele>
        <time>2024-06-20T09:39:59Z</time>
      </trkpt>
      <trkpt lat="45.03073" lon="4.25062">
        <ele>1115.75</ele>
        <time>2024-06-20T09:40:16Z</time>
      </trkpt>
      <trkpt lat="45.03051" lon="4.25075">
        <ele>1114.79</ele>
        <time>2024-06-20T09:40:34Z</time>
      </trkpt>
      <trkpt lat="45.03027" lon="4.2509">
        <ele>1113.34</ele>
        <time>2024-06-20T09:40:54Z</time>
      </trkpt>
      <trkpt lat="45.03006" lon="4.25107">
        <ele>1113.34</ele>
        <time>2024-06-20T09:41:13Z</time>
      </trkpt>
      <trkpt lat="45.02993" lon="4.25123">
        <ele>1111.9</ele>
        <time>2024-06-20T09:41:28Z</time>
      </trkpt>
      <trkpt lat="45.02986" lon="4.25129">
        <ele>1111.9</ele>
        <time>2024-06-20T09:41:34Z</time>
      </trkpt>
      <trkpt lat="45.0297" lon="4.2515">
        <ele>1109.98</ele>
        <time>2024-06-20T09:41:52Z</time>
      </trkpt>
      <trkpt lat="45.02954" lon="4.25173">
        <ele>1108.06</ele>
        <time>2024-06-20T09:42:11Z</time>
      </trkpt>
      <trkpt lat="45.02945" lon="4.25198">
        <ele>1106.61</ele>
        <time>2024-06-20T09:42:28Z</time>
      </trkpt>
      <trkpt lat="45.02934" lon="4.25224">
        <ele>1103.73</ele>
        <time>2024-06-20T09:42:46Z</time>
      </trkpt>
      <trkpt lat="45.02923" lon="4.25236">
        <ele>1103.73</ele>
        <time>2024-06-20T09:42:57Z</time>
      </trkpt>
      <trkpt lat="45.0291" lon="4.25242">
        <ele>1103.25</ele>
        <time>2024-06-20T09:43:11Z</time>
      </trkpt>
      <trkpt lat="45.02893" lon="4.25254">
        <ele>1099.4</ele>
        <time>2024-06-20T09:43:26Z</time>
      </trkpt>
      <trkpt lat="45.0288" lon="4.25273">
        <ele>1099.4</ele>
        <time>2024-06-20T09:43:42Z</time>
      </trkpt>
      <trkpt lat="45.02876" lon="4.25283">
        <ele>1098.92</ele>
        <time>2024-06-20T09:43:48Z</time>
      </trkpt>
      <trkpt lat="45.02869" lon="4.25308">
        <ele>1099.4</ele>
        <time>2024-06-20T09:44:03Z</time>
      </trkpt>
      <trkpt lat="45.02868" lon="4.2531">
        <ele>1099.4</ele>
        <time>2024-06-20T09:44:04Z</time>
      </trkpt>
      <trkpt lat="45.02863" lon="4.25325">
        <ele>1099.89</ele>
        <time>2024-06-20T09:44:13Z</time>
      </trkpt>
      <trkpt lat="45.02849" lon="4.25353">
        <ele>1100.37</ele>
        <time>2024-06-20T09:44:31Z</time>
      </trkpt>
      <trkpt lat="45.02844" lon="4.25382">
        <ele>1098.92</ele>
        <time>2024-06-20T09:44:49Z</time>
      </trkpt>
      <trkpt lat="45.02844" lon="4.2539">
        <ele>1097.96</ele>
        <time>2024-06-20T09:44:58Z</time>
      </trkpt>
      <trkpt lat="45.02842" lon="4.25395">
        <ele>1095.56</ele>
        <time>2024-06-20T09:45:13Z</time>
      </trkpt>
      <trkpt lat="45.02836" lon="4.25409">
        <ele>1095.08</ele>
        <time>2024-06-20T09:45:25Z</time>
      </trkpt>
      <trkpt lat="45.02834" lon="4.25418">
        <ele>1095.08</ele>
        <time>2024-06-20T09:45:31Z</time>
      </trkpt>
      <trkpt lat="45.02832" lon="4.25422">
        <ele>1095.08</ele>
        <time>2024-06-20T09:45:41Z</time>
      </trkpt>
      <trkpt lat="45.02831" lon="4.25424">
        <ele>1095.08</ele>
        <time>2024-06-20T09:45:53Z</time>
      </trkpt>
      <trkpt lat="45.02828" lon="4.2543">
        <ele>1095.08</ele>
        <time>2024-06-20T09:46:06Z</time>
      </trkpt>
      <trkpt lat="45.02808" lon="4.25454">
        <ele>1094.12</ele>
        <time>2024-06-20T09:46:25Z</time>
      </trkpt>
      <trkpt lat="45.02783" lon="4.25481">
        <ele>1093.16</ele>
        <time>2024-06-20T09:46:48Z</time>
      </trkpt>
      <trkpt lat="45.02765" lon="4.25505">
        <ele>1093.16</ele>
        <time>2024-06-20T09:47:06Z</time>
      </trkpt>
      <trkpt lat="45.02747" lon="4.25532">
        <ele>1093.16</ele>
        <time>2024-06-20T09:47:26Z</time>
      </trkpt>
      <trkpt lat="45.02729" lon="4.25559">
        <ele>1093.16</ele>
        <time>2024-06-20T09:47:46Z</time>
      </trkpt>
      <trkpt lat="45.02713" lon="4.25589">
        <ele>1093.64</ele>
        <time>2024-06-20T09:48:07Z</time>
      </trkpt>
      <trkpt lat="45.02702" lon="4.2561">
        <ele>1094.12</ele>
        <time>2024-06-20T09:48:23Z</time>
      </trkpt>
      <trkpt lat="45.02688" lon="4.25622">
        <ele>1094.6</ele>
        <time>2024-06-20T09:48:38Z</time>
      </trkpt>
      <trkpt lat="45.02676" lon="4.25633">
        <ele>1095.56</ele>
        <time>2024-06-20T09:48:50Z</time>
      </trkpt>
      <trkpt lat="45.02659" lon="4.2565">
        <ele>1095.56</ele>
        <time>2024-06-20T09:49:06Z</time>
      </trkpt>
      <trkpt lat="45.02641" lon="4.25667">
        <ele>1095.56</ele>
        <time>2024-06-20T09:49:24Z</time>
      </trkpt>
      <trkpt lat="45.02624" lon="4.25676">
        <ele>1096.52</ele>
        <time>2024-06-20T09:49:42Z</time>
      </trkpt>
      <trkpt lat="45.02624" lon="4.25676">
        <ele>1096.52</ele>
        <time>2024-06-20T09:49:43Z</time>
      </trkpt>
      <trkpt lat="45.02627" lon="4.25678">
        <ele>1096.52</ele>
        <time>2024-06-20T09:49:52Z</time>
      </trkpt>
      <trkpt lat="45.02627" lon="4.25678">
        <ele>1096.04</ele>
        <time>2024-06-20T09:50:11Z</time>
      </trkpt>
      <trkpt lat="45.02627" lon="4.25677">
        <ele>1096.52</ele>
        <time>2024-06-20T09:50:32Z</time>
      </trkpt>
      <trkpt lat="45.02628" lon="4.25677">
        <ele>1096.52</ele>
        <time>2024-06-20T09:50:54Z</time>
      </trkpt>
      <trkpt lat="45.02628" lon="4.25677">
        <ele>1097</ele>
        <time>2024-06-20T09:51:18Z</time>
      </trkpt>
      <trkpt lat="45.02628" lon="4.25676">
        <ele>1097</ele>
        <time>2024-06-20T09:51:45Z</time>
      </trkpt>
      <trkpt lat="45.02628" lon="4.25676">
        <ele>1096.52</ele>
        <time>2024-06-20T09:52:08Z</time>
      </trkpt>
      <trkpt lat="45.02628" lon="4.25677">
        <ele>1097</ele>
        <time>2024-06-20T09:52:34Z</time>
      </trkpt>
      <trkpt lat="45.02628" lon="4.25676">
        <ele>1096.52</ele>
        <time>2024-06-20T09:52:56Z</time>
      </trkpt>
      <trkpt lat="45.02628" lon="4.25676">
        <ele>1096.52</ele>
        <time>2024-06-20T09:53:25Z</time>
      </trkpt>
      <trkpt lat="45.02628" lon="4.25676">
        <ele>1096.52</ele>
        <time>2024-06-20T09:53:57Z</time>
      </trkpt>
      <trkpt lat="45.02628" lon="4.25677">
        <ele>1096.04</ele>
        <time>2024-06-20T09:54:24Z</time>
      </trkpt>
      <trkpt lat="45.02628" lon="4.25676">
        <ele>1096.04</ele>
        <time>2024-06-20T09:54:54Z</time>
      </trkpt>
      <trkpt lat="45.02628" lon="4.25676">
        <ele>1096.04</ele>
        <time>2024-06-20T09:55:20Z</time>
      </trkpt>
      <trkpt lat="45.02628" lon="4.25676">
        <ele>1096.04</ele>
        <time>2024-06-20T09:55:39Z</time>
      </trkpt>
      <trkpt lat="45.02628" lon="4.25676">
        <ele>1096.04</ele>
        <time>2024-06-20T09:56:02Z</time>
      </trkpt>
      <trkpt lat="45.02628" lon="4.25676">
        <ele>1095.56</ele>
        <time>2024-06-20T09:56:25Z</time>
      </trkpt>
      <trkpt lat="45.02628" lon="4.25677">
        <ele>1096.04</ele>
        <time>2024-06-20T09:56:42Z</time>
      </trkpt>
      <trkpt lat="45.02627" lon="4.25677">
        <ele>1096.04</ele>
        <time>2024-06-20T09:57:09Z</time>
      </trkpt>
      <trkpt lat="45.02627" lon="4.25676">
        <ele>1097</ele>
        <time>2024-06-20T09:57:37Z</time>
      </trkpt>
      <trkpt lat="45.02626" lon="4.25676">
        <ele>1097.48</ele>
        <time>2024-06-20T09:58:01Z</time>
      </trkpt>
      <trkpt lat="45.02627" lon="4.25676">
        <ele>1097.96</ele>
        <time>2024-06-20T09:58:29Z</time>
      </trkpt>
      <trkpt lat="45.02626" lon="4.25676">
        <ele>1097.48</ele>
        <time>2024-06-20T09:58:55Z</time>
      </trkpt>
      <trkpt lat="45.02627" lon="4.25677">
        <ele>1097.48</ele>
        <time>2024-06-20T09:59:22Z</time>
      </trkpt>
      <trkpt lat="45.02627" lon="4.25678">
        <ele>1097</ele>
        <time>2024-06-20T09:59:52Z</time>
      </trkpt>
      <trkpt lat="45.02627" lon="4.25677">
        <ele>1097</ele>
        <time>2024-06-20T10:00:20Z</time>
      </trkpt>
      <trkpt lat="45.02626" lon="4.25678">
        <ele>1097.48</ele>
        <time>2024-06-20T10:00:54Z</time>
      </trkpt>
      <trkpt lat="45.02626" lon="4.25677">
        <ele>1097.96</ele>
        <time>2024-06-20T10:01:25Z</time>
      </trkpt>
      <trkpt lat="45.02626" lon="4.25678">
        <ele>1097.96</ele>
        <time>2024-06-20T10:02:01Z</time>
      </trkpt>
      <trkpt lat="45.02626" lon="4.25678">
        <ele>1098.44</ele>
        <time>2024-06-20T10:02:17Z</time>
      </trkpt>
      <trkpt lat="45.02627" lon="4.25677">
        <ele>1098.44</ele>
        <time>2024-06-20T10:02:28Z</time>
      </trkpt>
      <trkpt lat="45.02626" lon="4.25677">
        <ele>1098.44</ele>
        <time>2024-06-20T10:02:40Z</time>
      </trkpt>
      <trkpt lat="45.02625" lon="4.25677">
        <ele>1097.96</ele>
        <time>2024-06-20T10:02:53Z</time>
      </trkpt>
      <trkpt lat="45.02625" lon="4.25676">
        <ele>1098.44</ele>
        <time>2024-06-20T10:03:06Z</time>
      </trkpt>
      <trkpt lat="45.02624" lon="4.25675">
        <ele>1098.44</ele>
        <time>2024-06-20T10:03:23Z</time>
      </trkpt>
      <trkpt lat="45.02621" lon="4.25675">
        <ele>1099.4</ele>
        <time>2024-06-20T10:03:36Z</time>
      </trkpt>
      <trkpt lat="45.02621" lon="4.25675">
        <ele>1098.92</ele>
        <time>2024-06-20T10:03:48Z</time>
      </trkpt>
      <trkpt lat="45.0262" lon="4.25675">
        <ele>1098.92</ele>
        <time>2024-06-20T10:04:04Z</time>
      </trkpt>
      <trkpt lat="45.02619" lon="4.25675">
        <ele>1098.92</ele>
        <time>2024-06-20T10:04:14Z</time>
      </trkpt>
      <trkpt lat="45.02619" lon="4.25675">
        <ele>1098.92</ele>
        <time>2024-06-20T10:04:29Z</time>
      </trkpt>
      <trkpt lat="45.0261" lon="4.25674">
        <ele>1099.89</ele>
        <time>2024-06-20T10:04:41Z</time>
      </trkpt>
      <trkpt lat="45.02603" lon="4.25672">
        <ele>1101.33</ele>
        <time>2024-06-20T10:04:48Z</time>
      </trkpt>
      <trkpt lat="45.02597" lon="4.2567">
        <ele>1101.81</ele>
        <time>2024-06-20T10:04:54Z</time>
      </trkpt>
      <trkpt lat="45.02595" lon="4.25669">
        <ele>1102.29</ele>
        <time>2024-06-20T10:04:56Z</time>
      </trkpt>
      <trkpt lat="45.02584" lon="4.25667">
        <ele>1103.73</ele>
        <time>2024-06-20T10:05:05Z</time>
      </trkpt>
      <trkpt lat="45.0257" lon="4.25671">
        <ele>1105.65</ele>
        <time>2024-06-20T10:05:19Z</time>
      </trkpt>
      <trkpt lat="45.02554" lon="4.25673">
        <ele>1109.5</ele>
        <time>2024-06-20T10:05:33Z</time>
      </trkpt>
      <trkpt lat="45.02547" lon="4.25676">
        <ele>1110.46</ele>
        <time>2024-06-20T10:05:40Z</time>
      </trkpt>
      <trkpt lat="45.02531" lon="4.25689">
        <ele>1111.42</ele>
        <time>2024-06-20T10:05:56Z</time>
      </trkpt>
      <trkpt lat="45.02515" lon="4.25699">
        <ele>1109.98</ele>
        <time>2024-06-20T10:06:10Z</time>
      </trkpt>
      <trkpt lat="45.02501" lon="4.25706">
        <ele>1108.54</ele>
        <time>2024-06-20T10:06:24Z</time>
      </trkpt>
      <trkpt lat="45.02487" lon="4.25706">
        <ele>1108.54</ele>
        <time>2024-06-20T10:06:36Z</time>
      </trkpt>
      <trkpt lat="45.02485" lon="4.25706">
        <ele>1109.5</ele>
        <time>2024-06-20T10:06:38Z</time>
      </trkpt>
      <trkpt lat="45.02483" lon="4.25707">
        <ele>1109.98</ele>
        <time>2024-06-20T10:06:40Z</time>
      </trkpt>
      <trkpt lat="45.02476" lon="4.25706">
        <ele>1110.94</ele>
        <time>2024-06-20T10:06:46Z</time>
      </trkpt>
      <trkpt lat="45.02472" lon="4.25706">
        <ele>1111.42</ele>
        <time>2024-06-20T10:06:49Z</time>
      </trkpt>
      <trkpt lat="45.02463" lon="4.25703">
        <ele>1112.38</ele>
        <time>2024-06-20T10:06:56Z</time>
      </trkpt>
      <trkpt lat="45.02459" lon="4.25701">
        <ele>1112.38</ele>
        <time>2024-06-20T10:07:00Z</time>
      </trkpt>
      <trkpt lat="45.02453" lon="4.25695">
        <ele>1113.34</ele>
        <time>2024-06-20T10:07:06Z</time>
      </trkpt>
      <trkpt lat="45.02446" lon="4.25687">
        <ele>1112.38</ele>
        <time>2024-06-20T10:07:13Z</time>
      </trkpt>
      <trkpt lat="45.02439" lon="4.25675">
        <ele>1112.38</ele>
        <time>2024-06-20T10:07:24Z</time>
      </trkpt>
      <trkpt lat="45.02435" lon="4.25669">
        <ele>1112.86</ele>
        <time>2024-06-20T10:07:29Z</time>
      </trkpt>
      <trkpt lat="45.02432" lon="4.25661">
        <ele>1112.38</ele>
        <time>2024-06-20T10:07:34Z</time>
      </trkpt>
      <trkpt lat="45.02413" lon="4.25642">
        <ele>1107.58</ele>
        <time>2024-06-20T10:07:53Z</time>
      </trkpt>
      <trkpt lat="45.02398" lon="4.2563">
        <ele>1105.17</ele>
        <time>2024-06-20T10:08:07Z</time>
      </trkpt>
      <trkpt lat="45.02386" lon="4.25607">
        <ele>1100.85</ele>
        <time>2024-06-20T10:08:25Z</time>
      </trkpt>
      <trkpt lat="45.02368" lon="4.25594">
        <ele>1097.48</ele>
        <time>2024-06-20T10:08:43Z</time>
      </trkpt>
      <trkpt lat="45.02367" lon="4.25593">
        <ele>1097</ele>
        <time>2024-06-20T10:08:49Z</time>
      </trkpt>
      <trkpt lat="45.02359" lon="4.25598">
        <ele>1096.52</ele>
        <time>2024-06-20T10:08:56Z</time>
      </trkpt>
      <trkpt lat="45.02354" lon="4.2561">
        <ele>1093.64</ele>
        <time>2024-06-20T10:09:05Z</time>
      </trkpt>
      <trkpt lat="45.02354" lon="4.25627">
        <ele>1091.71</ele>
        <time>2024-06-20T10:09:14Z</time>
      </trkpt>
      <trkpt lat="45.02354" lon="4.25633">
        <ele>1090.75</ele>
        <time>2024-06-20T10:09:18Z</time>
      </trkpt>
      <trkpt lat="45.02356" lon="4.25657">
        <ele>1089.79</ele>
        <time>2024-06-20T10:09:32Z</time>
      </trkpt>
      <trkpt lat="45.02357" lon="4.25681">
        <ele>1089.31</ele>
        <time>2024-06-20T10:09:46Z</time>
      </trkpt>
      <trkpt lat="45.02357" lon="4.25718">
        <ele>1088.35</ele>
        <time>2024-06-20T10:10:05Z</time>
      </trkpt>
      <trkpt lat="45.02355" lon="4.25736">
        <ele>1087.39</ele>
        <time>2024-06-20T10:10:16Z</time>
      </trkpt>
      <trkpt lat="45.02354" lon="4.25748">
        <ele>1086.91</ele>
        <time>2024-06-20T10:10:30Z</time>
      </trkpt>
      <trkpt lat="45.02355" lon="4.25751">
        <ele>1085.95</ele>
        <time>2024-06-20T10:10:41Z</time>
      </trkpt>
      <trkpt lat="45.02354" lon="4.25751">
        <ele>1085.95</ele>
        <time>2024-06-20T10:10:51Z</time>
      </trkpt>
      <trkpt lat="45.02355" lon="4.25752">
        <ele>1084.99</ele>
        <time>2024-06-20T10:11:04Z</time>
      </trkpt>
      <trkpt lat="45.02355" lon="4.25752">
        <ele>1084.99</ele>
        <time>2024-06-20T10:11:15Z</time>
      </trkpt>
      <trkpt lat="45.02355" lon="4.25754">
        <ele>1083.54</ele>
        <time>2024-06-20T10:11:28Z</time>
      </trkpt>
      <trkpt lat="45.02357" lon="4.25756">
        <ele>1083.06</ele>
        <time>2024-06-20T10:11:39Z</time>
      </trkpt>
      <trkpt lat="45.02356" lon="4.25759">
        <ele>1081.14</ele>
        <time>2024-06-20T10:11:56Z</time>
      </trkpt>
      <trkpt lat="45.02356" lon="4.2576">
        <ele>1080.18</ele>
        <time>2024-06-20T10:12:09Z</time>
      </trkpt>
      <trkpt lat="45.02356" lon="4.25767">
        <ele>1079.7</ele>
        <time>2024-06-20T10:12:22Z</time>
      </trkpt>
      <trkpt lat="45.02356" lon="4.25772">
        <ele>1079.7</ele>
        <time>2024-06-20T10:12:31Z</time>
      </trkpt>
      <trkpt lat="45.02357" lon="4.25775">
        <ele>1079.7</ele>
        <time>2024-06-20T10:12:33Z</time>
      </trkpt>
      <trkpt lat="45.02361" lon="4.25787">
        <ele>1079.22</ele>
        <time>2024-06-20T10:12:47Z</time>
      </trkpt>
      <trkpt lat="45.02362" lon="4.25791">
        <ele>1078.26</ele>
        <time>2024-06-20T10:12:59Z</time>
      </trkpt>
      <trkpt lat="45.02365" lon="4.25803">
        <ele>1078.74</ele>
        <time>2024-06-20T10:13:10Z</time>
      </trkpt>
      <trkpt lat="45.02372" lon="4.2583">
        <ele>1079.7</ele>
        <time>2024-06-20T10:13:26Z</time>
      </trkpt>
      <trkpt lat="45.02376" lon="4.25855">
        <ele>1079.7</ele>
        <time>2024-06-20T10:13:41Z</time>
      </trkpt>
      <trkpt lat="45.02375" lon="4.25861">
        <ele>1079.7</ele>
        <time>2024-06-20T10:13:45Z</time>
      </trkpt>
      <trkpt lat="45.02375" lon="4.25864">
        <ele>1079.7</ele>
        <time>2024-06-20T10:13:47Z</time>
      </trkpt>
      <trkpt lat="45.0237" lon="4.25888">
        <ele>1075.85</ele>
        <time>2024-06-20T10:14:02Z</time>
      </trkpt>
      <trkpt lat="45.0237" lon="4.25917">
        <ele>1071.05</ele>
        <time>2024-06-20T10:14:19Z</time>
      </trkpt>
      <trkpt lat="45.02369" lon="4.25919">
        <ele>1070.57</ele>
        <time>2024-06-20T10:14:20Z</time>
      </trkpt>
      <trkpt lat="45.02365" lon="4.25938">
        <ele>1070.08</ele>
        <time>2024-06-20T10:14:35Z</time>
      </trkpt>
      <trkpt lat="45.02356" lon="4.25944">
        <ele>1068.64</ele>
        <time>2024-06-20T10:14:44Z</time>
      </trkpt>
      <trkpt lat="45.02341" lon="4.25952">
        <ele>1065.28</ele>
        <time>2024-06-20T10:14:59Z</time>
      </trkpt>
      <trkpt lat="45.02331" lon="4.2596">
        <ele>1065.28</ele>
        <time>2024-06-20T10:15:12Z</time>
      </trkpt>
      <trkpt lat="45.02327" lon="4.25965">
        <ele>1063.84</ele>
        <time>2024-06-20T10:15:26Z</time>
      </trkpt>
      <trkpt lat="45.02324" lon="4.25967">
        <ele>1062.39</ele>
        <time>2024-06-20T10:15:37Z</time>
      </trkpt>
      <trkpt lat="45.02321" lon="4.25969">
        <ele>1061.43</ele>
        <time>2024-06-20T10:15:43Z</time>
      </trkpt>
      <trkpt lat="45.02319" lon="4.2597">
        <ele>1061.43</ele>
        <time>2024-06-20T10:15:46Z</time>
      </trkpt>
      <trkpt lat="45.02317" lon="4.25972">
        <ele>1060.95</ele>
        <time>2024-06-20T10:15:48Z</time>
      </trkpt>
      <trkpt lat="45.0231" lon="4.25983">
        <ele>1059.51</ele>
        <time>2024-06-20T10:16:01Z</time>
      </trkpt>
      <trkpt lat="45.0231" lon="4.25984">
        <ele>1059.51</ele>
        <time>2024-06-20T10:16:02Z</time>
      </trkpt>
      <trkpt lat="45.02307" lon="4.25989">
        <ele>1058.55</ele>
        <time>2024-06-20T10:16:06Z</time>
      </trkpt>
      <trkpt lat="45.02307" lon="4.25999">
        <ele>1057.59</ele>
        <time>2024-06-20T10:16:20Z</time>
      </trkpt>
      <trkpt lat="45.02308" lon="4.26002">
        <ele>1056.63</ele>
        <time>2024-06-20T10:16:26Z</time>
      </trkpt>
      <trkpt lat="45.02312" lon="4.26005">
        <ele>1056.63</ele>
        <time>2024-06-20T10:16:30Z</time>
      </trkpt>
      <trkpt lat="45.02312" lon="4.2602">
        <ele>1055.67</ele>
        <time>2024-06-20T10:16:45Z</time>
      </trkpt>
      <trkpt lat="45.02312" lon="4.2602">
        <ele>1055.67</ele>
        <time>2024-06-20T10:16:46Z</time>
      </trkpt>
      <trkpt lat="45.02311" lon="4.26028">
        <ele>1053.26</ele>
        <time>2024-06-20T10:16:57Z</time>
      </trkpt>
      <trkpt lat="45.02312" lon="4.26036">
        <ele>1051.82</ele>
        <time>2024-06-20T10:17:07Z</time>
      </trkpt>
      <trkpt lat="45.02313" lon="4.26049">
        <ele>1049.42</ele>
        <time>2024-06-20T10:17:16Z</time>
      </trkpt>
      <trkpt lat="45.02312" lon="4.2606">
        <ele>1047.97</ele>
        <time>2024-06-20T10:17:24Z</time>
      </trkpt>
      <trkpt lat="45.02309" lon="4.26067">
        <ele>1047.01</ele>
        <time>2024-06-20T10:17:28Z</time>
      </trkpt>
      <trkpt lat="45.02305" lon="4.26082">
        <ele>1045.09</ele>
        <time>2024-06-20T10:17:41Z</time>
      </trkpt>
      <trkpt lat="45.02301" lon="4.26094">
        <ele>1044.13</ele>
        <time>2024-06-20T10:17:53Z</time>
      </trkpt>
      <trkpt lat="45.02299" lon="4.26097">
        <ele>1043.17</ele>
        <time>2024-06-20T10:18:05Z</time>
      </trkpt>
      <trkpt lat="45.02293" lon="4.26103">
        <ele>1043.65</ele>
        <time>2024-06-20T10:18:15Z</time>
      </trkpt>
      <trkpt lat="45.0229" lon="4.26103">
        <ele>1042.69</ele>
        <time>2024-06-20T10:18:18Z</time>
      </trkpt>
      <trkpt lat="45.02288" lon="4.26112">
        <ele>1041.73</ele>
        <time>2024-06-20T10:18:25Z</time>
      </trkpt>
      <trkpt lat="45.02301" lon="4.26135">
        <ele>1038.36</ele>
        <time>2024-06-20T10:18:42Z</time>
      </trkpt>
      <trkpt lat="45.02303" lon="4.26138">
        <ele>1038.36</ele>
        <time>2024-06-20T10:18:44Z</time>
      </trkpt>
      <trkpt lat="45.02304" lon="4.26145">
        <ele>1037.88</ele>
        <time>2024-06-20T10:18:48Z</time>
      </trkpt>
      <trkpt lat="45.02312" lon="4.26167">
        <ele>1035.48</ele>
        <time>2024-06-20T10:19:05Z</time>
      </trkpt>
      <trkpt lat="45.02311" lon="4.2617">
        <ele>1035.48</ele>
        <time>2024-06-20T10:19:17Z</time>
      </trkpt>
      <trkpt lat="45.02315" lon="4.26179">
        <ele>1035.96</ele>
        <time>2024-06-20T10:19:31Z</time>
      </trkpt>
      <trkpt lat="45.02316" lon="4.26179">
        <ele>1034.52</ele>
        <time>2024-06-20T10:19:49Z</time>
      </trkpt>
      <trkpt lat="45.02316" lon="4.26181">
        <ele>1033.07</ele>
        <time>2024-06-20T10:20:11Z</time>
      </trkpt>
      <trkpt lat="45.02317" lon="4.26183">
        <ele>1032.59</ele>
        <time>2024-06-20T10:20:20Z</time>
      </trkpt>
      <trkpt lat="45.02317" lon="4.26184">
        <ele>1033.07</ele>
        <time>2024-06-20T10:20:37Z</time>
      </trkpt>
      <trkpt lat="45.02316" lon="4.2618">
        <ele>1035.96</ele>
        <time>2024-06-20T10:20:48Z</time>
      </trkpt>
      <trkpt lat="45.02314" lon="4.26178">
        <ele>1035.96</ele>
        <time>2024-06-20T10:20:57Z</time>
      </trkpt>
      <trkpt lat="45.02311" lon="4.26182">
        <ele>1036.44</ele>
        <time>2024-06-20T10:21:09Z</time>
      </trkpt>
      <trkpt lat="45.02308" lon="4.26188">
        <ele>1036.44</ele>
        <time>2024-06-20T10:21:15Z</time>
      </trkpt>
      <trkpt lat="45.02307" lon="4.26193">
        <ele>1036.44</ele>
        <time>2024-06-20T10:21:19Z</time>
      </trkpt>
      <trkpt lat="45.02307" lon="4.2621">
        <ele>1036.44</ele>
        <time>2024-06-20T10:21:29Z</time>
      </trkpt>
      <trkpt lat="45.02312" lon="4.26226">
        <ele>1037.4</ele>
        <time>2024-06-20T10:21:42Z</time>
      </trkpt>
      <trkpt lat="45.02315" lon="4.26231">
        <ele>1038.36</ele>
        <time>2024-06-20T10:21:47Z</time>
      </trkpt>
      <trkpt lat="45.02321" lon="4.26239">
        <ele>1041.25</ele>
        <time>2024-06-20T10:21:59Z</time>
      </trkpt>
      <trkpt lat="45.02328" lon="4.26244">
        <ele>1042.21</ele>
        <time>2024-06-20T10:22:10Z</time>
      </trkpt>
      <trkpt lat="45.02339" lon="4.26247">
        <ele>1044.61</ele>
        <time>2024-06-20T10:22:23Z</time>
      </trkpt>
      <trkpt lat="45.02351" lon="4.26253">
        <ele>1046.53</ele>
        <time>2024-06-20T10:22:35Z</time>
      </trkpt>
      <trkpt lat="45.02363" lon="4.26266">
        <ele>1047.01</ele>
        <time>2024-06-20T10:22:48Z</time>
      </trkpt>
      <trkpt lat="45.02364" lon="4.26268">
        <ele>1047.49</ele>
        <time>2024-06-20T10:22:50Z</time>
      </trkpt>
      <trkpt lat="45.0238" lon="4.26286">
        <ele>1048.45</ele>
        <time>2024-06-20T10:23:06Z</time>
      </trkpt>
      <trkpt lat="45.02394" lon="4.2631">
        <ele>1048.94</ele>
        <time>2024-06-20T10:23:24Z</time>
      </trkpt>
      <trkpt lat="45.02398" lon="4.26315">
        <ele>1049.42</ele>
        <time>2024-06-20T10:23:38Z</time>
      </trkpt>
      <trkpt lat="45.0241" lon="4.26334">
        <ele>1051.34</ele>
        <time>2024-06-20T10:23:54Z</time>
      </trkpt>
      <trkpt lat="45.02422" lon="4.2635">
        <ele>1053.74</ele>
        <time>2024-06-20T10:24:10Z</time>
      </trkpt>
      <trkpt lat="45.02425" lon="4.26354">
        <ele>1054.7</ele>
        <time>2024-06-20T10:24:14Z</time>
      </trkpt>
      <trkpt lat="45.02427" lon="4.26357">
        <ele>1055.67</ele>
        <time>2024-06-20T10:24:17Z</time>
      </trkpt>
      <trkpt lat="45.02439" lon="4.26372">
        <ele>1058.07</ele>
        <time>2024-06-20T10:24:31Z</time>
      </trkpt>
      <trkpt lat="45.02443" lon="4.26376">
        <ele>1059.03</ele>
        <time>2024-06-20T10:24:36Z</time>
      </trkpt>
      <trkpt lat="45.02451" lon="4.26385">
        <ele>1061.91</ele>
        <time>2024-06-20T10:24:50Z</time>
      </trkpt>
      <trkpt lat="45.0246" lon="4.26394">
        <ele>1062.87</ele>
        <time>2024-06-20T10:25:01Z</time>
      </trkpt>
      <trkpt lat="45.02461" lon="4.26397">
        <ele>1062.87</ele>
        <time>2024-06-20T10:25:03Z</time>
      </trkpt>
      <trkpt lat="45.02475" lon="4.2641">
        <ele>1063.84</ele>
        <time>2024-06-20T10:25:18Z</time>
      </trkpt>
      <trkpt lat="45.02484" lon="4.26416">
        <ele>1064.8</ele>
        <time>2024-06-20T10:25:27Z</time>
      </trkpt>
      <trkpt lat="45.02485" lon="4.26418">
        <ele>1065.76</ele>
        <time>2024-06-20T10:25:29Z</time>
      </trkpt>
      <trkpt lat="45.02501" lon="4.26431">
        <ele>1068.64</ele>
        <time>2024-06-20T10:25:44Z</time>
      </trkpt>
      <trkpt lat="45.02518" lon="4.26446">
        <ele>1071.53</ele>
        <time>2024-06-20T10:25:59Z</time>
      </trkpt>
      <trkpt lat="45.02524" lon="4.26453">
        <ele>1074.41</ele>
        <time>2024-06-20T10:26:06Z</time>
      </trkpt>
      <trkpt lat="45.0254" lon="4.26462">
        <ele>1079.7</ele>
        <time>2024-06-20T10:26:22Z</time>
      </trkpt>
      <trkpt lat="45.02554" lon="4.2647">
        <ele>1082.1</ele>
        <time>2024-06-20T10:26:35Z</time>
      </trkpt>
      <trkpt lat="45.0256" lon="4.26473">
        <ele>1082.1</ele>
        <time>2024-06-20T10:26:39Z</time>
      </trkpt>
      <trkpt lat="45.02576" lon="4.26484">
        <ele>1086.91</ele>
        <time>2024-06-20T10:26:52Z</time>
      </trkpt>
      <trkpt lat="45.02583" lon="4.26492">
        <ele>1085.95</ele>
        <time>2024-06-20T10:27:03Z</time>
      </trkpt>
      <trkpt lat="45.02589" lon="4.26496">
        <ele>1083.54</ele>
        <time>2024-06-20T10:27:15Z</time>
      </trkpt>
      <trkpt lat="45.02591" lon="4.26498">
        <ele>1082.58</ele>
        <time>2024-06-20T10:27:25Z</time>
      </trkpt>
      <trkpt lat="45.02592" lon="4.26499">
        <ele>1081.14</ele>
        <time>2024-06-20T10:27:33Z</time>
      </trkpt>
      <trkpt lat="45.02592" lon="4.265">
        <ele>1079.7</ele>
        <time>2024-06-20T10:27:47Z</time>
      </trkpt>
      <trkpt lat="45.02592" lon="4.265">
        <ele>1078.26</ele>
        <time>2024-06-20T10:28:07Z</time>
      </trkpt>
      <trkpt lat="45.02595" lon="4.26491">
        <ele>1075.85</ele>
        <time>2024-06-20T10:28:20Z</time>
      </trkpt>
      <trkpt lat="45.02598" lon="4.26489">
        <ele>1075.85</ele>
        <time>2024-06-20T10:28:31Z</time>
      </trkpt>
      <trkpt lat="45.02599" lon="4.2649">
        <ele>1076.81</ele>
        <time>2024-06-20T10:28:46Z</time>
      </trkpt>
      <trkpt lat="45.02598" lon="4.2649">
        <ele>1077.29</ele>
        <time>2024-06-20T10:29:01Z</time>
      </trkpt>
      <trkpt lat="45.02596" lon="4.2649">
        <ele>1076.81</ele>
        <time>2024-06-20T10:29:16Z</time>
      </trkpt>
      <trkpt lat="45.02596" lon="4.26489">
        <ele>1076.81</ele>
        <time>2024-06-20T10:29:40Z</time>
      </trkpt>
      <trkpt lat="45.02596" lon="4.2649">
        <ele>1077.29</ele>
        <time>2024-06-20T10:30:04Z</time>
      </trkpt>
      <trkpt lat="45.02596" lon="4.26491">
        <ele>1076.81</ele>
        <time>2024-06-20T10:30:34Z</time>
      </trkpt>
      <trkpt lat="45.02596" lon="4.26491">
        <ele>1076.81</ele>
        <time>2024-06-20T10:30:57Z</time>
      </trkpt>
      <trkpt lat="45.02596" lon="4.26491">
        <ele>1076.81</ele>
        <time>2024-06-20T10:31:22Z</time>
      </trkpt>
      <trkpt lat="45.02595" lon="4.26491">
        <ele>1076.81</ele>
        <time>2024-06-20T10:31:53Z</time>
      </trkpt>
      <trkpt lat="45.02595" lon="4.26491">
        <ele>1076.33</ele>
        <time>2024-06-20T10:32:20Z</time>
      </trkpt>
      <trkpt lat="45.02596" lon="4.26493">
        <ele>1076.33</ele>
        <time>2024-06-20T10:32:44Z</time>
      </trkpt>
      <trkpt lat="45.02596" lon="4.26493">
        <ele>1075.85</ele>
        <time>2024-06-20T10:33:17Z</time>
      </trkpt>
      <trkpt lat="45.02595" lon="4.26492">
        <ele>1077.29</ele>
        <time>2024-06-20T10:33:49Z</time>
      </trkpt>
      <trkpt lat="45.02594" lon="4.26492">
        <ele>1077.78</ele>
        <time>2024-06-20T10:34:16Z</time>
      </trkpt>
      <trkpt lat="45.02594" lon="4.26492">
        <ele>1077.78</ele>
        <time>2024-06-20T10:34:37Z</time>
      </trkpt>
      <trkpt lat="45.02595" lon="4.26492">
        <ele>1077.29</ele>
        <time>2024-06-20T10:35:02Z</time>
      </trkpt>
      <trkpt lat="45.02595" lon="4.26492">
        <ele>1076.81</ele>
        <time>2024-06-20T10:35:37Z</time>
      </trkpt>
      <trkpt lat="45.02594" lon="4.2649">
        <ele>1076.81</ele>
        <time>2024-06-20T10:36:05Z</time>
      </trkpt>
      <trkpt lat="45.02594" lon="4.26491">
        <ele>1076.81</ele>
        <time>2024-06-20T10:36:37Z</time>
      </trkpt>
      <trkpt lat="45.02594" lon="4.26491">
        <ele>1076.33</ele>
        <time>2024-06-20T10:37:03Z</time>
      </trkpt>
      <trkpt lat="45.02593" lon="4.26491">
        <ele>1077.29</ele>
        <time>2024-06-20T10:37:31Z</time>
      </trkpt>
      <trkpt lat="45.02593" lon="4.2649">
        <ele>1078.26</ele>
        <time>2024-06-20T10:38:09Z</time>
      </trkpt>
      <trkpt lat="45.02594" lon="4.2649">
        <ele>1077.29</ele>
        <time>2024-06-20T10:38:37Z</time>
      </trkpt>
      <trkpt lat="45.02593" lon="4.26491">
        <ele>1076.33</ele>
        <time>2024-06-20T10:39:08Z</time>
      </trkpt>
      <trkpt lat="45.02593" lon="4.26491">
        <ele>1076.81</ele>
        <time>2024-06-20T10:39:38Z</time>
      </trkpt>
      <trkpt lat="45.02593" lon="4.26493">
        <ele>1077.29</ele>
        <time>2024-06-20T10:40:17Z</time>
      </trkpt>
      <trkpt lat="45.02594" lon="4.26492">
        <ele>1076.33</ele>
        <time>2024-06-20T10:40:55Z</time>
      </trkpt>
      <trkpt lat="45.02594" lon="4.26492">
        <ele>1076.33</ele>
        <time>2024-06-20T10:41:26Z</time>
      </trkpt>
      <trkpt lat="45.02594" lon="4.26493">
        <ele>1076.33</ele>
        <time>2024-06-20T10:41:55Z</time>
      </trkpt>
      <trkpt lat="45.02594" lon="4.26494">
        <ele>1077.29</ele>
        <time>2024-06-20T10:42:30Z</time>
      </trkpt>
      <trkpt lat="45.02594" lon="4.26494">
        <ele>1076.81</ele>
        <time>2024-06-20T10:42:55Z</time>
      </trkpt>
      <trkpt lat="45.02594" lon="4.26494">
        <ele>1076.33</ele>
        <time>2024-06-20T10:43:19Z</time>
      </trkpt>
      <trkpt lat="45.02593" lon="4.26494">
        <ele>1075.85</ele>
        <time>2024-06-20T10:43:51Z</time>
      </trkpt>
      <trkpt lat="45.02593" lon="4.26493">
        <ele>1076.33</ele>
        <time>2024-06-20T10:44:24Z</time>
      </trkpt>
      <trkpt lat="45.02593" lon="4.26492">
        <ele>1076.33</ele>
        <time>2024-06-20T10:44:55Z</time>
      </trkpt>
      <trkpt lat="45.02593" lon="4.26492">
        <ele>1076.81</ele>
        <time>2024-06-20T10:45:27Z</time>
      </trkpt>
      <trkpt lat="45.02592" lon="4.26491">
        <ele>1077.29</ele>
        <time>2024-06-20T10:45:55Z</time>
      </trkpt>
      <trkpt lat="45.02592" lon="4.26492">
        <ele>1076.81</ele>
        <time>2024-06-20T10:46:24Z</time>
      </trkpt>
      <trkpt lat="45.02593" lon="4.26491">
        <ele>1077.29</ele>
        <time>2024-06-20T10:46:53Z</time>
      </trkpt>
      <trkpt lat="45.02593" lon="4.26491">
        <ele>1078.26</ele>
        <time>2024-06-20T10:47:24Z</time>
      </trkpt>
      <trkpt lat="45.02593" lon="4.2649">
        <ele>1078.26</ele>
        <time>2024-06-20T10:47:59Z</time>
      </trkpt>
      <trkpt lat="45.02593" lon="4.2649">
        <ele>1078.74</ele>
        <time>2024-06-20T10:48:24Z</time>
      </trkpt>
      <trkpt lat="45.02592" lon="4.26491">
        <ele>1078.74</ele>
        <time>2024-06-20T10:48:51Z</time>
      </trkpt>
      <trkpt lat="45.02592" lon="4.26492">
        <ele>1078.74</ele>
        <time>2024-06-20T10:49:25Z</time>
      </trkpt>
      <trkpt lat="45.02593" lon="4.26492">
        <ele>1078.26</ele>
        <time>2024-06-20T10:49:57Z</time>
      </trkpt>
      <trkpt lat="45.02593" lon="4.26491">
        <ele>1078.26</ele>
        <time>2024-06-20T10:50:19Z</time>
      </trkpt>
      <trkpt lat="45.02593" lon="4.26491">
        <ele>1079.22</ele>
        <time>2024-06-20T10:50:57Z</time>
      </trkpt>
      <trkpt lat="45.02593" lon="4.26492">
        <ele>1079.7</ele>
        <time>2024-06-20T10:51:30Z</time>
      </trkpt>
      <trkpt lat="45.02594" lon="4.26491">
        <ele>1078.74</ele>
        <time>2024-06-20T10:52:09Z</time>
      </trkpt>
      <trkpt lat="45.02595" lon="4.2649">
        <ele>1077.78</ele>
        <time>2024-06-20T10:52:39Z</time>
      </trkpt>
      <trkpt lat="45.02595" lon="4.26489">
        <ele>1078.26</ele>
        <time>2024-06-20T10:53:09Z</time>
      </trkpt>
      <trkpt lat="45.02594" lon="4.26488">
        <ele>1079.22</ele>
        <time>2024-06-20T10:53:42Z</time>
      </trkpt>
      <trkpt lat="45.02593" lon="4.26488">
        <ele>1079.7</ele>
        <time>2024-06-20T10:54:13Z</time>
      </trkpt>
      <trkpt lat="45.02593" lon="4.26488">
        <ele>1079.7</ele>
        <time>2024-06-20T10:54:42Z</time>
      </trkpt>
      <trkpt lat="45.02594" lon="4.26487">
        <ele>1079.22</ele>
        <time>2024-06-20T10:55:14Z</time>
      </trkpt>
      <trkpt lat="45.02594" lon="4.26487">
        <ele>1078.74</ele>
        <time>2024-06-20T10:55:43Z</time>
      </trkpt>
      <trkpt lat="45.02595" lon="4.26487">
        <ele>1078.26</ele>
        <time>2024-06-20T10:56:10Z</time>
      </trkpt>
      <trkpt lat="45.02595" lon="4.26488">
        <ele>1078.26</ele>
        <time>2024-06-20T10:56:33Z</time>
      </trkpt>
      <trkpt lat="45.02595" lon="4.26488">
        <ele>1077.78</ele>
        <time>2024-06-20T10:56:58Z</time>
      </trkpt>
      <trkpt lat="45.02595" lon="4.26489">
        <ele>1078.26</ele>
        <time>2024-06-20T10:57:24Z</time>
      </trkpt>
      <trkpt lat="45.02594" lon="4.2649">
        <ele>1078.26</ele>
        <time>2024-06-20T10:57:55Z</time>
      </trkpt>
      <trkpt lat="45.02594" lon="4.26489">
        <ele>1078.26</ele>
        <time>2024-06-20T10:58:27Z</time>
      </trkpt>
      <trkpt lat="45.02594" lon="4.2649">
        <ele>1078.26</ele>
        <time>2024-06-20T10:59:01Z</time>
      </trkpt>
      <trkpt lat="45.02595" lon="4.2649">
        <ele>1078.26</ele>
        <time>2024-06-20T10:59:32Z</time>
      </trkpt>
      <trkpt lat="45.02595" lon="4.2649">
        <ele>1078.26</ele>
        <time>2024-06-20T10:59:55Z</time>
      </trkpt>
      <trkpt lat="45.02595" lon="4.2649">
        <ele>1077.78</ele>
        <time>2024-06-20T11:00:15Z</time>
      </trkpt>
      <trkpt lat="45.02597" lon="4.26488">
        <ele>1077.29</ele>
        <time>2024-06-20T11:00:41Z</time>
      </trkpt>
      <trkpt lat="45.02597" lon="4.26488">
        <ele>1077.78</ele>
        <time>2024-06-20T11:01:08Z</time>
      </trkpt>
      <trkpt lat="45.02597" lon="4.26488">
        <ele>1078.74</ele>
        <time>2024-06-20T11:01:28Z</time>
      </trkpt>
      <trkpt lat="45.02597" lon="4.26488">
        <ele>1078.74</ele>
        <time>2024-06-20T11:01:53Z</time>
      </trkpt>
      <trkpt lat="45.02597" lon="4.26487">
        <ele>1078.74</ele>
        <time>2024-06-20T11:02:21Z</time>
      </trkpt>
      <trkpt lat="45.02595" lon="4.26486">
        <ele>1078.74</ele>
        <time>2024-06-20T11:02:50Z</time>
      </trkpt>
      <trkpt lat="45.02594" lon="4.26486">
        <ele>1076.81</ele>
        <time>2024-06-20T11:03:28Z</time>
      </trkpt>
      <trkpt lat="45.02593" lon="4.26487">
        <ele>1076.33</ele>
        <time>2024-06-20T11:03:47Z</time>
      </trkpt>
      <trkpt lat="45.02593" lon="4.26487">
        <ele>1076.33</ele>
        <time>2024-06-20T11:04:15Z</time>
      </trkpt>
      <trkpt lat="45.02594" lon="4.26487">
        <ele>1075.85</ele>
        <time>2024-06-20T11:04:43Z</time>
      </trkpt>
      <trkpt lat="45.02594" lon="4.26487">
        <ele>1075.85</ele>
        <time>2024-06-20T11:05:03Z</time>
      </trkpt>
      <trkpt lat="45.02594" lon="4.26487">
        <ele>1075.85</ele>
        <time>2024-06-20T11:05:18Z</time>
      </trkpt>
      <trkpt lat="45.02594" lon="4.26486">
        <ele>1075.37</ele>
        <time>2024-06-20T11:05:32Z</time>
      </trkpt>
      <trkpt lat="45.02595" lon="4.26486">
        <ele>1074.41</ele>
        <time>2024-06-20T11:05:46Z</time>
      </trkpt>
      <trkpt lat="45.02596" lon="4.26486">
        <ele>1072.97</ele>
        <time>2024-06-20T11:06:05Z</time>
      </trkpt>
      <trkpt lat="45.02597" lon="4.26486">
        <ele>1072.01</ele>
        <time>2024-06-20T11:06:18Z</time>
      </trkpt>
      <trkpt lat="45.02598" lon="4.26484">
        <ele>1071.53</ele>
        <time>2024-06-20T11:06:44Z</time>
      </trkpt>
      <trkpt lat="45.02599" lon="4.26485">
        <ele>1070.08</ele>
        <time>2024-06-20T11:07:07Z</time>
      </trkpt>
      <trkpt lat="45.026" lon="4.26485">
        <ele>1071.05</ele>
        <time>2024-06-20T11:07:28Z</time>
      </trkpt>
      <trkpt lat="45.02599" lon="4.26486">
        <ele>1072.49</ele>
        <time>2024-06-20T11:07:42Z</time>
      </trkpt>
      <trkpt lat="45.02599" lon="4.26486">
        <ele>1073.93</ele>
        <time>2024-06-20T11:08:02Z</time>
      </trkpt>
      <trkpt lat="45.02599" lon="4.26485">
        <ele>1074.41</ele>
        <time>2024-06-20T11:08:28Z</time>
      </trkpt>
      <trkpt lat="45.02599" lon="4.26485">
        <ele>1074.89</ele>
        <time>2024-06-20T11:08:45Z</time>
      </trkpt>
      <trkpt lat="45.02599" lon="4.26485">
        <ele>1075.37</ele>
        <time>2024-06-20T11:09:04Z</time>
      </trkpt>
      <trkpt lat="45.02598" lon="4.26486">
        <ele>1076.33</ele>
        <time>2024-06-20T11:09:22Z</time>
      </trkpt>
      <trkpt lat="45.02596" lon="4.26486">
        <ele>1078.74</ele>
        <time>2024-06-20T11:09:36Z</time>
      </trkpt>
      <trkpt lat="45.02602" lon="4.26495">
        <ele>1083.54</ele>
        <time>2024-06-20T11:09:47Z</time>
      </trkpt>
      <trkpt lat="45.02613" lon="4.26505">
        <ele>1090.75</ele>
        <time>2024-06-20T11:10:00Z</time>
      </trkpt>
      <trkpt lat="45.0261" lon="4.26507">
        <ele>1091.71</ele>
        <time>2024-06-20T11:10:12Z</time>
      </trkpt>
      <trkpt lat="45.02612" lon="4.26509">
        <ele>1092.68</ele>
        <time>2024-06-20T11:10:27Z</time>
      </trkpt>
      <trkpt lat="45.02621" lon="4.26518">
        <ele>1097.48</ele>
        <time>2024-06-20T11:10:38Z</time>
      </trkpt>
      <trkpt lat="45.02629" lon="4.26527">
        <ele>1102.77</ele>
        <time>2024-06-20T11:10:51Z</time>
      </trkpt>
      <trkpt lat="45.02642" lon="4.2654">
        <ele>1105.65</ele>
        <time>2024-06-20T11:11:05Z</time>
      </trkpt>
      <trkpt lat="45.02647" lon="4.26542">
        <ele>1108.06</ele>
        <time>2024-06-20T11:11:14Z</time>
      </trkpt>
      <trkpt lat="45.02653" lon="4.26547">
        <ele>1110.46</ele>
        <time>2024-06-20T11:11:25Z</time>
      </trkpt>
      <trkpt lat="45.02661" lon="4.26551">
        <ele>1113.34</ele>
        <time>2024-06-20T11:11:34Z</time>
      </trkpt>
      <trkpt lat="45.02675" lon="4.26565">
        <ele>1112.86</ele>
        <time>2024-06-20T11:11:47Z</time>
      </trkpt>
      <trkpt lat="45.02686" lon="4.26577">
        <ele>1109.98</ele>
        <time>2024-06-20T11:11:59Z</time>
      </trkpt>
      <trkpt lat="45.027" lon="4.26588">
        <ele>1112.38</ele>
        <time>2024-06-20T11:12:11Z</time>
      </trkpt>
      <trkpt lat="45.02709" lon="4.26594">
        <ele>1113.34</ele>
        <time>2024-06-20T11:12:20Z</time>
      </trkpt>
      <trkpt lat="45.02721" lon="4.26602">
        <ele>1115.75</ele>
        <time>2024-06-20T11:12:35Z</time>
      </trkpt>
      <trkpt lat="45.0274" lon="4.26621">
        <ele>1110.46</ele>
        <time>2024-06-20T11:12:50Z</time>
      </trkpt>
      <trkpt lat="45.02755" lon="4.26638">
        <ele>1106.61</ele>
        <time>2024-06-20T11:13:03Z</time>
      </trkpt>
      <trkpt lat="45.0278" lon="4.26659">
        <ele>1089.31</ele>
        <time>2024-06-20T11:13:13Z</time>
      </trkpt>
      <trkpt lat="45.02797" lon="4.26677">
        <ele>1078.74</ele>
        <time>2024-06-20T11:13:21Z</time>
      </trkpt>
      <trkpt lat="45.02816" lon="4.26696">
        <ele>1075.85</ele>
        <time>2024-06-20T11:13:37Z</time>
      </trkpt>
      <trkpt lat="45.02828" lon="4.26708">
        <ele>1073.93</ele>
        <time>2024-06-20T11:13:50Z</time>
      </trkpt>
      <trkpt lat="45.02837" lon="4.26719">
        <ele>1075.37</ele>
        <time>2024-06-20T11:14:00Z</time>
      </trkpt>
      <trkpt lat="45.0285" lon="4.26731">
        <ele>1075.85</ele>
        <time>2024-06-20T11:14:15Z</time>
      </trkpt>
      <trkpt lat="45.02862" lon="4.26742">
        <ele>1077.78</ele>
        <time>2024-06-20T11:14:28Z</time>
      </trkpt>
      <trkpt lat="45.02874" lon="4.26754">
        <ele>1080.66</ele>
        <time>2024-06-20T11:14:42Z</time>
      </trkpt>
      <trkpt lat="45.02877" lon="4.2676">
        <ele>1084.02</ele>
        <time>2024-06-20T11:14:55Z</time>
      </trkpt>
      <trkpt lat="45.02893" lon="4.26773">
        <ele>1085.47</ele>
        <time>2024-06-20T11:15:10Z</time>
      </trkpt>
      <trkpt lat="45.02902" lon="4.2678">
        <ele>1084.02</ele>
        <time>2024-06-20T11:15:18Z</time>
      </trkpt>
      <trkpt lat="45.02912" lon="4.26786">
        <ele>1085.95</ele>
        <time>2024-06-20T11:15:28Z</time>
      </trkpt>
      <trkpt lat="45.02926" lon="4.26796">
        <ele>1089.79</ele>
        <time>2024-06-20T11:15:42Z</time>
      </trkpt>
      <trkpt lat="45.0294" lon="4.26809">
        <ele>1090.75</ele>
        <time>2024-06-20T11:15:57Z</time>
      </trkpt>
      <trkpt lat="45.02952" lon="4.26819">
        <ele>1092.2</ele>
        <time>2024-06-20T11:16:11Z</time>
      </trkpt>
      <trkpt lat="45.02958" lon="4.26825">
        <ele>1096.52</ele>
        <time>2024-06-20T11:16:21Z</time>
      </trkpt>
      <trkpt lat="45.02982" lon="4.26846">
        <ele>1094.12</ele>
        <time>2024-06-20T11:16:36Z</time>
      </trkpt>
      <trkpt lat="45.02994" lon="4.26859">
        <ele>1092.68</ele>
        <time>2024-06-20T11:16:48Z</time>
      </trkpt>
      <trkpt lat="45.03007" lon="4.26874">
        <ele>1092.2</ele>
        <time>2024-06-20T11:17:02Z</time>
      </trkpt>
      <trkpt lat="45.03021" lon="4.26889">
        <ele>1096.52</ele>
        <time>2024-06-20T11:17:17Z</time>
      </trkpt>
      <trkpt lat="45.03048" lon="4.26916">
        <ele>1084.99</ele>
        <time>2024-06-20T11:17:33Z</time>
      </trkpt>
      <trkpt lat="45.03064" lon="4.26958">
        <ele>1071.53</ele>
        <time>2024-06-20T11:17:51Z</time>
      </trkpt>
      <trkpt lat="45.03074" lon="4.2699">
        <ele>1067.2</ele>
        <time>2024-06-20T11:18:08Z</time>
      </trkpt>
      <trkpt lat="45.03081" lon="4.27007">
        <ele>1066.72</ele>
        <time>2024-06-20T11:18:20Z</time>
      </trkpt>
      <trkpt lat="45.03086" lon="4.2702">
        <ele>1068.16</ele>
        <time>2024-06-20T11:18:30Z</time>
      </trkpt>
      <trkpt lat="45.03091" lon="4.27035">
        <ele>1069.6</ele>
        <time>2024-06-20T11:18:43Z</time>
      </trkpt>
      <trkpt lat="45.03096" lon="4.27039">
        <ele>1070.57</ele>
        <time>2024-06-20T11:18:48Z</time>
      </trkpt>
      <trkpt lat="45.03102" lon="4.27046">
        <ele>1070.08</ele>
        <time>2024-06-20T11:19:00Z</time>
      </trkpt>
      <trkpt lat="45.03111" lon="4.27057">
        <ele>1071.05</ele>
        <time>2024-06-20T11:19:11Z</time>
      </trkpt>
      <trkpt lat="45.03128" lon="4.27075">
        <ele>1076.33</ele>
        <time>2024-06-20T11:19:26Z</time>
      </trkpt>
      <trkpt lat="45.03134" lon="4.27082">
        <ele>1076.81</ele>
        <time>2024-06-20T11:19:32Z</time>
      </trkpt>
      <trkpt lat="45.03137" lon="4.27089">
        <ele>1076.81</ele>
        <time>2024-06-20T11:19:36Z</time>
      </trkpt>
      <trkpt lat="45.03148" lon="4.27104">
        <ele>1077.29</ele>
        <time>2024-06-20T11:19:49Z</time>
      </trkpt>
      <trkpt lat="45.0316" lon="4.27119">
        <ele>1080.66</ele>
        <time>2024-06-20T11:20:02Z</time>
      </trkpt>
      <trkpt lat="45.03171" lon="4.27136">
        <ele>1081.62</ele>
        <time>2024-06-20T11:20:14Z</time>
      </trkpt>
      <trkpt lat="45.03177" lon="4.27149">
        <ele>1082.1</ele>
        <time>2024-06-20T11:20:22Z</time>
      </trkpt>
      <trkpt lat="45.03181" lon="4.27158">
        <ele>1081.62</ele>
        <time>2024-06-20T11:20:29Z</time>
      </trkpt>
      <trkpt lat="45.03188" lon="4.27181">
        <ele>1083.06</ele>
        <time>2024-06-20T11:20:43Z</time>
      </trkpt>
      <trkpt lat="45.03188" lon="4.27183">
        <ele>1082.58</ele>
        <time>2024-06-20T11:20:44Z</time>
      </trkpt>
      <trkpt lat="45.03191" lon="4.27195">
        <ele>1081.62</ele>
        <time>2024-06-20T11:20:50Z</time>
      </trkpt>
      <trkpt lat="45.03194" lon="4.27216">
        <ele>1077.78</ele>
        <time>2024-06-20T11:21:03Z</time>
      </trkpt>
      <trkpt lat="45.03197" lon="4.27236">
        <ele>1074.41</ele>
        <time>2024-06-20T11:21:17Z</time>
      </trkpt>
      <trkpt lat="45.03201" lon="4.27253">
        <ele>1072.49</ele>
        <time>2024-06-20T11:21:31Z</time>
      </trkpt>
      <trkpt lat="45.03202" lon="4.27259">
        <ele>1071.53</ele>
        <time>2024-06-20T11:21:36Z</time>
      </trkpt>
      <trkpt lat="45.03207" lon="4.27275">
        <ele>1070.57</ele>
        <time>2024-06-20T11:21:48Z</time>
      </trkpt>
      <trkpt lat="45.03211" lon="4.27289">
        <ele>1071.05</ele>
        <time>2024-06-20T11:21:59Z</time>
      </trkpt>
      <trkpt lat="45.03213" lon="4.27306">
        <ele>1068.64</ele>
        <time>2024-06-20T11:22:10Z</time>
      </trkpt>
      <trkpt lat="45.03213" lon="4.27315">
        <ele>1067.2</ele>
        <time>2024-06-20T11:22:17Z</time>
      </trkpt>
      <trkpt lat="45.03215" lon="4.27331">
        <ele>1069.6</ele>
        <time>2024-06-20T11:22:26Z</time>
      </trkpt>
      <trkpt lat="45.03218" lon="4.27346">
        <ele>1073.93</ele>
        <time>2024-06-20T11:22:36Z</time>
      </trkpt>
      <trkpt lat="45.0322" lon="4.2735">
        <ele>1075.37</ele>
        <time>2024-06-20T11:22:39Z</time>
      </trkpt>
      <trkpt lat="45.0322" lon="4.27362">
        <ele>1083.54</ele>
        <time>2024-06-20T11:22:50Z</time>
      </trkpt>
      <trkpt lat="45.03219" lon="4.27365">
        <ele>1085.95</ele>
        <time>2024-06-20T11:23:04Z</time>
      </trkpt>
      <trkpt lat="45.03219" lon="4.27367">
        <ele>1086.91</ele>
        <time>2024-06-20T11:23:16Z</time>
      </trkpt>
      <trkpt lat="45.03223" lon="4.27376">
        <ele>1088.83</ele>
        <time>2024-06-20T11:23:29Z</time>
      </trkpt>
      <trkpt lat="45.03231" lon="4.27383">
        <ele>1087.87</ele>
        <time>2024-06-20T11:23:39Z</time>
      </trkpt>
      <trkpt lat="45.03236" lon="4.27391">
        <ele>1086.43</ele>
        <time>2024-06-20T11:23:53Z</time>
      </trkpt>
      <trkpt lat="45.03235" lon="4.27396">
        <ele>1084.99</ele>
        <time>2024-06-20T11:24:04Z</time>
      </trkpt>
      <trkpt lat="45.03234" lon="4.27397">
        <ele>1082.58</ele>
        <time>2024-06-20T11:24:20Z</time>
      </trkpt>
      <trkpt lat="45.03232" lon="4.27403">
        <ele>1081.14</ele>
        <time>2024-06-20T11:24:33Z</time>
      </trkpt>
      <trkpt lat="45.03237" lon="4.27411">
        <ele>1081.14</ele>
        <time>2024-06-20T11:24:42Z</time>
      </trkpt>
      <trkpt lat="45.03242" lon="4.27415">
        <ele>1081.62</ele>
        <time>2024-06-20T11:24:55Z</time>
      </trkpt>
      <trkpt lat="45.03243" lon="4.27421">
        <ele>1084.5</ele>
        <time>2024-06-20T11:25:03Z</time>
      </trkpt>
      <trkpt lat="45.03243" lon="4.27426">
        <ele>1082.58</ele>
        <time>2024-06-20T11:25:16Z</time>
      </trkpt>
      <trkpt lat="45.03241" lon="4.27424">
        <ele>1081.62</ele>
        <time>2024-06-20T11:25:28Z</time>
      </trkpt>
      <trkpt lat="45.03239" lon="4.27425">
        <ele>1080.18</ele>
        <time>2024-06-20T11:25:43Z</time>
      </trkpt>
      <trkpt lat="45.03239" lon="4.27426">
        <ele>1079.7</ele>
        <time>2024-06-20T11:25:59Z</time>
      </trkpt>
      <trkpt lat="45.03243" lon="4.27431">
        <ele>1078.26</ele>
        <time>2024-06-20T11:26:07Z</time>
      </trkpt>
      <trkpt lat="45.03243" lon="4.27432">
        <ele>1077.78</ele>
        <time>2024-06-20T11:26:10Z</time>
      </trkpt>
      <trkpt lat="45.03246" lon="4.27432">
        <ele>1078.74</ele>
        <time>2024-06-20T11:26:22Z</time>
      </trkpt>
      <trkpt lat="45.03253" lon="4.27438">
        <ele>1078.74</ele>
        <time>2024-06-20T11:26:33Z</time>
      </trkpt>
      <trkpt lat="45.03255" lon="4.27452">
        <ele>1080.18</ele>
        <time>2024-06-20T11:26:47Z</time>
      </trkpt>
      <trkpt lat="45.03254" lon="4.27463">
        <ele>1085.47</ele>
        <time>2024-06-20T11:27:01Z</time>
      </trkpt>
      <trkpt lat="45.03254" lon="4.27464">
        <ele>1085.95</ele>
        <time>2024-06-20T11:27:21Z</time>
      </trkpt>
      <trkpt lat="45.03252" lon="4.27463">
        <ele>1086.91</ele>
        <time>2024-06-20T11:27:39Z</time>
      </trkpt>
      <trkpt lat="45.03252" lon="4.27464">
        <ele>1087.39</ele>
        <time>2024-06-20T11:28:01Z</time>
      </trkpt>
      <trkpt lat="45.03254" lon="4.27467">
        <ele>1090.75</ele>
        <time>2024-06-20T11:28:12Z</time>
      </trkpt>
      <trkpt lat="45.03256" lon="4.2747">
        <ele>1093.64</ele>
        <time>2024-06-20T11:28:26Z</time>
      </trkpt>
      <trkpt lat="45.03259" lon="4.27477">
        <ele>1095.08</ele>
        <time>2024-06-20T11:28:39Z</time>
      </trkpt>
      <trkpt lat="45.03264" lon="4.27486">
        <ele>1094.6</ele>
        <time>2024-06-20T11:28:53Z</time>
      </trkpt>
      <trkpt lat="45.03266" lon="4.27487">
        <ele>1095.08</ele>
        <time>2024-06-20T11:28:56Z</time>
      </trkpt>
      <trkpt lat="45.03278" lon="4.27498">
        <ele>1093.64</ele>
        <time>2024-06-20T11:29:11Z</time>
      </trkpt>
      <trkpt lat="45.03292" lon="4.27517">
        <ele>1090.75</ele>
        <time>2024-06-20T11:29:24Z</time>
      </trkpt>
      <trkpt lat="45.03304" lon="4.27522">
        <ele>1083.54</ele>
        <time>2024-06-20T11:29:36Z</time>
      </trkpt>
      <trkpt lat="45.03307" lon="4.27525">
        <ele>1084.02</ele>
        <time>2024-06-20T11:29:38Z</time>
      </trkpt>
      <trkpt lat="45.03315" lon="4.27537">
        <ele>1080.18</ele>
        <time>2024-06-20T11:29:48Z</time>
      </trkpt>
      <trkpt lat="45.03318" lon="4.27546">
        <ele>1078.74</ele>
        <time>2024-06-20T11:29:58Z</time>
      </trkpt>
      <trkpt lat="45.03326" lon="4.27559">
        <ele>1080.18</ele>
        <time>2024-06-20T11:30:13Z</time>
      </trkpt>
      <trkpt lat="45.03334" lon="4.27565">
        <ele>1085.47</ele>
        <time>2024-06-20T11:30:24Z</time>
      </trkpt>
      <trkpt lat="45.03339" lon="4.2757">
        <ele>1084.99</ele>
        <time>2024-06-20T11:30:35Z</time>
      </trkpt>
      <trkpt lat="45.03341" lon="4.27573">
        <ele>1084.99</ele>
        <time>2024-06-20T11:30:44Z</time>
      </trkpt>
      <trkpt lat="45.03347" lon="4.27579">
        <ele>1084.5</ele>
        <time>2024-06-20T11:30:54Z</time>
      </trkpt>
      <trkpt lat="45.03347" lon="4.27582">
        <ele>1084.5</ele>
        <time>2024-06-20T11:31:01Z</time>
      </trkpt>
      <trkpt lat="45.03357" lon="4.27594">
        <ele>1083.54</ele>
        <time>2024-06-20T11:31:09Z</time>
      </trkpt>
      <trkpt lat="45.03363" lon="4.27606">
        <ele>1082.58</ele>
        <time>2024-06-20T11:31:16Z</time>
      </trkpt>
      <trkpt lat="45.03369" lon="4.27622">
        <ele>1082.1</ele>
        <time>2024-06-20T11:31:22Z</time>
      </trkpt>
      <trkpt lat="45.03375" lon="4.27632">
        <ele>1082.1</ele>
        <time>2024-06-20T11:31:28Z</time>
      </trkpt>
      <trkpt lat="45.03385" lon="4.27649">
        <ele>1079.7</ele>
        <time>2024-06-20T11:31:38Z</time>
      </trkpt>
      <trkpt lat="45.03388" lon="4.27661">
        <ele>1077.29</ele>
        <time>2024-06-20T11:31:51Z</time>
      </trkpt>
      <trkpt lat="45.03389" lon="4.27663">
        <ele>1077.78</ele>
        <time>2024-06-20T11:31:58Z</time>
      </trkpt>
      <trkpt lat="45.034" lon="4.27686">
        <ele>1076.33</ele>
        <time>2024-06-20T11:32:13Z</time>
      </trkpt>
      <trkpt lat="45.03409" lon="4.277">
        <ele>1073.93</ele>
        <time>2024-06-20T11:32:26Z</time>
      </trkpt>
      <trkpt lat="45.03411" lon="4.27701">
        <ele>1075.37</ele>
        <time>2024-06-20T11:32:37Z</time>
      </trkpt>
      <trkpt lat="45.03412" lon="4.27704">
        <ele>1075.85</ele>
        <time>2024-06-20T11:32:42Z</time>
      </trkpt>
      <trkpt lat="45.03422" lon="4.2772">
        <ele>1080.18</ele>
        <time>2024-06-20T11:32:54Z</time>
      </trkpt>
      <trkpt lat="45.03425" lon="4.27731">
        <ele>1078.74</ele>
        <time>2024-06-20T11:33:02Z</time>
      </trkpt>
      <trkpt lat="45.03447" lon="4.2775">
        <ele>1064.32</ele>
        <time>2024-06-20T11:33:17Z</time>
      </trkpt>
      <trkpt lat="45.03456" lon="4.27766">
        <ele>1064.32</ele>
        <time>2024-06-20T11:33:32Z</time>
      </trkpt>
      <trkpt lat="45.0347" lon="4.27789">
        <ele>1059.99</ele>
        <time>2024-06-20T11:33:46Z</time>
      </trkpt>
      <trkpt lat="45.0348" lon="4.27812">
        <ele>1056.63</ele>
        <time>2024-06-20T11:33:57Z</time>
      </trkpt>
      <trkpt lat="45.03489" lon="4.27843">
        <ele>1052.78</ele>
        <time>2024-06-20T11:34:11Z</time>
      </trkpt>
      <trkpt lat="45.03495" lon="4.27869">
        <ele>1051.82</ele>
        <time>2024-06-20T11:34:25Z</time>
      </trkpt>
      <trkpt lat="45.03502" lon="4.27898">
        <ele>1051.34</ele>
        <time>2024-06-20T11:34:41Z</time>
      </trkpt>
      <trkpt lat="45.03513" lon="4.27923">
        <ele>1052.78</ele>
        <time>2024-06-20T11:34:57Z</time>
      </trkpt>
      <trkpt lat="45.03526" lon="4.27949">
        <ele>1053.26</ele>
        <time>2024-06-20T11:35:14Z</time>
      </trkpt>
      <trkpt lat="45.03539" lon="4.27974">
        <ele>1054.7</ele>
        <time>2024-06-20T11:35:31Z</time>
      </trkpt>
      <trkpt lat="45.03552" lon="4.27999">
        <ele>1056.63</ele>
        <time>2024-06-20T11:35:48Z</time>
      </trkpt>
      <trkpt lat="45.03567" lon="4.28027">
        <ele>1058.07</ele>
        <time>2024-06-20T11:36:07Z</time>
      </trkpt>
      <trkpt lat="45.03576" lon="4.28054">
        <ele>1058.55</ele>
        <time>2024-06-20T11:36:23Z</time>
      </trkpt>
      <trkpt lat="45.03585" lon="4.28079">
        <ele>1058.55</ele>
        <time>2024-06-20T11:36:38Z</time>
      </trkpt>
      <trkpt lat="45.03598" lon="4.281">
        <ele>1060.95</ele>
        <time>2024-06-20T11:36:53Z</time>
      </trkpt>
      <trkpt lat="45.03609" lon="4.28128">
        <ele>1064.8</ele>
        <time>2024-06-20T11:37:10Z</time>
      </trkpt>
      <trkpt lat="45.03617" lon="4.28154">
        <ele>1064.8</ele>
        <time>2024-06-20T11:37:26Z</time>
      </trkpt>
      <trkpt lat="45.03626" lon="4.28184">
        <ele>1065.76</ele>
        <time>2024-06-20T11:37:44Z</time>
      </trkpt>
      <trkpt lat="45.03634" lon="4.28208">
        <ele>1067.68</ele>
        <time>2024-06-20T11:38:00Z</time>
      </trkpt>
      <trkpt lat="45.0364" lon="4.28233">
        <ele>1069.6</ele>
        <time>2024-06-20T11:38:14Z</time>
      </trkpt>
      <trkpt lat="45.03647" lon="4.28256">
        <ele>1069.6</ele>
        <time>2024-06-20T11:38:28Z</time>
      </trkpt>
      <trkpt lat="45.03659" lon="4.28283">
        <ele>1071.53</ele>
        <time>2024-06-20T11:38:45Z</time>
      </trkpt>
      <trkpt lat="45.03669" lon="4.28306">
        <ele>1072.97</ele>
        <time>2024-06-20T11:39:00Z</time>
      </trkpt>
      <trkpt lat="45.03678" lon="4.28327">
        <ele>1077.78</ele>
        <time>2024-06-20T11:39:14Z</time>
      </trkpt>
      <trkpt lat="45.03691" lon="4.28352">
        <ele>1078.26</ele>
        <time>2024-06-20T11:39:29Z</time>
      </trkpt>
      <trkpt lat="45.03694" lon="4.28359">
        <ele>1079.22</ele>
        <time>2024-06-20T11:39:34Z</time>
      </trkpt>
      <trkpt lat="45.037" lon="4.28364">
        <ele>1079.7</ele>
        <time>2024-06-20T11:39:39Z</time>
      </trkpt>
      <trkpt lat="45.03714" lon="4.2838">
        <ele>1083.54</ele>
        <time>2024-06-20T11:39:54Z</time>
      </trkpt>
      <trkpt lat="45.03714" lon="4.28381">
        <ele>1084.5</ele>
        <time>2024-06-20T11:40:10Z</time>
      </trkpt>
      <trkpt lat="45.03716" lon="4.28384">
        <ele>1084.02</ele>
        <time>2024-06-20T11:40:24Z</time>
      </trkpt>
      <trkpt lat="45.0372" lon="4.28393">
        <ele>1082.58</ele>
        <time>2024-06-20T11:40:38Z</time>
      </trkpt>
      <trkpt lat="45.03727" lon="4.28405">
        <ele>1082.58</ele>
        <time>2024-06-20T11:40:49Z</time>
      </trkpt>
      <trkpt lat="45.03742" lon="4.28423">
        <ele>1080.18</ele>
        <time>2024-06-20T11:41:06Z</time>
      </trkpt>
      <trkpt lat="45.03755" lon="4.28449">
        <ele>1077.78</ele>
        <time>2024-06-20T11:41:23Z</time>
      </trkpt>
      <trkpt lat="45.03763" lon="4.28477">
        <ele>1076.81</ele>
        <time>2024-06-20T11:41:41Z</time>
      </trkpt>
      <trkpt lat="45.0377" lon="4.28505">
        <ele>1076.33</ele>
        <time>2024-06-20T11:41:56Z</time>
      </trkpt>
      <trkpt lat="45.03779" lon="4.28537">
        <ele>1075.85</ele>
        <time>2024-06-20T11:42:14Z</time>
      </trkpt>
      <trkpt lat="45.0379" lon="4.28562">
        <ele>1077.78</ele>
        <time>2024-06-20T11:42:31Z</time>
      </trkpt>
      <trkpt lat="45.03803" lon="4.28582">
        <ele>1077.78</ele>
        <time>2024-06-20T11:42:48Z</time>
      </trkpt>
      <trkpt lat="45.03811" lon="4.28593">
        <ele>1076.33</ele>
        <time>2024-06-20T11:43:01Z</time>
      </trkpt>
      <trkpt lat="45.03814" lon="4.28598">
        <ele>1076.33</ele>
        <time>2024-06-20T11:43:05Z</time>
      </trkpt>
      <trkpt lat="45.03832" lon="4.28613">
        <ele>1075.85</ele>
        <time>2024-06-20T11:43:24Z</time>
      </trkpt>
      <trkpt lat="45.03852" lon="4.28629">
        <ele>1076.81</ele>
        <time>2024-06-20T11:43:43Z</time>
      </trkpt>
      <trkpt lat="45.0387" lon="4.2864">
        <ele>1078.74</ele>
        <time>2024-06-20T11:43:59Z</time>
      </trkpt>
      <trkpt lat="45.03873" lon="4.28641">
        <ele>1078.74</ele>
        <time>2024-06-20T11:44:02Z</time>
      </trkpt>
      <trkpt lat="45.03886" lon="4.28658">
        <ele>1082.58</ele>
        <time>2024-06-20T11:44:18Z</time>
      </trkpt>
      <trkpt lat="45.03896" lon="4.28675">
        <ele>1087.87</ele>
        <time>2024-06-20T11:44:32Z</time>
      </trkpt>
      <trkpt lat="45.03909" lon="4.28695">
        <ele>1087.39</ele>
        <time>2024-06-20T11:44:46Z</time>
      </trkpt>
      <trkpt lat="45.03921" lon="4.28708">
        <ele>1080.18</ele>
        <time>2024-06-20T11:44:55Z</time>
      </trkpt>
      <trkpt lat="45.03933" lon="4.28729">
        <ele>1075.85</ele>
        <time>2024-06-20T11:45:14Z</time>
      </trkpt>
      <trkpt lat="45.03939" lon="4.28741">
        <ele>1074.89</ele>
        <time>2024-06-20T11:45:26Z</time>
      </trkpt>
      <trkpt lat="45.03938" lon="4.28741">
        <ele>1073.45</ele>
        <time>2024-06-20T11:45:39Z</time>
      </trkpt>
      <trkpt lat="45.03941" lon="4.28742">
        <ele>1072.49</ele>
        <time>2024-06-20T11:45:50Z</time>
      </trkpt>
      <trkpt lat="45.03945" lon="4.28745">
        <ele>1073.45</ele>
        <time>2024-06-20T11:45:57Z</time>
      </trkpt>
      <trkpt lat="45.03962" lon="4.28749">
        <ele>1072.97</ele>
        <time>2024-06-20T11:46:13Z</time>
      </trkpt>
      <trkpt lat="45.03983" lon="4.28754">
        <ele>1074.41</ele>
        <time>2024-06-20T11:46:31Z</time>
      </trkpt>
      <trkpt lat="45.04002" lon="4.28759">
        <ele>1074.89</ele>
        <time>2024-06-20T11:46:48Z</time>
      </trkpt>
      <trkpt lat="45.04021" lon="4.28759">
        <ele>1077.78</ele>
        <time>2024-06-20T11:47:04Z</time>
      </trkpt>
      <trkpt lat="45.0404" lon="4.28756">
        <ele>1079.7</ele>
        <time>2024-06-20T11:47:20Z</time>
      </trkpt>
      <trkpt lat="45.04041" lon="4.28755">
        <ele>1079.7</ele>
        <time>2024-06-20T11:47:21Z</time>
      </trkpt>
      <trkpt lat="45.04054" lon="4.2875">
        <ele>1079.7</ele>
        <time>2024-06-20T11:47:32Z</time>
      </trkpt>
      <trkpt lat="45.0406" lon="4.28747">
        <ele>1079.7</ele>
        <time>2024-06-20T11:47:37Z</time>
      </trkpt>
      <trkpt lat="45.04083" lon="4.28743">
        <ele>1077.78</ele>
        <time>2024-06-20T11:47:56Z</time>
      </trkpt>
      <trkpt lat="45.04106" lon="4.28736">
        <ele>1077.78</ele>
        <time>2024-06-20T11:48:13Z</time>
      </trkpt>
      <trkpt lat="45.04128" lon="4.2873">
        <ele>1078.74</ele>
        <time>2024-06-20T11:48:31Z</time>
      </trkpt>
      <trkpt lat="45.04155" lon="4.28726">
        <ele>1077.78</ele>
        <time>2024-06-20T11:48:50Z</time>
      </trkpt>
      <trkpt lat="45.04176" lon="4.2872">
        <ele>1075.85</ele>
        <time>2024-06-20T11:49:06Z</time>
      </trkpt>
      <trkpt lat="45.04193" lon="4.28719">
        <ele>1079.7</ele>
        <time>2024-06-20T11:49:21Z</time>
      </trkpt>
      <trkpt lat="45.0421" lon="4.2872">
        <ele>1081.14</ele>
        <time>2024-06-20T11:49:37Z</time>
      </trkpt>
      <trkpt lat="45.04233" lon="4.28723">
        <ele>1081.14</ele>
        <time>2024-06-20T11:49:55Z</time>
      </trkpt>
      <trkpt lat="45.04249" lon="4.28727">
        <ele>1081.14</ele>
        <time>2024-06-20T11:50:07Z</time>
      </trkpt>
      <trkpt lat="45.04267" lon="4.28731">
        <ele>1083.06</ele>
        <time>2024-06-20T11:50:22Z</time>
      </trkpt>
      <trkpt lat="45.04277" lon="4.2874">
        <ele>1083.54</ele>
        <time>2024-06-20T11:50:35Z</time>
      </trkpt>
      <trkpt lat="45.04288" lon="4.28738">
        <ele>1079.22</ele>
        <time>2024-06-20T11:50:47Z</time>
      </trkpt>
      <trkpt lat="45.04298" lon="4.28742">
        <ele>1075.37</ele>
        <time>2024-06-20T11:50:58Z</time>
      </trkpt>
      <trkpt lat="45.04299" lon="4.28743">
        <ele>1075.37</ele>
        <time>2024-06-20T11:50:59Z</time>
      </trkpt>
      <trkpt lat="45.04305" lon="4.28746">
        <ele>1074.41</ele>
        <time>2024-06-20T11:51:03Z</time>
      </trkpt>
      <trkpt lat="45.04319" lon="4.28757">
        <ele>1070.08</ele>
        <time>2024-06-20T11:51:13Z</time>
      </trkpt>
      <trkpt lat="45.0433" lon="4.28762">
        <ele>1068.16</ele>
        <time>2024-06-20T11:51:19Z</time>
      </trkpt>
      <trkpt lat="45.04342" lon="4.28768">
        <ele>1067.2</ele>
        <time>2024-06-20T11:51:29Z</time>
      </trkpt>
      <trkpt lat="45.04347" lon="4.28768">
        <ele>1068.64</ele>
        <time>2024-06-20T11:51:32Z</time>
      </trkpt>
      <trkpt lat="45.04369" lon="4.28768">
        <ele>1071.05</ele>
        <time>2024-06-20T11:51:47Z</time>
      </trkpt>
      <trkpt lat="45.04391" lon="4.28771">
        <ele>1069.6</ele>
        <time>2024-06-20T11:52:02Z</time>
      </trkpt>
      <trkpt lat="45.04396" lon="4.28771">
        <ele>1066.72</ele>
        <time>2024-06-20T11:52:07Z</time>
      </trkpt>
      <trkpt lat="45.0442" lon="4.28797">
        <ele>1063.84</ele>
        <time>2024-06-20T11:52:22Z</time>
      </trkpt>
      <trkpt lat="45.04427" lon="4.28804">
        <ele>1063.36</ele>
        <time>2024-06-20T11:52:27Z</time>
      </trkpt>
      <trkpt lat="45.0443" lon="4.28807">
        <ele>1063.36</ele>
        <time>2024-06-20T11:52:30Z</time>
      </trkpt>
      <trkpt lat="45.04433" lon="4.28813">
        <ele>1064.32</ele>
        <time>2024-06-20T11:52:34Z</time>
      </trkpt>
      <trkpt lat="45.04445" lon="4.28823">
        <ele>1065.28</ele>
        <time>2024-06-20T11:52:45Z</time>
      </trkpt>
      <trkpt lat="45.04455" lon="4.28825">
        <ele>1064.8</ele>
        <time>2024-06-20T11:52:54Z</time>
      </trkpt>
      <trkpt lat="45.04478" lon="4.28817">
        <ele>1064.32</ele>
        <time>2024-06-20T11:53:13Z</time>
      </trkpt>
      <trkpt lat="45.04499" lon="4.28817">
        <ele>1065.76</ele>
        <time>2024-06-20T11:53:31Z</time>
      </trkpt>
      <trkpt lat="45.04517" lon="4.2882">
        <ele>1067.2</ele>
        <time>2024-06-20T11:53:46Z</time>
      </trkpt>
      <trkpt lat="45.0453" lon="4.28822">
        <ele>1066.24</ele>
        <time>2024-06-20T11:53:56Z</time>
      </trkpt>
      <trkpt lat="45.04543" lon="4.28821">
        <ele>1068.64</ele>
        <time>2024-06-20T11:54:10Z</time>
      </trkpt>
      <trkpt lat="45.04559" lon="4.2883">
        <ele>1072.01</ele>
        <time>2024-06-20T11:54:24Z</time>
      </trkpt>
      <trkpt lat="45.04572" lon="4.28837">
        <ele>1074.89</ele>
        <time>2024-06-20T11:54:34Z</time>
      </trkpt>
      <trkpt lat="45.04587" lon="4.2885">
        <ele>1076.33</ele>
        <time>2024-06-20T11:54:48Z</time>
      </trkpt>
      <trkpt lat="45.046" lon="4.28863">
        <ele>1077.78</ele>
        <time>2024-06-20T11:55:01Z</time>
      </trkpt>
      <trkpt lat="45.04611" lon="4.28875">
        <ele>1080.18</ele>
        <time>2024-06-20T11:55:15Z</time>
      </trkpt>
      <trkpt lat="45.04625" lon="4.2889">
        <ele>1079.7</ele>
        <time>2024-06-20T11:55:31Z</time>
      </trkpt>
      <trkpt lat="45.04635" lon="4.28893">
        <ele>1077.78</ele>
        <time>2024-06-20T11:55:43Z</time>
      </trkpt>
      <trkpt lat="45.04646" lon="4.28901">
        <ele>1077.29</ele>
        <time>2024-06-20T11:55:50Z</time>
      </trkpt>
      <trkpt lat="45.04653" lon="4.28906">
        <ele>1075.85</ele>
        <time>2024-06-20T11:55:54Z</time>
      </trkpt>
      <trkpt lat="45.04675" lon="4.28931">
        <ele>1068.64</ele>
        <time>2024-06-20T11:56:10Z</time>
      </trkpt>
      <trkpt lat="45.04701" lon="4.2897">
        <ele>1058.07</ele>
        <time>2024-06-20T11:56:27Z</time>
      </trkpt>
      <trkpt lat="45.04715" lon="4.29">
        <ele>1053.26</ele>
        <time>2024-06-20T11:56:43Z</time>
      </trkpt>
      <trkpt lat="45.04719" lon="4.29027">
        <ele>1052.3</ele>
        <time>2024-06-20T11:56:56Z</time>
      </trkpt>
      <trkpt lat="45.04719" lon="4.29069">
        <ele>1051.82</ele>
        <time>2024-06-20T11:57:18Z</time>
      </trkpt>
      <trkpt lat="45.04719" lon="4.29114">
        <ele>1050.38</ele>
        <time>2024-06-20T11:57:41Z</time>
      </trkpt>
      <trkpt lat="45.04718" lon="4.29145">
        <ele>1049.42</ele>
        <time>2024-06-20T11:57:57Z</time>
      </trkpt>
      <trkpt lat="45.0471" lon="4.29181">
        <ele>1048.45</ele>
        <time>2024-06-20T11:58:16Z</time>
      </trkpt>
      <trkpt lat="45.04698" lon="4.29215">
        <ele>1046.53</ele>
        <time>2024-06-20T11:58:36Z</time>
      </trkpt>
      <trkpt lat="45.0469" lon="4.29242">
        <ele>1045.09</ele>
        <time>2024-06-20T11:58:53Z</time>
      </trkpt>
      <trkpt lat="45.04689" lon="4.29255">
        <ele>1044.61</ele>
        <time>2024-06-20T11:59:03Z</time>
      </trkpt>
      <trkpt lat="45.04692" lon="4.2927">
        <ele>1042.69</ele>
        <time>2024-06-20T11:59:16Z</time>
      </trkpt>
      <trkpt lat="45.04697" lon="4.29291">
        <ele>1039.32</ele>
        <time>2024-06-20T11:59:30Z</time>
      </trkpt>
      <trkpt lat="45.04702" lon="4.29317">
        <ele>1044.13</ele>
        <time>2024-06-20T11:59:44Z</time>
      </trkpt>
      <trkpt lat="45.04703" lon="4.29346">
        <ele>1044.13</ele>
        <time>2024-06-20T12:00:00Z</time>
      </trkpt>
      <trkpt lat="45.047" lon="4.29385">
        <ele>1041.25</ele>
        <time>2024-06-20T12:00:16Z</time>
      </trkpt>
      <trkpt lat="45.04698" lon="4.29427">
        <ele>1037.4</ele>
        <time>2024-06-20T12:00:33Z</time>
      </trkpt>
      <trkpt lat="45.04696" lon="4.29456">
        <ele>1036.92</ele>
        <time>2024-06-20T12:00:48Z</time>
      </trkpt>
      <trkpt lat="45.04694" lon="4.29482">
        <ele>1036.92</ele>
        <time>2024-06-20T12:01:02Z</time>
      </trkpt>
      <trkpt lat="45.04695" lon="4.29498">
        <ele>1037.88</ele>
        <time>2024-06-20T12:01:12Z</time>
      </trkpt>
      <trkpt lat="45.04696" lon="4.2951">
        <ele>1038.36</ele>
        <time>2024-06-20T12:01:20Z</time>
      </trkpt>
      <trkpt lat="45.04698" lon="4.29525">
        <ele>1038.36</ele>
        <time>2024-06-20T12:01:29Z</time>
      </trkpt>
      <trkpt lat="45.04699" lon="4.29553">
        <ele>1038.84</ele>
        <time>2024-06-20T12:01:45Z</time>
      </trkpt>
      <trkpt lat="45.04694" lon="4.2958">
        <ele>1039.8</ele>
        <time>2024-06-20T12:02:00Z</time>
      </trkpt>
      <trkpt lat="45.04692" lon="4.2959">
        <ele>1040.28</ele>
        <time>2024-06-20T12:02:06Z</time>
      </trkpt>
      <trkpt lat="45.04684" lon="4.2962">
        <ele>1041.25</ele>
        <time>2024-06-20T12:02:24Z</time>
      </trkpt>
      <trkpt lat="45.04683" lon="4.29626">
        <ele>1041.25</ele>
        <time>2024-06-20T12:02:27Z</time>
      </trkpt>
      <trkpt lat="45.04682" lon="4.29654">
        <ele>1043.65</ele>
        <time>2024-06-20T12:02:43Z</time>
      </trkpt>
      <trkpt lat="45.04682" lon="4.29683">
        <ele>1045.57</ele>
        <time>2024-06-20T12:03:00Z</time>
      </trkpt>
      <trkpt lat="45.04686" lon="4.29707">
        <ele>1044.13</ele>
        <time>2024-06-20T12:03:14Z</time>
      </trkpt>
      <trkpt lat="45.04689" lon="4.29714">
        <ele>1043.17</ele>
        <time>2024-06-20T12:03:19Z</time>
      </trkpt>
      <trkpt lat="45.04705" lon="4.29741">
        <ele>1040.28</ele>
        <time>2024-06-20T12:03:38Z</time>
      </trkpt>
      <trkpt lat="45.04721" lon="4.29769">
        <ele>1038.84</ele>
        <time>2024-06-20T12:03:56Z</time>
      </trkpt>
      <trkpt lat="45.04729" lon="4.29784">
        <ele>1037.88</ele>
        <time>2024-06-20T12:04:06Z</time>
      </trkpt>
      <trkpt lat="45.04733" lon="4.29792">
        <ele>1036.92</ele>
        <time>2024-06-20T12:04:11Z</time>
      </trkpt>
      <trkpt lat="45.04743" lon="4.29824">
        <ele>1035.96</ele>
        <time>2024-06-20T12:04:29Z</time>
      </trkpt>
      <trkpt lat="45.04746" lon="4.29853">
        <ele>1035.48</ele>
        <time>2024-06-20T12:04:45Z</time>
      </trkpt>
      <trkpt lat="45.04745" lon="4.29859">
        <ele>1035</ele>
        <time>2024-06-20T12:04:48Z</time>
      </trkpt>
      <trkpt lat="45.04739" lon="4.29862">
        <ele>1035</ele>
        <time>2024-06-20T12:04:53Z</time>
      </trkpt>
      <trkpt lat="45.04724" lon="4.29852">
        <ele>1035</ele>
        <time>2024-06-20T12:05:05Z</time>
      </trkpt>
      <trkpt lat="45.04716" lon="4.29846">
        <ele>1035.48</ele>
        <time>2024-06-20T12:05:12Z</time>
      </trkpt>
      <trkpt lat="45.0471" lon="4.29841">
        <ele>1035.96</ele>
        <time>2024-06-20T12:05:17Z</time>
      </trkpt>
      <trkpt lat="45.04705" lon="4.29836">
        <ele>1036.44</ele>
        <time>2024-06-20T12:05:22Z</time>
      </trkpt>
      <trkpt lat="45.04699" lon="4.2983">
        <ele>1036.92</ele>
        <time>2024-06-20T12:05:28Z</time>
      </trkpt>
      <trkpt lat="45.04693" lon="4.29824">
        <ele>1036.92</ele>
        <time>2024-06-20T12:05:34Z</time>
      </trkpt>
      <trkpt lat="45.04672" lon="4.29808">
        <ele>1036.92</ele>
        <time>2024-06-20T12:05:52Z</time>
      </trkpt>
      <trkpt lat="45.04649" lon="4.29796">
        <ele>1036.92</ele>
        <time>2024-06-20T12:06:10Z</time>
      </trkpt>
      <trkpt lat="45.04622" lon="4.29795">
        <ele>1036.92</ele>
        <time>2024-06-20T12:06:30Z</time>
      </trkpt>
      <trkpt lat="45.04598" lon="4.29798">
        <ele>1036.92</ele>
        <time>2024-06-20T12:06:48Z</time>
      </trkpt>
      <trkpt lat="45.04568" lon="4.29796">
        <ele>1037.4</ele>
        <time>2024-06-20T12:07:10Z</time>
      </trkpt>
      <trkpt lat="45.04542" lon="4.29791">
        <ele>1036.92</ele>
        <time>2024-06-20T12:07:29Z</time>
      </trkpt>
      <trkpt lat="45.04521" lon="4.29785">
        <ele>1037.88</ele>
        <time>2024-06-20T12:07:45Z</time>
      </trkpt>
      <trkpt lat="45.04496" lon="4.29778">
        <ele>1038.84</ele>
        <time>2024-06-20T12:08:04Z</time>
      </trkpt>
      <trkpt lat="45.04471" lon="4.29772">
        <ele>1039.32</ele>
        <time>2024-06-20T12:08:23Z</time>
      </trkpt>
      <trkpt lat="45.04445" lon="4.29768">
        <ele>1039.32</ele>
        <time>2024-06-20T12:08:42Z</time>
      </trkpt>
      <trkpt lat="45.04414" lon="4.29766">
        <ele>1040.76</ele>
        <time>2024-06-20T12:09:06Z</time>
      </trkpt>
      <trkpt lat="45.04387" lon="4.29761">
        <ele>1041.73</ele>
        <time>2024-06-20T12:09:27Z</time>
      </trkpt>
      <trkpt lat="45.04359" lon="4.29747">
        <ele>1041.73</ele>
        <time>2024-06-20T12:09:49Z</time>
      </trkpt>
      <trkpt lat="45.04337" lon="4.29736">
        <ele>1042.69</ele>
        <time>2024-06-20T12:10:07Z</time>
      </trkpt>
      <trkpt lat="45.04316" lon="4.2974">
        <ele>1043.17</ele>
        <time>2024-06-20T12:10:25Z</time>
      </trkpt>
      <trkpt lat="45.04301" lon="4.29763">
        <ele>1044.13</ele>
        <time>2024-06-20T12:10:43Z</time>
      </trkpt>
      <trkpt lat="45.04289" lon="4.29775">
        <ele>1046.53</ele>
        <time>2024-06-20T12:10:57Z</time>
      </trkpt>
      <trkpt lat="45.04263" lon="4.29778">
        <ele>1044.61</ele>
        <time>2024-06-20T12:11:14Z</time>
      </trkpt>
      <trkpt lat="45.04255" lon="4.29782">
        <ele>1044.13</ele>
        <time>2024-06-20T12:11:24Z</time>
      </trkpt>
      <trkpt lat="45.04255" lon="4.29795">
        <ele>1046.05</ele>
        <time>2024-06-20T12:11:40Z</time>
      </trkpt>
      <trkpt lat="45.04252" lon="4.29801">
        <ele>1047.97</ele>
        <time>2024-06-20T12:11:54Z</time>
      </trkpt>
      <trkpt lat="45.04252" lon="4.29805">
        <ele>1047.97</ele>
        <time>2024-06-20T12:11:57Z</time>
      </trkpt>
      <trkpt lat="45.04252" lon="4.29835">
        <ele>1047.01</ele>
        <time>2024-06-20T12:12:13Z</time>
      </trkpt>
      <trkpt lat="45.04252" lon="4.29837">
        <ele>1047.01</ele>
        <time>2024-06-20T12:12:14Z</time>
      </trkpt>
      <trkpt lat="45.04249" lon="4.29867">
        <ele>1047.01</ele>
        <time>2024-06-20T12:12:30Z</time>
      </trkpt>
      <trkpt lat="45.04238" lon="4.29896">
        <ele>1043.17</ele>
        <time>2024-06-20T12:12:47Z</time>
      </trkpt>
      <trkpt lat="45.04219" lon="4.29918">
        <ele>1041.25</ele>
        <time>2024-06-20T12:13:05Z</time>
      </trkpt>
      <trkpt lat="45.04209" lon="4.2993">
        <ele>1039.8</ele>
        <time>2024-06-20T12:13:15Z</time>
      </trkpt>
      <trkpt lat="45.04198" lon="4.29959">
        <ele>1035.96</ele>
        <time>2024-06-20T12:13:33Z</time>
      </trkpt>
      <trkpt lat="45.04187" lon="4.29981">
        <ele>1035</ele>
        <time>2024-06-20T12:13:48Z</time>
      </trkpt>
      <trkpt lat="45.04185" lon="4.29984">
        <ele>1035</ele>
        <time>2024-06-20T12:13:50Z</time>
      </trkpt>
      <trkpt lat="45.0417" lon="4.29998">
        <ele>1032.11</ele>
        <time>2024-06-20T12:14:05Z</time>
      </trkpt>
      <trkpt lat="45.04163" lon="4.3">
        <ele>1031.15</ele>
        <time>2024-06-20T12:14:11Z</time>
      </trkpt>
      <trkpt lat="45.04157" lon="4.29998">
        <ele>1029.23</ele>
        <time>2024-06-20T12:14:17Z</time>
      </trkpt>
      <trkpt lat="45.0415" lon="4.29975">
        <ele>1028.75</ele>
        <time>2024-06-20T12:14:31Z</time>
      </trkpt>
      <trkpt lat="45.04133" lon="4.29977">
        <ele>1026.34</ele>
        <time>2024-06-20T12:14:45Z</time>
      </trkpt>
      <trkpt lat="45.04111" lon="4.29991">
        <ele>1025.38</ele>
        <time>2024-06-20T12:15:04Z</time>
      </trkpt>
      <trkpt lat="45.0409" lon="4.30018">
        <ele>1025.38</ele>
        <time>2024-06-20T12:15:25Z</time>
      </trkpt>
      <trkpt lat="45.04073" lon="4.30037">
        <ele>1024.9</ele>
        <time>2024-06-20T12:15:41Z</time>
      </trkpt>
      <trkpt lat="45.04056" lon="4.30062">
        <ele>1022.5</ele>
        <time>2024-06-20T12:15:58Z</time>
      </trkpt>
      <trkpt lat="45.04039" lon="4.3009">
        <ele>1019.13</ele>
        <time>2024-06-20T12:16:17Z</time>
      </trkpt>
      <trkpt lat="45.0402" lon="4.3012">
        <ele>1016.73</ele>
        <time>2024-06-20T12:16:38Z</time>
      </trkpt>
      <trkpt lat="45.04006" lon="4.30149">
        <ele>1014.81</ele>
        <time>2024-06-20T12:16:57Z</time>
      </trkpt>
      <trkpt lat="45.03994" lon="4.3017">
        <ele>1011.44</ele>
        <time>2024-06-20T12:17:13Z</time>
      </trkpt>
      <trkpt lat="45.03983" lon="4.3017">
        <ele>1010.96</ele>
        <time>2024-06-20T12:17:24Z</time>
      </trkpt>
      <trkpt lat="45.03966" lon="4.30169">
        <ele>1011.44</ele>
        <time>2024-06-20T12:17:38Z</time>
      </trkpt>
      <trkpt lat="45.03953" lon="4.30183">
        <ele>1013.85</ele>
        <time>2024-06-20T12:17:52Z</time>
      </trkpt>
      <trkpt lat="45.03938" lon="4.302">
        <ele>1013.85</ele>
        <time>2024-06-20T12:18:06Z</time>
      </trkpt>
      <trkpt lat="45.03918" lon="4.3021">
        <ele>1011.93</ele>
        <time>2024-06-20T12:18:20Z</time>
      </trkpt>
      <trkpt lat="45.03915" lon="4.3021">
        <ele>1011.44</ele>
        <time>2024-06-20T12:18:26Z</time>
      </trkpt>
      <trkpt lat="45.03903" lon="4.302">
        <ele>1012.89</ele>
        <time>2024-06-20T12:18:39Z</time>
      </trkpt>
      <trkpt lat="45.03897" lon="4.30194">
        <ele>1010.96</ele>
        <time>2024-06-20T12:18:51Z</time>
      </trkpt>
      <trkpt lat="45.03895" lon="4.30192">
        <ele>1011.44</ele>
        <time>2024-06-20T12:18:53Z</time>
      </trkpt>
      <trkpt lat="45.03877" lon="4.30179">
        <ele>1011.93</ele>
        <time>2024-06-20T12:19:09Z</time>
      </trkpt>
      <trkpt lat="45.03866" lon="4.30164">
        <ele>1011.93</ele>
        <time>2024-06-20T12:19:23Z</time>
      </trkpt>
      <trkpt lat="45.03853" lon="4.30149">
        <ele>1008.56</ele>
        <time>2024-06-20T12:19:39Z</time>
      </trkpt>
      <trkpt lat="45.03846" lon="4.30144">
        <ele>1009.52</ele>
        <time>2024-06-20T12:19:54Z</time>
      </trkpt>
      <trkpt lat="45.0384" lon="4.30141">
        <ele>1010</ele>
        <time>2024-06-20T12:20:02Z</time>
      </trkpt>
      <trkpt lat="45.03836" lon="4.30132">
        <ele>1008.08</ele>
        <time>2024-06-20T12:20:15Z</time>
      </trkpt>
      <trkpt lat="45.03836" lon="4.30129">
        <ele>1006.64</ele>
        <time>2024-06-20T12:20:25Z</time>
      </trkpt>
      <trkpt lat="45.03838" lon="4.30132">
        <ele>1007.6</ele>
        <time>2024-06-20T12:20:38Z</time>
      </trkpt>
      <trkpt lat="45.03838" lon="4.30134">
        <ele>1007.12</ele>
        <time>2024-06-20T12:20:55Z</time>
      </trkpt>
      <trkpt lat="45.03836" lon="4.30133">
        <ele>1006.16</ele>
        <time>2024-06-20T12:21:10Z</time>
      </trkpt>
      <trkpt lat="45.03835" lon="4.30133">
        <ele>1006.64</ele>
        <time>2024-06-20T12:21:16Z</time>
      </trkpt>
      <trkpt lat="45.03827" lon="4.30137">
        <ele>1005.2</ele>
        <time>2024-06-20T12:21:27Z</time>
      </trkpt>
      <trkpt lat="45.03817" lon="4.30144">
        <ele>1005.68</ele>
        <time>2024-06-20T12:21:41Z</time>
      </trkpt>
      <trkpt lat="45.03813" lon="4.30147">
        <ele>1004.72</ele>
        <time>2024-06-20T12:21:53Z</time>
      </trkpt>
      <trkpt lat="45.03802" lon="4.3015">
        <ele>1005.2</ele>
        <time>2024-06-20T12:22:07Z</time>
      </trkpt>
      <trkpt lat="45.03796" lon="4.30148">
        <ele>1005.2</ele>
        <time>2024-06-20T12:22:12Z</time>
      </trkpt>
      <trkpt lat="45.03776" lon="4.30145">
        <ele>1003.27</ele>
        <time>2024-06-20T12:22:22Z</time>
      </trkpt>
      <trkpt lat="45.03741" lon="4.30136">
        <ele>999.43</ele>
        <time>2024-06-20T12:22:40Z</time>
      </trkpt>
      <trkpt lat="45.03721" lon="4.30136">
        <ele>997.02</ele>
        <time>2024-06-20T12:22:55Z</time>
      </trkpt>
      <trkpt lat="45.03708" lon="4.30139">
        <ele>995.1</ele>
        <time>2024-06-20T12:23:06Z</time>
      </trkpt>
      <trkpt lat="45.0369" lon="4.30146">
        <ele>996.06</ele>
        <time>2024-06-20T12:23:23Z</time>
      </trkpt>
      <trkpt lat="45.03673" lon="4.30158">
        <ele>998.95</ele>
        <time>2024-06-20T12:23:40Z</time>
      </trkpt>
      <trkpt lat="45.03667" lon="4.30168">
        <ele>1003.27</ele>
        <time>2024-06-20T12:23:52Z</time>
      </trkpt>
      <trkpt lat="45.03664" lon="4.30171">
        <ele>1005.2</ele>
        <time>2024-06-20T12:23:59Z</time>
      </trkpt>
      <trkpt lat="45.03651" lon="4.30186">
        <ele>1009.04</ele>
        <time>2024-06-20T12:24:11Z</time>
      </trkpt>
      <trkpt lat="45.0364" lon="4.30199">
        <ele>1010.96</ele>
        <time>2024-06-20T12:24:23Z</time>
      </trkpt>
      <trkpt lat="45.03636" lon="4.30206">
        <ele>1011.44</ele>
        <time>2024-06-20T12:24:28Z</time>
      </trkpt>
      <trkpt lat="45.03625" lon="4.30219">
        <ele>1011.93</ele>
        <time>2024-06-20T12:24:39Z</time>
      </trkpt>
      <trkpt lat="45.03607" lon="4.30233">
        <ele>1010.48</ele>
        <time>2024-06-20T12:24:51Z</time>
      </trkpt>
      <trkpt lat="45.03593" lon="4.30247">
        <ele>1008.56</ele>
        <time>2024-06-20T12:25:06Z</time>
      </trkpt>
      <trkpt lat="45.03591" lon="4.30255">
        <ele>1008.08</ele>
        <time>2024-06-20T12:25:13Z</time>
      </trkpt>
      <trkpt lat="45.03586" lon="4.30265">
        <ele>1010.48</ele>
        <time>2024-06-20T12:25:19Z</time>
      </trkpt>
      <trkpt lat="45.03579" lon="4.30288">
        <ele>1018.17</ele>
        <time>2024-06-20T12:25:33Z</time>
      </trkpt>
      <trkpt lat="45.0358" lon="4.30291">
        <ele>1019.62</ele>
        <time>2024-06-20T12:25:35Z</time>
      </trkpt>
      <trkpt lat="45.03578" lon="4.30298">
        <ele>1022.98</ele>
        <time>2024-06-20T12:25:39Z</time>
      </trkpt>
      <trkpt lat="45.03573" lon="4.30313">
        <ele>1026.83</ele>
        <time>2024-06-20T12:25:49Z</time>
      </trkpt>
      <trkpt lat="45.03561" lon="4.30326">
        <ele>1027.79</ele>
        <time>2024-06-20T12:25:59Z</time>
      </trkpt>
      <trkpt lat="45.03552" lon="4.30333">
        <ele>1028.27</ele>
        <time>2024-06-20T12:26:06Z</time>
      </trkpt>
      <trkpt lat="45.0354" lon="4.3034">
        <ele>1028.75</ele>
        <time>2024-06-20T12:26:16Z</time>
      </trkpt>
      <trkpt lat="45.03538" lon="4.30342">
        <ele>1028.27</ele>
        <time>2024-06-20T12:26:17Z</time>
      </trkpt>
      <trkpt lat="45.03537" lon="4.30345">
        <ele>1028.75</ele>
        <time>2024-06-20T12:26:19Z</time>
      </trkpt>
      <trkpt lat="45.03531" lon="4.30354">
        <ele>1028.27</ele>
        <time>2024-06-20T12:26:25Z</time>
      </trkpt>
      <trkpt lat="45.0352" lon="4.30366">
        <ele>1028.75</ele>
        <time>2024-06-20T12:26:35Z</time>
      </trkpt>
      <trkpt lat="45.03506" lon="4.3038">
        <ele>1026.34</ele>
        <time>2024-06-20T12:26:47Z</time>
      </trkpt>
      <trkpt lat="45.03494" lon="4.30387">
        <ele>1022.02</ele>
        <time>2024-06-20T12:26:54Z</time>
      </trkpt>
      <trkpt lat="45.0349" lon="4.30386">
        <ele>1019.62</ele>
        <time>2024-06-20T12:26:57Z</time>
      </trkpt>
      <trkpt lat="45.03464" lon="4.30394">
        <ele>1008.56</ele>
        <time>2024-06-20T12:27:10Z</time>
      </trkpt>
      <trkpt lat="45.03442" lon="4.30397">
        <ele>1001.83</ele>
        <time>2024-06-20T12:27:19Z</time>
      </trkpt>
      <trkpt lat="45.03402" lon="4.30385">
        <ele>992.7</ele>
        <time>2024-06-20T12:27:34Z</time>
      </trkpt>
      <trkpt lat="45.03398" lon="4.30377">
        <ele>991.26</ele>
        <time>2024-06-20T12:27:45Z</time>
      </trkpt>
      <trkpt lat="45.03395" lon="4.30376">
        <ele>990.78</ele>
        <time>2024-06-20T12:27:58Z</time>
      </trkpt>
      <trkpt lat="45.03393" lon="4.30376">
        <ele>990.78</ele>
        <time>2024-06-20T12:28:01Z</time>
      </trkpt>
      <trkpt lat="45.03387" lon="4.30373">
        <ele>990.78</ele>
        <time>2024-06-20T12:28:08Z</time>
      </trkpt>
      <trkpt lat="45.03385" lon="4.30374">
        <ele>991.26</ele>
        <time>2024-06-20T12:28:11Z</time>
      </trkpt>
      <trkpt lat="45.03357" lon="4.30385">
        <ele>991.26</ele>
        <time>2024-06-20T12:28:29Z</time>
      </trkpt>
      <trkpt lat="45.03346" lon="4.30397">
        <ele>990.78</ele>
        <time>2024-06-20T12:28:39Z</time>
      </trkpt>
      <trkpt lat="45.03342" lon="4.30407">
        <ele>989.33</ele>
        <time>2024-06-20T12:28:45Z</time>
      </trkpt>
      <trkpt lat="45.0334" lon="4.30416">
        <ele>988.37</ele>
        <time>2024-06-20T12:28:51Z</time>
      </trkpt>
      <trkpt lat="45.03337" lon="4.30436">
        <ele>991.74</ele>
        <time>2024-06-20T12:29:03Z</time>
      </trkpt>
      <trkpt lat="45.03336" lon="4.30444">
        <ele>994.62</ele>
        <time>2024-06-20T12:29:08Z</time>
      </trkpt>
      <trkpt lat="45.03329" lon="4.30471">
        <ele>999.43</ele>
        <time>2024-06-20T12:29:24Z</time>
      </trkpt>
      <trkpt lat="45.03325" lon="4.30486">
        <ele>1001.83</ele>
        <time>2024-06-20T12:29:31Z</time>
      </trkpt>
      <trkpt lat="45.03326" lon="4.30513">
        <ele>1002.79</ele>
        <time>2024-06-20T12:29:44Z</time>
      </trkpt>
      <trkpt lat="45.03327" lon="4.30537">
        <ele>1004.72</ele>
        <time>2024-06-20T12:29:57Z</time>
      </trkpt>
      <trkpt lat="45.03327" lon="4.30554">
        <ele>1005.2</ele>
        <time>2024-06-20T12:30:07Z</time>
      </trkpt>
      <trkpt lat="45.03327" lon="4.30573">
        <ele>1002.79</ele>
        <time>2024-06-20T12:30:15Z</time>
      </trkpt>
      <trkpt lat="45.0332" lon="4.30601">
        <ele>980.3</ele>
      </trkpt>
      <trkpt lat="45.03314" lon="4.30614">
        <ele>979.1</ele>
      </trkpt>
      <trkpt lat="45.03305" lon="4.30611">
        <ele>978.9</ele>
      </trkpt>
      <trkpt lat="45.03299" lon="4.30595">
        <ele>978.7</ele>
      </trkpt>
      <trkpt lat="45.0329" lon="4.30585">
        <ele>977.7</ele>
      </trkpt>
      <trkpt lat="45.03281" lon="4.30581">
        <ele>976.5</ele>
      </trkpt>
      <trkpt lat="45.03271" lon="4.306">
        <ele>976.5</ele>
      </trkpt>
      <trkpt lat="45.0323" lon="4.30697">
        <ele>981.8</ele>
      </trkpt>
      <trkpt lat="45.03244" lon="4.30768">
        <ele>989</ele>
      </trkpt>
      <trkpt lat="45.03191" lon="4.30837">
        <ele>993.1</ele>
      </trkpt>
      <trkpt lat="45.03167" lon="4.30857">
        <ele>993</ele>
      </trkpt>
      <trkpt lat="45.0313" lon="4.30898">
        <ele>990.7</ele>
      </trkpt>
      <trkpt lat="45.03113" lon="4.30907">
        <ele>989.1</ele>
      </trkpt>
      <trkpt lat="45.03091" lon="4.30905">
        <ele>988.4</ele>
      </trkpt>
      <trkpt lat="45.02958" lon="4.30844">
        <ele>985.7</ele>
      </trkpt>
      <trkpt lat="45.02894" lon="4.30834">
        <ele>979.5</ele>
      </trkpt>
      <trkpt lat="45.02847" lon="4.30804">
        <ele>980</ele>
      </trkpt>
      <trkpt lat="45.02821" lon="4.30793">
        <ele>981.7</ele>
      </trkpt>
      <trkpt lat="45.0272" lon="4.30828">
        <ele>980.1</ele>
      </trkpt>
      <trkpt lat="45.02692" lon="4.30812">
        <ele>981.8</ele>
      </trkpt>
      <trkpt lat="45.02613" lon="4.30738">
        <ele>981</ele>
      </trkpt>
      <trkpt lat="45.02594" lon="4.30731">
        <ele>979.2</ele>
      </trkpt>
      <trkpt lat="45.02589" lon="4.30734">
        <ele>978.3</ele>
      </trkpt>
      <trkpt lat="45.02585" lon="4.30752">
        <ele>977</ele>
      </trkpt>
      <trkpt lat="45.02583" lon="4.30764">
        <ele>976.4</ele>
      </trkpt>
      <trkpt lat="45.02581" lon="4.30777">
        <ele>975.8</ele>
      </trkpt>
      <trkpt lat="45.02479" lon="4.31127">
        <ele>966.3</ele>
      </trkpt>
      <trkpt lat="45.02465" lon="4.31173">
        <ele>969.2</ele>
      </trkpt>
      <trkpt lat="45.02454" lon="4.31212">
        <ele>975.2</ele>
      </trkpt>
      <trkpt lat="45.02483" lon="4.31235">
        <ele>979.2</ele>
      </trkpt>
      <trkpt lat="45.02496" lon="4.31243">
        <ele>980.4</ele>
      </trkpt>
      <trkpt lat="45.02535" lon="4.3125">
        <ele>983.5</ele>
      </trkpt>
      <trkpt lat="45.02568" lon="4.31249">
        <ele>987.3</ele>
      </trkpt>
      <trkpt lat="45.0263" lon="4.31235">
        <ele>992.7</ele>
      </trkpt>
      <trkpt lat="45.0266" lon="4.31225">
        <ele>992.5</ele>
      </trkpt>
      <trkpt lat="45.02723" lon="4.31193">
        <ele>990.6</ele>
      </trkpt>
      <trkpt lat="45.02816" lon="4.3116">
        <ele>988.7</ele>
      </trkpt>
      <trkpt lat="45.0289" lon="4.31137">
        <ele>984.6</ele>
      </trkpt>
      <trkpt lat="45.02931" lon="4.31133">
        <ele>983.2</ele>
      </trkpt>
      <trkpt lat="45.02959" lon="4.31135">
        <ele>981.2</ele>
      </trkpt>
      <trkpt lat="45.02977" lon="4.31141">
        <ele>979.8</ele>
      </trkpt>
      <trkpt lat="45.02986" lon="4.31144">
        <ele>979.2</ele>
      </trkpt>
      <trkpt lat="45.03015" lon="4.31166">
        <ele>980.3</ele>
      </trkpt>
      <trkpt lat="45.03024" lon="4.3118">
        <ele>980.7</ele>
      </trkpt>
      <trkpt lat="45.03028" lon="4.31218">
        <ele>982.6</ele>
      </trkpt>
      <trkpt lat="45.03028" lon="4.31251">
        <ele>984.1</ele>
      </trkpt>
      <trkpt lat="45.03036" lon="4.31275">
        <ele>985.2</ele>
      </trkpt>
      <trkpt lat="45.0306" lon="4.31309">
        <ele>983.1</ele>
      </trkpt>
      <trkpt lat="45.03076" lon="4.31319">
        <ele>982.4</ele>
      </trkpt>
      <trkpt lat="45.03088" lon="4.31316">
        <ele>982.7</ele>
      </trkpt>
      <trkpt lat="45.03125" lon="4.31293">
        <ele>987.1</ele>
      </trkpt>
      <trkpt lat="45.03207" lon="4.31334">
        <ele>995.5</ele>
      </trkpt>
      <trkpt lat="45.03269" lon="4.31352">
        <ele>999</ele>
      </trkpt>
      <trkpt lat="45.03399" lon="4.31355">
        <ele>1010</ele>
      </trkpt>
      <trkpt lat="45.03503" lon="4.31352">
        <ele>1018</ele>
      </trkpt>
      <trkpt lat="45.03523" lon="4.31354">
        <ele>1020.7</ele>
      </trkpt>
      <trkpt lat="45.03571" lon="4.3136">
        <ele>1022.1</ele>
      </trkpt>
      <trkpt lat="45.03614" lon="4.31376">
        <ele>1022.4</ele>
      </trkpt>
      <trkpt lat="45.03658" lon="4.31363">
        <ele>1026.3</ele>
      </trkpt>
      <trkpt lat="45.0367" lon="4.31367">
        <ele>1027.3</ele>
      </trkpt>
      <trkpt lat="45.03671" lon="4.31367">
        <ele>1027.4</ele>
      </trkpt>
      <trkpt lat="45.03624" lon="4.3145">
        <ele>1038.1</ele>
      </trkpt>
      <trkpt lat="45.03613" lon="4.31478">
        <ele>1040.7</ele>
      </trkpt>
      <trkpt lat="45.03624" lon="4.31507">
        <ele>1044.2</ele>
      </trkpt>
      <trkpt lat="45.03691" lon="4.31597">
        <ele>1053.4</ele>
      </trkpt>
      <trkpt lat="45.03742" lon="4.31588">
        <ele>1055.9</ele>
      </trkpt>
      <trkpt lat="45.03771" lon="4.31571">
        <ele>1057.2</ele>
      </trkpt>
      <trkpt lat="45.03832" lon="4.31568">
        <ele>1057.4</ele>
      </trkpt>
      <trkpt lat="45.03867" lon="4.31566">
        <ele>1057.9</ele>
      </trkpt>
      <trkpt lat="45.03903" lon="4.31574">
        <ele>1057</ele>
      </trkpt>
      <trkpt lat="45.03935" lon="4.3156">
        <ele>1056.9</ele>
      </trkpt>
      <trkpt lat="45.03944" lon="4.31552">
        <ele>1056.7</ele>
      </trkpt>
      <trkpt lat="45.03959" lon="4.31536">
        <ele>1056.3</ele>
      </trkpt>
      <trkpt lat="45.03976" lon="4.31521">
        <ele>1055.3</ele>
      </trkpt>
      <trkpt lat="45.03986" lon="4.31513">
        <ele>1054.4</ele>
      </trkpt>
      <trkpt lat="45.04026" lon="4.31516">
        <ele>1054.3</ele>
      </trkpt>
      <trkpt lat="45.04195" lon="4.31467">
        <ele>1043.8</ele>
      </trkpt>
      <trkpt lat="45.04241" lon="4.31474">
        <ele>1041.8</ele>
      </trkpt>
      <trkpt lat="45.04242" lon="4.3148">
        <ele>1042.2</ele>
      </trkpt>
      <trkpt lat="45.04276" lon="4.31466">
        <ele>1037.7</ele>
      </trkpt>
      <trkpt lat="45.0428" lon="4.31451">
        <ele>1036.2</ele>
      </trkpt>
      <trkpt lat="45.04285" lon="4.31412">
        <ele>1031.4</ele>
      </trkpt>
      <trkpt lat="45.04314" lon="4.31407">
        <ele>1029</ele>
      </trkpt>
      <trkpt lat="45.04354" lon="4.3142">
        <ele>1026</ele>
      </trkpt>
      <trkpt lat="45.04383" lon="4.31415">
        <ele>1021.8</ele>
      </trkpt>
      <trkpt lat="45.04409" lon="4.31441">
        <ele>1015.2</ele>
      </trkpt>
      <trkpt lat="45.04454" lon="4.31528">
        <ele>1001.6</ele>
      </trkpt>
      <trkpt lat="45.0445" lon="4.3153">
        <ele>1001.8</ele>
      </trkpt>
      <trkpt lat="45.04454" lon="4.31528">
        <ele>1001.6</ele>
      </trkpt>
      <trkpt lat="45.04471" lon="4.31517">
        <ele>1000</ele>
      </trkpt>
      <trkpt lat="45.04518" lon="4.31475">
        <ele>996.1</ele>
      </trkpt>
      <trkpt lat="45.04539" lon="4.31427">
        <ele>991.1</ele>
      </trkpt>
      <trkpt lat="45.04563" lon="4.31346">
        <ele>981.1</ele>
      </trkpt>
      <trkpt lat="45.04622" lon="4.31246">
        <ele>970.2</ele>
      </trkpt>
      <trkpt lat="45.04655" lon="4.31197">
        <ele>965</ele>
      </trkpt>
      <trkpt lat="45.0465" lon="4.31198">
        <ele>965.1</ele>
      </trkpt>
      <trkpt lat="45.04655" lon="4.31197">
        <ele>965</ele>
      </trkpt>
      <trkpt lat="45.04665" lon="4.31182">
        <ele>964.9</ele>
      </trkpt>
      <trkpt lat="45.0466" lon="4.31177">
        <ele>964.2</ele>
      </trkpt>
      <trkpt lat="45.04642" lon="4.31174">
        <ele>961.7</ele>
      </trkpt>
      <trkpt lat="45.04634" lon="4.3117">
        <ele>960.4</ele>
      </trkpt>
      <trkpt lat="45.04618" lon="4.31163">
        <ele>958.6</ele>
      </trkpt>
      <trkpt lat="45.04601" lon="4.31143">
        <ele>954.7</ele>
      </trkpt>
      <trkpt lat="45.0458" lon="4.31114">
        <ele>952.1</ele>
      </trkpt>
      <trkpt lat="45.04563" lon="4.311">
        <ele>950.5</ele>
      </trkpt>
      <trkpt lat="45.0454" lon="4.31097">
        <ele>949.7</ele>
      </trkpt>
      <trkpt lat="45.04517" lon="4.31104">
        <ele>949.6</ele>
      </trkpt>
      <trkpt lat="45.04499" lon="4.31115">
        <ele>949.5</ele>
      </trkpt>
      <trkpt lat="45.04487" lon="4.31124">
        <ele>949.5</ele>
      </trkpt>
      <trkpt lat="45.0448" lon="4.31124">
        <ele>948.7</ele>
      </trkpt>
      <trkpt lat="45.04465" lon="4.31109">
        <ele>947.7</ele>
      </trkpt>
      <trkpt lat="45.04452" lon="4.31094">
        <ele>949.2</ele>
      </trkpt>
      <trkpt lat="45.0441" lon="4.31061">
        <ele>951.2</ele>
      </trkpt>
      <trkpt lat="45.04355" lon="4.31023">
        <ele>956.7</ele>
      </trkpt>
      <trkpt lat="45.04334" lon="4.31011">
        <ele>959.5</ele>
      </trkpt>
      <trkpt lat="45.04312" lon="4.31004">
        <ele>962</ele>
      </trkpt>
      <trkpt lat="45.0429" lon="4.30995">
        <ele>964.3</ele>
      </trkpt>
      <trkpt lat="45.04276" lon="4.30985">
        <ele>966.2</ele>
      </trkpt>
      <trkpt lat="45.04256" lon="4.30959">
        <ele>969.5</ele>
      </trkpt>
      <trkpt lat="45.04225" lon="4.30877">
        <ele>977.8</ele>
      </trkpt>
      <trkpt lat="45.04216" lon="4.30845">
        <ele>980.5</ele>
      </trkpt>
      <trkpt lat="45.04205" lon="4.30818">
        <ele>982.4</ele>
      </trkpt>
      <trkpt lat="45.04199" lon="4.30798">
        <ele>983.5</ele>
      </trkpt>
      <trkpt lat="45.04191" lon="4.30715">
        <ele>988.4</ele>
      </trkpt>
      <trkpt lat="45.04193" lon="4.30691">
        <ele>990</ele>
      </trkpt>
      <trkpt lat="45.04201" lon="4.30654">
        <ele>992.8</ele>
      </trkpt>
      <trkpt lat="45.04207" lon="4.30598">
        <ele>994</ele>
      </trkpt>
      <trkpt lat="45.04208" lon="4.30594">
        <ele>994.1</ele>
      </trkpt>
      <trkpt lat="45.04207" lon="4.30598">
        <ele>994</ele>
      </trkpt>
      <trkpt lat="45.0424" lon="4.30549">
        <ele>998.2</ele>
      </trkpt>
      <trkpt lat="45.04307" lon="4.30474">
        <ele>1002.9</ele>
      </trkpt>
      <trkpt lat="45.04331" lon="4.3045">
        <ele>1003.7</ele>
      </trkpt>
      <trkpt lat="45.04357" lon="4.30408">
        <ele>1007</ele>
      </trkpt>
      <trkpt lat="45.04366" lon="4.30388">
        <ele>1008.2</ele>
      </trkpt>
      <trkpt lat="45.0437" lon="4.30365">
        <ele>1008.3</ele>
      </trkpt>
      <trkpt lat="45.04372" lon="4.30333">
        <ele>1009.4</ele>
      </trkpt>
      <trkpt lat="45.04366" lon="4.30314">
        <ele>1011</ele>
      </trkpt>
      <trkpt lat="45.04356" lon="4.30292">
        <ele>1012.7</ele>
      </trkpt>
      <trkpt lat="45.04353" lon="4.30279">
        <ele>1013.6</ele>
      </trkpt>
      <trkpt lat="45.0436" lon="4.30282">
        <ele>1013.6</ele>
      </trkpt>
      <trkpt lat="45.04406" lon="4.30299">
        <ele>1012.2</ele>
      </trkpt>
      <trkpt lat="45.04425" lon="4.30301">
        <ele>1011.4</ele>
      </trkpt>
      <trkpt lat="45.04454" lon="4.30296">
        <ele>1010.6</ele>
      </trkpt>
      <trkpt lat="45.04467" lon="4.30302">
        <ele>1009.5</ele>
      </trkpt>
      <trkpt lat="45.04495" lon="4.30347">
        <ele>1011</ele>
      </trkpt>
      <trkpt lat="45.04512" lon="4.30357">
        <ele>1012</ele>
      </trkpt>
      <trkpt lat="45.04574" lon="4.30366">
        <ele>1015.1</ele>
      </trkpt>
      <trkpt lat="45.0468" lon="4.30378">
        <ele>1014.2</ele>
      </trkpt>
      <trkpt lat="45.04708" lon="4.30392">
        <ele>1016.5</ele>
      </trkpt>
      <trkpt lat="45.04754" lon="4.30427">
        <ele>1021.5</ele>
      </trkpt>
      <trkpt lat="45.04755" lon="4.30428">
        <ele>1021.5</ele>
      </trkpt>
      <trkpt lat="45.04786" lon="4.30413">
        <ele>1024.7</ele>
      </trkpt>
      <trkpt lat="45.04801" lon="4.304">
        <ele>1026.1</ele>
      </trkpt>
      <trkpt lat="45.0481" lon="4.30382">
        <ele>1027.5</ele>
      </trkpt>
      <trkpt lat="45.0482" lon="4.3031">
        <ele>1031.3</ele>
      </trkpt>
      <trkpt lat="45.04825" lon="4.3032">
        <ele>1030.4</ele>
      </trkpt>
      <trkpt lat="45.04873" lon="4.30409">
        <ele>1023.8</ele>
      </trkpt>
      <trkpt lat="45.04886" lon="4.30454">
        <ele>1022.7</ele>
      </trkpt>
      <trkpt lat="45.04896" lon="4.30481">
        <ele>1021.2</ele>
      </trkpt>
      <trkpt lat="45.04916" lon="4.30513">
        <ele>1019.1</ele>
      </trkpt>
      <trkpt lat="45.0492" lon="4.30535">
        <ele>1017.6</ele>
      </trkpt>
      <trkpt lat="45.04919" lon="4.30576">
        <ele>1015.4</ele>
      </trkpt>
      <trkpt lat="45.04922" lon="4.30598">
        <ele>1014</ele>
      </trkpt>
      <trkpt lat="45.04935" lon="4.30652">
        <ele>1009.5</ele>
      </trkpt>
      <trkpt lat="45.04936" lon="4.30668">
        <ele>1008.7</ele>
      </trkpt>
      <trkpt lat="45.04937" lon="4.30765">
        <ele>1004.5</ele>
      </trkpt>
      <trkpt lat="45.04941" lon="4.30772">
        <ele>1005.2</ele>
      </trkpt>
      <trkpt lat="45.0495" lon="4.30789">
        <ele>1005</ele>
      </trkpt>
      <trkpt lat="45.04978" lon="4.30817">
        <ele>1003.8</ele>
      </trkpt>
      <trkpt lat="45.0502" lon="4.30854">
        <ele>999.8</ele>
      </trkpt>
      <trkpt lat="45.05028" lon="4.30882">
        <ele>997.5</ele>
      </trkpt>
      <trkpt lat="45.05039" lon="4.30952">
        <ele>996.7</ele>
      </trkpt>
      <trkpt lat="45.05048" lon="4.31038">
        <ele>993.6</ele>
      </trkpt>
      <trkpt lat="45.05064" lon="4.31157">
        <ele>990</ele>
      </trkpt>
      <trkpt lat="45.05064" lon="4.31186">
        <ele>989</ele>
      </trkpt>
      <trkpt lat="45.05072" lon="4.31219">
        <ele>987</ele>
      </trkpt>
      <trkpt lat="45.05087" lon="4.31248">
        <ele>984.9</ele>
      </trkpt>
      <trkpt lat="45.05069" lon="4.31293">
        <ele>983.5</ele>
      </trkpt>
      <trkpt lat="45.0507" lon="4.3135">
        <ele>981.8</ele>
      </trkpt>
      <trkpt lat="45.0506" lon="4.31404">
        <ele>979.1</ele>
      </trkpt>
      <trkpt lat="45.05061" lon="4.3143">
        <ele>977.9</ele>
      </trkpt>
      <trkpt lat="45.05073" lon="4.31476">
        <ele>975.1</ele>
      </trkpt>
      <trkpt lat="45.05083" lon="4.31513">
        <ele>972.1</ele>
      </trkpt>
      <trkpt lat="45.05098" lon="4.31548">
        <ele>969.7</ele>
      </trkpt>
      <trkpt lat="45.05103" lon="4.31572">
        <ele>967.2</ele>
      </trkpt>
      <trkpt lat="45.05113" lon="4.31607">
        <ele>962.9</ele>
      </trkpt>
      <trkpt lat="45.05129" lon="4.31632">
        <ele>962.2</ele>
      </trkpt>
      <trkpt lat="45.05138" lon="4.31649">
        <ele>960.9</ele>
      </trkpt>
      <trkpt lat="45.0514" lon="4.31671">
        <ele>958.6</ele>
      </trkpt>
      <trkpt lat="45.05134" lon="4.31704">
        <ele>956</ele>
      </trkpt>
      <trkpt lat="45.05136" lon="4.31729">
        <ele>954.6</ele>
      </trkpt>
      <trkpt lat="45.05149" lon="4.31803">
        <ele>950.3</ele>
      </trkpt>
      <trkpt lat="45.05156" lon="4.31812">
        <ele>949.4</ele>
      </trkpt>
      <trkpt lat="45.05164" lon="4.31809">
        <ele>949.1</ele>
      </trkpt>
      <trkpt lat="45.05198" lon="4.31702">
        <ele>946.3</ele>
      </trkpt>
      <trkpt lat="45.05209" lon="4.31681">
        <ele>945</ele>
      </trkpt>
      <trkpt lat="45.05223" lon="4.31666">
        <ele>942.1</ele>
      </trkpt>
      <trkpt lat="45.05238" lon="4.31652">
        <ele>942.6</ele>
      </trkpt>
      <trkpt lat="45.05254" lon="4.31641">
        <ele>939.6</ele>
      </trkpt>
      <trkpt lat="45.05274" lon="4.31646">
        <ele>938.2</ele>
      </trkpt>
      <trkpt lat="45.05298" lon="4.31657">
        <ele>939.2</ele>
      </trkpt>
      <trkpt lat="45.05305" lon="4.31661">
        <ele>939.8</ele>
      </trkpt>
      <trkpt lat="45.05311" lon="4.31663">
        <ele>940.3</ele>
      </trkpt>
      <trkpt lat="45.05311" lon="4.31663">
        <ele>940.3</ele>
      </trkpt>
      <trkpt lat="45.05305" lon="4.31661">
        <ele>939.8</ele>
      </trkpt>
      <trkpt lat="45.05333" lon="4.3155">
        <ele>939</ele>
      </trkpt>
      <trkpt lat="45.0534" lon="4.3153">
        <ele>939.2</ele>
      </trkpt>
      <trkpt lat="45.05334" lon="4.31505">
        <ele>939</ele>
      </trkpt>
      <trkpt lat="45.05327" lon="4.31456">
        <ele>937.5</ele>
      </trkpt>
      <trkpt lat="45.05337" lon="4.31431">
        <ele>937.7</ele>
      </trkpt>
      <trkpt lat="45.05351" lon="4.31384">
        <ele>936.9</ele>
      </trkpt>
      <trkpt lat="45.05378" lon="4.31324">
        <ele>936.4</ele>
      </trkpt>
      <trkpt lat="45.05394" lon="4.31301">
        <ele>936.1</ele>
      </trkpt>
      <trkpt lat="45.05444" lon="4.31272">
        <ele>936.3</ele>
      </trkpt>
      <trkpt lat="45.0547" lon="4.31241">
        <ele>935.9</ele>
      </trkpt>
      <trkpt lat="45.05519" lon="4.31209">
        <ele>940.7</ele>
      </trkpt>
      <trkpt lat="45.0553" lon="4.31197">
        <ele>942.3</ele>
      </trkpt>
      <trkpt lat="45.05539" lon="4.31187">
        <ele>944.5</ele>
      </trkpt>
      <trkpt lat="45.05565" lon="4.31133">
        <ele>945.6</ele>
      </trkpt>
      <trkpt lat="45.0558" lon="4.3111">
        <ele>949.9</ele>
      </trkpt>
      <trkpt lat="45.05589" lon="4.31069">
        <ele>948</ele>
      </trkpt>
      <trkpt lat="45.05591" lon="4.31034">
        <ele>943.2</ele>
      </trkpt>
      <trkpt lat="45.05641" lon="4.30943">
        <ele>941.4</ele>
      </trkpt>
      <trkpt lat="45.05659" lon="4.30886">
        <ele>937.6</ele>
      </trkpt>
      <trkpt lat="45.05673" lon="4.30845">
        <ele>935.3</ele>
      </trkpt>
      <trkpt lat="45.05683" lon="4.30824">
        <ele>934.3</ele>
      </trkpt>
      <trkpt lat="45.05706" lon="4.30771">
        <ele>933.3</ele>
      </trkpt>
      <trkpt lat="45.05742" lon="4.30729">
        <ele>933</ele>
      </trkpt>
      <trkpt lat="45.05765" lon="4.30721">
        <ele>933</ele>
      </trkpt>
      <trkpt lat="45.05786" lon="4.30709">
        <ele>933</ele>
      </trkpt>
      <trkpt lat="45.05835" lon="4.30671">
        <ele>931.6</ele>
      </trkpt>
      <trkpt lat="45.05858" lon="4.3065">
        <ele>933.2</ele>
      </trkpt>
      <trkpt lat="45.0588" lon="4.30611">
        <ele>932.4</ele>
      </trkpt>
      <trkpt lat="45.05887" lon="4.30599">
        <ele>932.5</ele>
      </trkpt>
      <trkpt lat="45.05915" lon="4.30566">
        <ele>932.3</ele>
      </trkpt>
      <trkpt lat="45.05961" lon="4.30527">
        <ele>932.1</ele>
      </trkpt>
      <trkpt lat="45.05978" lon="4.30522">
        <ele>934.3</ele>
      </trkpt>
      <trkpt lat="45.05991" lon="4.30511">
        <ele>936.7</ele>
      </trkpt>
      <trkpt lat="45.06009" lon="4.30469">
        <ele>937.6</ele>
      </trkpt>
      <trkpt lat="45.06018" lon="4.30442">
        <ele>939.3</ele>
      </trkpt>
      <trkpt lat="45.06021" lon="4.30417">
        <ele>939.1</ele>
      </trkpt>
      <trkpt lat="45.06016" lon="4.30392">
        <ele>940.8</ele>
      </trkpt>
      <trkpt lat="45.06016" lon="4.30354">
        <ele>948</ele>
      </trkpt>
      <trkpt lat="45.05994" lon="4.30329">
        <ele>949.4</ele>
      </trkpt>
      <trkpt lat="45.05986" lon="4.30318">
        <ele>950.1</ele>
      </trkpt>
      <trkpt lat="45.05977" lon="4.30292">
        <ele>952.5</ele>
      </trkpt>
      <trkpt lat="45.0598" lon="4.30275">
        <ele>953.5</ele>
      </trkpt>
      <trkpt lat="45.05979" lon="4.30275">
        <ele>953.5</ele>
      </trkpt>
      <trkpt lat="45.05975" lon="4.30274">
        <ele>953.2</ele>
      </trkpt>
      <trkpt lat="45.0594" lon="4.30264">
        <ele>950.2</ele>
      </trkpt>
      <trkpt lat="45.05882" lon="4.30251">
        <ele>942.4</ele>
      </trkpt>
      <trkpt lat="45.05848" lon="4.30239">
        <ele>938.9</ele>
      </trkpt>
      <trkpt lat="45.05841" lon="4.30235">
        <ele>937.9</ele>
      </trkpt>
      <trkpt lat="45.0584" lon="4.30232">
        <ele>937.7</ele>
      </trkpt>
      <trkpt lat="45.05838" lon="4.3023">
        <ele>937.3</ele>
      </trkpt>
      <trkpt lat="45.05837" lon="4.30222">
        <ele>936.7</ele>
      </trkpt>
      <trkpt lat="45.0584" lon="4.30193">
        <ele>937.9</ele>
      </trkpt>
      <trkpt lat="45.05854" lon="4.30134">
        <ele>938.7</ele>
      </trkpt>
      <trkpt lat="45.05864" lon="4.30139">
        <ele>940.2</ele>
      </trkpt>
      <trkpt lat="45.05878" lon="4.30139">
        <ele>941.2</ele>
      </trkpt>
      <trkpt lat="45.05884" lon="4.30132">
        <ele>941.6</ele>
      </trkpt>
      <trkpt lat="45.05887" lon="4.30123">
        <ele>941.8</ele>
      </trkpt>
      <trkpt lat="45.05892" lon="4.30121">
        <ele>942.2</ele>
      </trkpt>
      <trkpt lat="45.05893" lon="4.30108">
        <ele>942</ele>
      </trkpt>
      <trkpt lat="45.05898" lon="4.30093">
        <ele>941.7</ele>
      </trkpt>
      <trkpt lat="45.059" lon="4.30085">
        <ele>941.5</ele>
      </trkpt>
    </trkseg>
  </trk>
</gpx>